Time,TemperatureF,DewpointF,PressureIn,WindDirection,WindDirectionDegrees,WindSpeedMPH,WindSpeedGustMPH,Humidity,HourlyPrecipIn,Conditions,Clouds,dailyrainin,SoftwareType,DateUTC
2013-01-21 00:00:00,33.7,4.8,30.43,WSW,250,16.0,22.0,29,0.00,,SKC,0.00,VWS V14.01,2013-01-21 07:00:00,
2013-01-21 00:01:00,33.7,4.8,30.43,WSW,250,16.0,22.0,29,0.00,,SKC,0.00,VWS V14.01,2013-01-21 07:01:00,
2013-01-21 00:02:00,33.7,4.8,30.43,North,360,15.0,24.0,29,0.00,,SKC,0.00,VWS V14.01,2013-01-21 07:02:00,
2013-01-21 00:03:00,33.7,4.8,30.42,North,360,24.0,24.0,29,0.00,,SKC,0.00,VWS V14.01,2013-01-21 07:03:00,
2013-01-21 00:04:00,33.7,4.8,30.42,North,360,22.0,25.0,29,0.00,,SKC,0.00,VWS V14.01,2013-01-21 07:04:00,
2013-01-21 00:05:00,33.8,4.9,30.43,WSW,240,24.0,28.0,29,0.00,,SKC,0.00,VWS V14.01,2013-01-21 07:05:00,
2013-01-21 00:06:00,33.8,4.9,30.42,WSW,253,20.0,29.0,29,0.00,,SKC,0.00,VWS V14.01,2013-01-21 07:06:00,
2013-01-21 00:07:00,33.8,4.9,30.42,WSW,253,20.0,29.0,29,0.00,,SKC,0.00,VWS V14.01,2013-01-21 07:07:00,
2013-01-21 00:08:00,33.8,4.9,30.42,WSW,257,22.0,29.0,29,0.00,,SKC,0.00,VWS V14.01,2013-01-21 07:08:00,
2013-01-21 00:09:00,33.8,4.2,30.42,West,263,27.0,34.0,28,0.00,,SKC,0.00,VWS V14.01,2013-01-21 07:09:00,
2013-01-21 00:10:00,33.8,4.2,30.42,WSW,257,26.0,33.0,28,0.00,,SKC,0.00,VWS V14.01,2013-01-21 07:10:00,
2013-01-21 00:11:00,33.8,4.2,30.42,West,261,24.0,27.0,28,0.00,,SKC,0.00,VWS V14.01,2013-01-21 07:11:00,
2013-01-21 00:12:00,33.8,4.2,30.42,WSW,238,24.0,29.0,28,0.00,,SKC,0.00,VWS V14.01,2013-01-21 07:12:00,
2013-01-21 00:13:00,33.8,4.2,30.42,SW,236,16.0,24.0,28,0.00,,SKC,0.00,VWS V14.01,2013-01-21 07:13:00,
2013-01-21 00:14:00,33.8,4.2,30.41,WSW,240,23.0,29.0,28,0.00,,SKC,0.00,VWS V14.01,2013-01-21 07:14:00,
2013-01-21 00:15:00,33.7,4.1,30.41,SW,235,29.0,32.0,28,0.00,,SKC,0.00,VWS V14.01,2013-01-21 07:15:00,
2013-01-21 00:16:00,33.8,4.2,30.41,WSW,258,24.0,33.0,28,0.00,,SKC,0.00,VWS V14.01,2013-01-21 07:16:00,
2013-01-21 00:17:00,33.8,4.9,30.42,West,273,25.0,32.0,29,0.00,,SKC,0.00,VWS V14.01,2013-01-21 07:17:00,
2013-01-21 00:18:00,33.7,4.1,30.42,West,267,21.0,28.0,28,0.00,,SKC,0.00,VWS V14.01,2013-01-21 07:18:00,
2013-01-21 00:19:00,33.7,4.8,30.42,WSW,252,17.0,21.0,29,0.00,,SKC,0.00,VWS V14.01,2013-01-21 07:19:00,
2013-01-21 00:20:00,33.6,4.8,30.42,SW,219,19.0,21.0,29,0.00,,SKC,0.00,VWS V14.01,2013-01-21 07:20:00,
2013-01-21 00:21:00,33.6,4.8,30.42,WSW,252,25.0,28.0,29,0.00,,SKC,0.00,VWS V14.01,2013-01-21 07:21:00,
2013-01-21 00:22:00,33.6,4.8,30.42,SW,234,33.0,38.0,29,0.00,,SKC,0.00,VWS V14.01,2013-01-21 07:22:00,
2013-01-21 00:23:00,33.6,4.8,30.41,WSW,245,23.0,33.0,29,0.00,,SKC,0.00,VWS V14.01,2013-01-21 07:23:00,
2013-01-21 00:24:00,33.6,4.8,30.42,WSW,254,23.0,26.0,29,0.00,,SKC,0.00,VWS V14.01,2013-01-21 07:24:00,
2013-01-21 00:25:00,33.6,4.8,30.42,WSW,254,20.0,26.0,29,0.00,,SKC,0.00,VWS V14.01,2013-01-21 07:25:00,
2013-01-21 00:26:00,33.7,4.8,30.42,WSW,254,31.0,34.0,29,0.00,,SKC,0.00,VWS V14.01,2013-01-21 07:26:00,
2013-01-21 00:27:00,33.7,4.8,30.42,West,265,22.0,33.0,29,0.00,,SKC,0.00,VWS V14.01,2013-01-21 07:27:00,
2013-01-21 00:28:00,33.7,4.8,30.41,West,271,25.0,34.0,29,0.00,,SKC,0.00,VWS V14.01,2013-01-21 07:28:00,
2013-01-21 00:29:00,33.7,4.8,30.42,WSW,253,32.0,32.0,29,0.00,,SKC,0.00,VWS V14.01,2013-01-21 07:29:00,
2013-01-21 00:30:00,33.7,4.8,30.41,West,265,22.0,35.0,29,0.00,,SKC,0.00,VWS V14.01,2013-01-21 07:30:00,
2013-01-21 00:31:00,33.7,4.8,30.41,SW,235,30.0,31.0,29,0.00,,SKC,0.00,VWS V14.01,2013-01-21 07:31:00,
2013-01-21 00:32:00,33.7,4.1,30.40,West,260,29.0,34.0,28,0.00,,SKC,0.00,VWS V14.01,2013-01-21 07:32:00,
2013-01-21 00:33:00,33.8,4.2,30.41,WSW,258,28.0,33.0,28,0.00,,SKC,0.00,VWS V14.01,2013-01-21 07:33:00,
2013-01-21 00:34:00,33.8,4.2,30.41,WSW,240,19.0,31.0,28,0.00,,SKC,0.00,VWS V14.01,2013-01-21 07:34:00,
2013-01-21 00:35:00,33.7,4.1,30.41,WSW,252,31.0,31.0,28,0.00,,SKC,0.00,VWS V14.01,2013-01-21 07:35:00,
2013-01-21 00:36:00,33.7,4.1,30.41,WSW,241,30.0,33.0,28,0.00,,SKC,0.00,VWS V14.01,2013-01-21 07:36:00,
2013-01-21 00:37:00,33.7,4.8,30.41,North,360,25.0,31.0,29,0.00,,SKC,0.00,VWS V14.01,2013-01-21 07:37:00,
2013-01-21 00:38:00,33.7,4.1,30.41,WSW,253,34.0,34.0,28,0.00,,SKC,0.00,VWS V14.01,2013-01-21 07:38:00,
2013-01-21 00:39:00,33.7,4.1,30.40,West,269,24.0,34.0,28,0.00,,SKC,0.00,VWS V14.01,2013-01-21 07:39:00,
2013-01-21 00:40:00,33.7,4.1,30.41,WSW,249,25.0,35.0,28,0.00,,SKC,0.00,VWS V14.01,2013-01-21 07:40:00,
2013-01-21 00:41:00,33.7,4.1,30.41,WSW,258,33.0,39.0,28,0.00,,SKC,0.00,VWS V14.01,2013-01-21 07:41:00,
2013-01-21 00:42:00,33.7,4.1,30.41,WSW,257,36.0,45.0,28,0.00,,SKC,0.00,VWS V14.01,2013-01-21 07:42:00,
2013-01-21 00:43:00,33.7,4.1,30.41,West,263,30.0,36.0,28,0.00,,SKC,0.00,VWS V14.01,2013-01-21 07:43:00,
2013-01-21 00:44:00,33.8,4.2,30.41,West,262,23.0,40.0,28,0.00,,SKC,0.00,VWS V14.01,2013-01-21 07:44:00,
2013-01-21 00:45:00,33.9,4.2,30.41,West,269,29.0,40.0,28,0.00,,SKC,0.00,VWS V14.01,2013-01-21 07:45:00,
2013-01-21 00:46:00,33.9,4.2,30.41,WSW,255,28.0,33.0,28,0.00,,SKC,0.00,VWS V14.01,2013-01-21 07:46:00,
2013-01-21 00:47:00,33.9,4.2,30.41,North,360,34.0,37.0,28,0.00,,SKC,0.00,VWS V14.01,2013-01-21 07:47:00,
2013-01-21 00:48:00,33.9,4.2,30.41,North,360,37.0,38.0,28,0.00,,SKC,0.00,VWS V14.01,2013-01-21 07:48:00,
2013-01-21 00:49:00,33.9,4.2,30.41,North,360,37.0,41.0,28,0.00,,SKC,0.00,VWS V14.01,2013-01-21 07:49:00,
2013-01-21 00:50:00,33.9,4.2,30.40,West,261,39.0,40.0,28,0.00,,SKC,0.00,VWS V14.01,2013-01-21 07:50:00,
2013-01-21 00:51:00,33.9,4.2,30.41,SW,236,32.0,39.0,28,0.00,,SKC,0.00,VWS V14.01,2013-01-21 07:51:00,
2013-01-21 00:52:00,33.9,4.2,30.41,North,360,29.0,41.0,28,0.00,,SKC,0.00,VWS V14.01,2013-01-21 07:52:00,
2013-01-21 00:53:00,33.9,4.2,30.41,WSW,238,28.0,35.0,28,0.00,,SKC,0.00,VWS V14.01,2013-01-21 07:53:00,
2013-01-21 00:54:00,33.9,4.2,30.41,West,263,33.0,40.0,28,0.00,,SKC,0.00,VWS V14.01,2013-01-21 07:54:00,
2013-01-21 00:55:00,33.8,4.2,30.41,West,273,27.0,39.0,28,0.00,,SKC,0.00,VWS V14.01,2013-01-21 07:55:00,
2013-01-21 00:56:00,33.8,4.2,30.41,North,360,32.0,39.0,28,0.00,,SKC,0.00,VWS V14.01,2013-01-21 07:56:00,
2013-01-21 00:57:00,33.8,4.2,30.41,WSW,247,34.0,34.0,28,0.00,,SKC,0.00,VWS V14.01,2013-01-21 07:57:00,
2013-01-21 00:58:00,33.8,4.2,30.41,WSW,252,26.0,34.0,28,0.00,,SKC,0.00,VWS V14.01,2013-01-21 07:58:00,
2013-01-21 00:59:00,33.8,4.2,30.40,WSW,241,30.0,30.0,28,0.00,,SKC,0.00,VWS V14.01,2013-01-21 07:59:00,
2013-01-21 01:00:00,33.7,4.1,30.41,WSW,257,17.0,30.0,28,0.00,,SKC,0.00,VWS V14.01,2013-01-21 08:00:00,
2013-01-21 01:01:00,33.6,4.0,30.41,North,360,24.0,28.0,28,0.00,,SKC,0.00,VWS V14.01,2013-01-21 08:01:00,
2013-01-21 01:02:00,33.6,4.0,30.41,WNW,294,21.0,32.0,28,0.00,,SKC,0.00,VWS V14.01,2013-01-21 08:02:00,
2013-01-21 01:03:00,33.5,3.9,30.41,West,270,28.0,31.0,28,0.00,,SKC,0.00,VWS V14.01,2013-01-21 08:03:00,
2013-01-21 01:04:00,33.5,3.9,30.41,SW,227,28.0,29.0,28,0.00,,SKC,0.00,VWS V14.01,2013-01-21 08:04:00,
2013-01-21 01:05:00,33.5,3.9,30.41,WSW,249,26.0,32.0,28,0.00,,SKC,0.00,VWS V14.01,2013-01-21 08:05:00,
2013-01-21 01:06:00,33.5,3.9,30.41,West,261,23.0,32.0,28,0.00,,SKC,0.00,VWS V14.01,2013-01-21 08:06:00,
2013-01-21 01:07:00,33.5,3.9,30.41,West,261,23.0,32.0,28,0.00,,SKC,0.00,VWS V14.01,2013-01-21 08:07:00,
2013-01-21 01:08:00,33.5,3.9,30.42,WSW,257,33.0,33.0,28,0.00,,SKC,0.00,VWS V14.01,2013-01-21 08:08:00,
2013-01-21 01:09:00,33.5,3.9,30.41,WSW,257,26.0,33.0,28,0.00,,SKC,0.00,VWS V14.01,2013-01-21 08:09:00,
2013-01-21 01:10:00,33.5,3.9,30.41,West,274,26.0,28.0,28,0.00,,SKC,0.00,VWS V14.01,2013-01-21 08:10:00,
2013-01-21 01:11:00,33.6,4.0,30.42,West,267,13.0,26.0,28,0.00,,SKC,0.00,VWS V14.01,2013-01-21 08:11:00,
2013-01-21 01:12:00,33.5,3.9,30.42,WSW,255,18.0,25.0,28,0.00,,SKC,0.00,VWS V14.01,2013-01-21 08:12:00,
2013-01-21 01:13:00,33.5,3.9,30.42,WSW,255,18.0,25.0,28,0.00,,SKC,0.00,VWS V14.01,2013-01-21 08:13:00,
2013-01-21 01:14:00,33.4,3.8,30.42,SW,232,21.0,21.0,28,0.00,,SKC,0.00,VWS V14.01,2013-01-21 08:14:00,
2013-01-21 01:15:00,33.4,3.8,30.42,West,261,20.0,25.0,28,0.00,,SKC,0.00,VWS V14.01,2013-01-21 08:15:00,
2013-01-21 01:16:00,33.3,3.7,30.42,WSW,252,24.0,26.0,28,0.00,,SKC,0.00,VWS V14.01,2013-01-21 08:16:00,
2013-01-21 01:17:00,33.3,3.7,30.42,WSW,244,28.0,31.0,28,0.00,,SKC,0.00,VWS V14.01,2013-01-21 08:17:00,
2013-01-21 01:18:00,33.3,3.7,30.41,North,360,23.0,28.0,28,0.00,,SKC,0.00,VWS V14.01,2013-01-21 08:18:00,
2013-01-21 01:19:00,33.4,3.8,30.42,WSW,258,22.0,26.0,28,0.00,,SKC,0.00,VWS V14.01,2013-01-21 08:19:00,
2013-01-21 01:20:00,33.4,3.8,30.42,WSW,246,22.0,31.0,28,0.00,,SKC,0.00,VWS V14.01,2013-01-21 08:20:00,
2013-01-21 01:21:00,33.5,3.9,30.42,WSW,248,21.0,28.0,28,0.00,,SKC,0.00,VWS V14.01,2013-01-21 08:21:00,
2013-01-21 01:22:00,33.5,3.9,30.42,West,262,20.0,25.0,28,0.00,,SKC,0.00,VWS V14.01,2013-01-21 08:22:00,
2013-01-21 01:23:00,33.5,3.9,30.42,North,360,29.0,32.0,28,0.00,,SKC,0.00,VWS V14.01,2013-01-21 08:23:00,
2013-01-21 01:24:00,33.5,3.9,30.42,WSW,258,24.0,29.0,28,0.00,,SKC,0.00,VWS V14.01,2013-01-21 08:24:00,
2013-01-21 01:25:00,33.6,4.0,30.42,West,261,23.0,27.0,28,0.00,,SKC,0.00,VWS V14.01,2013-01-21 08:25:00,
2013-01-21 01:26:00,33.6,4.0,30.42,West,261,18.0,25.0,28,0.00,,SKC,0.00,VWS V14.01,2013-01-21 08:26:00,
2013-01-21 01:27:00,33.5,3.9,30.42,WSW,258,24.0,28.0,28,0.00,,SKC,0.00,VWS V14.01,2013-01-21 08:27:00,
2013-01-21 01:28:00,33.5,3.9,30.42,WSW,252,21.0,27.0,28,0.00,,SKC,0.00,VWS V14.01,2013-01-21 08:28:00,
2013-01-21 01:29:00,33.4,3.8,30.42,WSW,248,21.0,24.0,28,0.00,,SKC,0.00,VWS V14.01,2013-01-21 08:29:00,
2013-01-21 01:30:00,33.4,4.6,30.42,North,360,19.0,26.0,29,0.00,,SKC,0.00,VWS V14.01,2013-01-21 08:30:00,
2013-01-21 01:31:00,33.4,4.6,30.42,North,360,16.0,27.0,29,0.00,,SKC,0.00,VWS V14.01,2013-01-21 08:31:00,
2013-01-21 01:32:00,33.4,4.6,30.42,North,360,19.0,23.0,29,0.00,,SKC,0.00,VWS V14.01,2013-01-21 08:32:00,
2013-01-21 01:33:00,33.3,3.7,30.42,North,360,21.0,25.0,28,0.00,,SKC,0.00,VWS V14.01,2013-01-21 08:33:00,
2013-01-21 01:34:00,33.4,4.6,30.42,North,360,21.0,24.0,29,0.00,,SKC,0.00,VWS V14.01,2013-01-21 08:34:00,
2013-01-21 01:35:00,33.4,4.6,30.42,WSW,246,16.0,23.0,29,0.00,,SKC,0.00,VWS V14.01,2013-01-21 08:35:00,
2013-01-21 01:36:00,33.3,4.5,30.42,North,360,22.0,24.0,29,0.00,,SKC,0.00,VWS V14.01,2013-01-21 08:36:00,
2013-01-21 01:37:00,33.4,4.6,30.42,North,360,13.0,23.0,29,0.00,,SKC,0.00,VWS V14.01,2013-01-21 08:37:00,
2013-01-21 01:38:00,33.4,4.6,30.43,WSW,246,18.0,18.0,29,0.00,,SKC,0.00,VWS V14.01,2013-01-21 08:38:00,
2013-01-21 01:39:00,33.5,4.7,30.42,North,360,19.0,23.0,29,0.00,,SKC,0.00,VWS V14.01,2013-01-21 08:39:00,
2013-01-21 01:40:00,33.5,4.7,30.42,West,261,20.0,20.0,29,0.00,,SKC,0.00,VWS V14.01,2013-01-21 08:40:00,
2013-01-21 01:41:00,33.5,4.7,30.42,West,263,15.0,24.0,29,0.00,,SKC,0.00,VWS V14.01,2013-01-21 08:41:00,
2013-01-21 01:42:00,33.4,4.6,30.42,WSW,242,17.0,21.0,29,0.00,,SKC,0.00,VWS V14.01,2013-01-21 08:42:00,
2013-01-21 01:43:00,33.4,4.6,30.42,WSW,245,19.0,25.0,29,0.00,,SKC,0.00,VWS V14.01,2013-01-21 08:43:00,
2013-01-21 01:44:00,33.4,4.6,30.43,West,269,17.0,20.0,29,0.00,,SKC,0.00,VWS V14.01,2013-01-21 08:44:00,
2013-01-21 01:45:00,33.4,4.6,30.43,West,275,21.0,21.0,29,0.00,,SKC,0.00,VWS V14.01,2013-01-21 08:45:00,
2013-01-21 01:46:00,33.4,4.6,30.42,WSW,238,17.0,24.0,29,0.00,,SKC,0.00,VWS V14.01,2013-01-21 08:46:00,
2013-01-21 01:47:00,33.4,4.6,30.42,SW,234,18.0,22.0,29,0.00,,SKC,0.00,VWS V14.01,2013-01-21 08:47:00,
2013-01-21 01:48:00,33.4,4.6,30.42,North,360,21.0,23.0,29,0.00,,SKC,0.00,VWS V14.01,2013-01-21 08:48:00,
2013-01-21 01:49:00,33.4,4.6,30.43,North,360,17.0,22.0,29,0.00,,SKC,0.00,VWS V14.01,2013-01-21 08:49:00,
2013-01-21 01:50:00,33.4,4.6,30.43,North,360,14.0,22.0,29,0.00,,SKC,0.00,VWS V14.01,2013-01-21 08:50:00,
2013-01-21 01:51:00,33.4,4.6,30.43,North,360,21.0,26.0,29,0.00,,SKC,0.00,VWS V14.01,2013-01-21 08:51:00,
2013-01-21 01:52:00,33.4,4.6,30.43,North,360,13.0,22.0,29,0.00,,SKC,0.00,VWS V14.01,2013-01-21 08:52:00,
2013-01-21 01:53:00,33.5,4.7,30.43,West,271,14.0,22.0,29,0.00,,SKC,0.00,VWS V14.01,2013-01-21 08:53:00,
2013-01-21 01:54:00,33.4,4.6,30.44,WSW,242,13.0,14.0,29,0.00,,SKC,0.00,VWS V14.01,2013-01-21 08:54:00,
2013-01-21 01:55:00,33.4,4.6,30.44,WSW,254,13.0,20.0,29,0.00,,SKC,0.00,VWS V14.01,2013-01-21 08:55:00,
2013-01-21 01:56:00,33.4,4.6,30.43,North,360,14.0,18.0,29,0.00,,SKC,0.00,VWS V14.01,2013-01-21 08:56:00,
2013-01-21 01:57:00,33.4,4.6,30.43,North,360,17.0,17.0,29,0.00,,SKC,0.00,VWS V14.01,2013-01-21 08:57:00,
2013-01-21 01:58:00,33.4,4.6,30.44,West,263,10.0,17.0,29,0.00,,SKC,0.00,VWS V14.01,2013-01-21 08:58:00,
2013-01-21 01:59:00,33.4,4.6,30.43,WSW,241,17.0,19.0,29,0.00,,SKC,0.00,VWS V14.01,2013-01-21 08:59:00,
2013-01-21 02:00:00,33.3,4.5,30.44,North,360,13.0,19.0,29,0.00,,SKC,0.00,VWS V14.01,2013-01-21 09:00:00,
2013-01-21 02:01:00,33.3,4.5,30.44,WSW,248,14.0,17.0,29,0.00,,SKC,0.00,VWS V14.01,2013-01-21 09:01:00,
2013-01-21 02:02:00,33.3,4.5,30.44,West,271,16.0,17.0,29,0.00,,SKC,0.00,VWS V14.01,2013-01-21 09:02:00,
2013-01-21 02:03:00,33.3,4.5,30.43,WSW,244,13.0,20.0,29,0.00,,SKC,0.00,VWS V14.01,2013-01-21 09:03:00,
2013-01-21 02:04:00,33.3,4.5,30.43,North,360,13.0,22.0,29,0.00,,SKC,0.00,VWS V14.01,2013-01-21 09:04:00,
2013-01-21 02:05:00,33.3,4.5,30.44,WSW,248,16.0,16.0,29,0.00,,SKC,0.00,VWS V14.01,2013-01-21 09:05:00,
2013-01-21 02:06:00,33.3,4.5,30.44,North,360,16.0,21.0,29,0.00,,SKC,0.00,VWS V14.01,2013-01-21 09:06:00,
2013-01-21 02:07:00,33.4,4.6,30.44,WSW,244,15.0,19.0,29,0.00,,SKC,0.00,VWS V14.01,2013-01-21 09:07:00,
2013-01-21 02:08:00,33.4,4.6,30.44,SW,229,18.0,23.0,29,0.00,,SKC,0.00,VWS V14.01,2013-01-21 09:08:00,
2013-01-21 02:09:00,33.5,4.7,30.44,North,360,14.0,19.0,29,0.00,,SKC,0.00,VWS V14.01,2013-01-21 09:09:00,
2013-01-21 02:10:00,33.5,4.7,30.44,West,269,24.0,26.0,29,0.00,,SKC,0.00,VWS V14.01,2013-01-21 09:10:00,
2013-01-21 02:11:00,33.5,4.7,30.44,North,360,23.0,24.0,29,0.00,,SKC,0.00,VWS V14.01,2013-01-21 09:11:00,
2013-01-21 02:12:00,33.6,4.8,30.44,WSW,252,18.0,23.0,29,0.00,,SKC,0.00,VWS V14.01,2013-01-21 09:12:00,
2013-01-21 02:13:00,33.6,4.8,30.44,WSW,246,18.0,25.0,29,0.00,,SKC,0.00,VWS V14.01,2013-01-21 09:13:00,
2013-01-21 02:14:00,33.6,4.8,30.44,North,360,23.0,24.0,29,0.00,,SKC,0.00,VWS V14.01,2013-01-21 09:14:00,
2013-01-21 02:15:00,33.6,4.8,30.44,WSW,254,16.0,23.0,29,0.00,,SKC,0.00,VWS V14.01,2013-01-21 09:15:00,
2013-01-21 02:16:00,33.6,4.0,30.44,WSW,240,20.0,22.0,28,0.00,,SKC,0.00,VWS V14.01,2013-01-21 09:16:00,
2013-01-21 02:17:00,33.6,4.0,30.44,North,360,20.0,23.0,28,0.00,,SKC,0.00,VWS V14.01,2013-01-21 09:17:00,
2013-01-21 02:18:00,33.6,4.0,30.44,West,259,17.0,24.0,28,0.00,,SKC,0.00,VWS V14.01,2013-01-21 09:18:00,
2013-01-21 02:19:00,33.6,4.8,30.44,North,360,23.0,25.0,29,0.00,,SKC,0.00,VWS V14.01,2013-01-21 09:19:00,
2013-01-21 02:20:00,33.5,3.9,30.44,North,360,20.0,23.0,28,0.00,,SKC,0.00,VWS V14.01,2013-01-21 09:20:00,
2013-01-21 02:21:00,33.5,3.9,30.44,SW,215,20.0,24.0,28,0.00,,SKC,0.00,VWS V14.01,2013-01-21 09:21:00,
2013-01-21 02:22:00,33.5,3.9,30.44,WSW,250,26.0,31.0,28,0.00,,SKC,0.00,VWS V14.01,2013-01-21 09:22:00,
2013-01-21 02:23:00,33.5,3.9,30.44,West,263,24.0,29.0,28,0.00,,SKC,0.00,VWS V14.01,2013-01-21 09:23:00,
2013-01-21 02:24:00,33.5,3.9,30.44,West,259,26.0,32.0,28,0.00,,SKC,0.00,VWS V14.01,2013-01-21 09:24:00,
2013-01-21 02:25:00,33.5,3.9,30.44,North,360,20.0,27.0,28,0.00,,SKC,0.00,VWS V14.01,2013-01-21 09:25:00,
2013-01-21 02:26:00,33.4,3.8,30.44,West,267,22.0,28.0,28,0.00,,SKC,0.00,VWS V14.01,2013-01-21 09:26:00,
2013-01-21 02:27:00,33.4,3.8,30.44,WSW,244,27.0,28.0,28,0.00,,SKC,0.00,VWS V14.01,2013-01-21 09:27:00,
2013-01-21 02:28:00,33.4,3.8,30.44,West,281,31.0,31.0,28,0.00,,SKC,0.00,VWS V14.01,2013-01-21 09:28:00,
2013-01-21 02:29:00,33.4,3.8,30.44,WSW,240,24.0,32.0,28,0.00,,SKC,0.00,VWS V14.01,2013-01-21 09:29:00,
2013-01-21 02:30:00,33.4,3.8,30.44,North,360,23.0,26.0,28,0.00,,SKC,0.00,VWS V14.01,2013-01-21 09:30:00,
2013-01-21 02:31:00,33.4,3.8,30.44,West,259,21.0,28.0,28,0.00,,SKC,0.00,VWS V14.01,2013-01-21 09:31:00,
2013-01-21 02:32:00,33.4,3.8,30.44,North,360,19.0,32.0,28,0.00,,SKC,0.00,VWS V14.01,2013-01-21 09:32:00,
2013-01-21 02:33:00,33.3,3.7,30.44,North,360,14.0,22.0,28,0.00,,SKC,0.00,VWS V14.01,2013-01-21 09:33:00,
2013-01-21 02:34:00,33.3,3.7,30.44,WSW,252,19.0,20.0,28,0.00,,SKC,0.00,VWS V14.01,2013-01-21 09:34:00,
2013-01-21 02:35:00,33.2,3.6,30.44,West,267,20.0,22.0,28,0.00,,SKC,0.00,VWS V14.01,2013-01-21 09:35:00,
2013-01-21 02:36:00,33.2,3.6,30.44,WSW,247,23.0,29.0,28,0.00,,SKC,0.00,VWS V14.01,2013-01-21 09:36:00,
2013-01-21 02:37:00,33.3,3.7,30.44,WSW,250,21.0,26.0,28,0.00,,SKC,0.00,VWS V14.01,2013-01-21 09:37:00,
2013-01-21 02:38:00,33.3,3.7,30.44,North,360,28.0,28.0,28,0.00,,SKC,0.00,VWS V14.01,2013-01-21 09:38:00,
2013-01-21 02:39:00,33.3,3.7,30.44,North,360,20.0,28.0,28,0.00,,SKC,0.00,VWS V14.01,2013-01-21 09:39:00,
2013-01-21 02:40:00,33.2,3.6,30.44,West,281,17.0,23.0,28,0.00,,SKC,0.00,VWS V14.01,2013-01-21 09:40:00,
2013-01-21 02:41:00,33.1,3.5,30.45,WSW,245,17.0,21.0,28,0.00,,SKC,0.00,VWS V14.01,2013-01-21 09:41:00,
2013-01-21 02:42:00,33.0,3.5,30.44,WSW,257,19.0,25.0,28,0.00,,SKC,0.00,VWS V14.01,2013-01-21 09:42:00,
2013-01-21 02:43:00,33.0,3.5,30.44,WSW,256,23.0,29.0,28,0.00,,SKC,0.00,VWS V14.01,2013-01-21 09:43:00,
2013-01-21 02:44:00,33.0,3.5,30.44,WSW,250,27.0,27.0,28,0.00,,SKC,0.00,VWS V14.01,2013-01-21 09:44:00,
2013-01-21 02:45:00,33.0,4.2,30.44,West,265,23.0,27.0,29,0.00,,SKC,0.00,VWS V14.01,2013-01-21 09:45:00,
2013-01-21 02:46:00,33.0,3.5,30.44,WSW,244,25.0,37.0,28,0.00,,SKC,0.00,VWS V14.01,2013-01-21 09:46:00,
2013-01-21 02:47:00,33.0,4.2,30.44,North,360,11.0,26.0,29,0.00,,SKC,0.00,VWS V14.01,2013-01-21 09:47:00,
2013-01-21 02:48:00,33.0,4.2,30.45,SW,236,25.0,26.0,29,0.00,,SKC,0.00,VWS V14.01,2013-01-21 09:48:00,
2013-01-21 02:49:00,32.9,4.1,30.44,West,259,17.0,32.0,29,0.00,,SKC,0.00,VWS V14.01,2013-01-21 09:49:00,
2013-01-21 02:50:00,32.9,4.1,30.44,WSW,237,15.0,23.0,29,0.00,,SKC,0.00,VWS V14.01,2013-01-21 09:50:00,
2013-01-21 02:51:00,32.9,4.1,30.44,WSW,250,20.0,20.0,29,0.00,,SKC,0.00,VWS V14.01,2013-01-21 09:51:00,
2013-01-21 02:52:00,32.8,4.1,30.44,WSW,247,21.0,23.0,29,0.00,,SKC,0.00,VWS V14.01,2013-01-21 09:52:00,
2013-01-21 02:53:00,32.7,4.0,30.44,WSW,242,19.0,25.0,29,0.00,,SKC,0.00,VWS V14.01,2013-01-21 09:53:00,
2013-01-21 02:54:00,32.7,4.0,30.44,West,272,20.0,22.0,29,0.00,,SKC,0.00,VWS V14.01,2013-01-21 09:54:00,
2013-01-21 02:55:00,32.6,3.9,30.44,WSW,254,18.0,22.0,29,0.00,,SKC,0.00,VWS V14.01,2013-01-21 09:55:00,
2013-01-21 02:56:00,32.6,3.9,30.44,WSW,254,18.0,22.0,29,0.00,,SKC,0.00,VWS V14.01,2013-01-21 09:56:00,
2013-01-21 02:57:00,32.6,3.9,30.44,WSW,257,18.0,24.0,29,0.00,,SKC,0.00,VWS V14.01,2013-01-21 09:57:00,
2013-01-21 02:58:00,32.6,3.9,30.44,West,259,16.0,21.0,29,0.00,,SKC,0.00,VWS V14.01,2013-01-21 09:58:00,
2013-01-21 02:59:00,32.6,3.9,30.44,West,281,26.0,27.0,29,0.00,,SKC,0.00,VWS V14.01,2013-01-21 09:59:00,
2013-01-21 03:00:00,32.6,3.9,30.44,West,261,20.0,26.0,29,0.00,,SKC,0.00,VWS V14.01,2013-01-21 10:00:00,
2013-01-21 03:01:00,32.6,3.9,30.44,WSW,240,14.0,22.0,29,0.00,,SKC,0.00,VWS V14.01,2013-01-21 10:01:00,
2013-01-21 03:02:00,32.7,4.0,30.44,SW,234,15.0,20.0,29,0.00,,SKC,0.00,VWS V14.01,2013-01-21 10:02:00,
2013-01-21 03:03:00,32.6,3.9,30.44,WNW,287,18.0,18.0,29,0.00,,SKC,0.00,VWS V14.01,2013-01-21 10:03:00,
2013-01-21 03:04:00,32.6,3.9,30.44,North,360,20.0,28.0,29,0.00,,SKC,0.00,VWS V14.01,2013-01-21 10:04:00,
2013-01-21 03:05:00,32.6,3.9,30.44,North,360,19.0,23.0,29,0.00,,SKC,0.00,VWS V14.01,2013-01-21 10:05:00,
2013-01-21 03:06:00,32.6,3.9,30.44,North,360,14.0,23.0,29,0.00,,SKC,0.00,VWS V14.01,2013-01-21 10:06:00,
2013-01-21 03:07:00,32.6,3.9,30.44,WSW,241,14.0,22.0,29,0.00,,SKC,0.00,VWS V14.01,2013-01-21 10:07:00,
2013-01-21 03:08:00,32.6,3.9,30.44,North,360,18.0,18.0,29,0.00,,SKC,0.00,VWS V14.01,2013-01-21 10:08:00,
2013-01-21 03:09:00,32.6,4.6,30.44,West,279,14.0,19.0,30,0.00,,SKC,0.00,VWS V14.01,2013-01-21 10:09:00,
2013-01-21 03:10:00,32.6,4.6,30.44,WSW,246,16.0,23.0,30,0.00,,SKC,0.00,VWS V14.01,2013-01-21 10:10:00,
2013-01-21 03:11:00,32.7,4.7,30.44,West,265,20.0,21.0,30,0.00,,SKC,0.00,VWS V14.01,2013-01-21 10:11:00,
2013-01-21 03:12:00,32.7,4.7,30.44,WSW,252,9.0,20.0,30,0.00,,SKC,0.00,VWS V14.01,2013-01-21 10:12:00,
2013-01-21 03:13:00,32.6,4.6,30.43,West,259,15.0,15.0,30,0.00,,SKC,0.00,VWS V14.01,2013-01-21 10:13:00,
2013-01-21 03:14:00,32.6,4.6,30.44,WSW,251,11.0,16.0,30,0.00,,SKC,0.00,VWS V14.01,2013-01-21 10:14:00,
2013-01-21 03:15:00,32.6,4.6,30.44,West,261,6.0,13.0,30,0.00,,SKC,0.00,VWS V14.01,2013-01-21 10:15:00,
2013-01-21 03:16:00,32.6,4.6,30.44,SW,236,20.0,20.0,30,0.00,,SKC,0.00,VWS V14.01,2013-01-21 10:16:00,
2013-01-21 03:17:00,32.6,4.6,30.44,WSW,252,18.0,27.0,30,0.00,,SKC,0.00,VWS V14.01,2013-01-21 10:17:00,
2013-01-21 03:18:00,32.6,4.6,30.44,West,265,16.0,22.0,30,0.00,,SKC,0.00,VWS V14.01,2013-01-21 10:18:00,
2013-01-21 03:19:00,32.7,4.7,30.44,WSW,241,12.0,25.0,30,0.00,,SKC,0.00,VWS V14.01,2013-01-21 10:19:00,
2013-01-21 03:20:00,32.8,4.8,30.44,North,360,13.0,18.0,30,0.00,,SKC,0.00,VWS V14.01,2013-01-21 10:20:00,
2013-01-21 03:21:00,32.8,4.8,30.44,WNW,283,8.0,17.0,30,0.00,,SKC,0.00,VWS V14.01,2013-01-21 10:21:00,
2013-01-21 03:22:00,32.8,4.8,30.44,WSW,257,9.0,11.0,30,0.00,,SKC,0.00,VWS V14.01,2013-01-21 10:22:00,
2013-01-21 03:23:00,32.8,4.8,30.44,West,281,10.0,15.0,30,0.00,,SKC,0.00,VWS V14.01,2013-01-21 10:23:00,
2013-01-21 03:24:00,32.8,4.8,30.43,West,275,11.0,15.0,30,0.00,,SKC,0.00,VWS V14.01,2013-01-21 10:24:00,
2013-01-21 03:25:00,32.8,4.8,30.44,West,270,17.0,25.0,30,0.00,,SKC,0.00,VWS V14.01,2013-01-21 10:25:00,
2013-01-21 03:26:00,32.8,4.8,30.43,WNW,293,20.0,20.0,30,0.00,,SKC,0.00,VWS V14.01,2013-01-21 10:26:00,
2013-01-21 03:27:00,32.8,4.8,30.43,WSW,246,17.0,20.0,30,0.00,,SKC,0.00,VWS V14.01,2013-01-21 10:27:00,
2013-01-21 03:28:00,32.8,4.8,30.43,West,261,6.0,17.0,30,0.00,,SKC,0.00,VWS V14.01,2013-01-21 10:28:00,
2013-01-21 03:29:00,32.8,4.8,30.44,West,270,14.0,14.0,30,0.00,,SKC,0.00,VWS V14.01,2013-01-21 10:29:00,
2013-01-21 03:30:00,32.8,4.8,30.43,WNW,286,13.0,17.0,30,0.00,,SKC,0.00,VWS V14.01,2013-01-21 10:30:00,
2013-01-21 03:31:00,32.8,4.8,30.43,WSW,249,17.0,21.0,30,0.00,,SKC,0.00,VWS V14.01,2013-01-21 10:31:00,
2013-01-21 03:32:00,32.8,4.8,30.43,North,360,12.0,18.0,30,0.00,,SKC,0.00,VWS V14.01,2013-01-21 10:32:00,
2013-01-21 03:33:00,32.8,4.8,30.43,WNW,296,9.0,13.0,30,0.00,,SKC,0.00,VWS V14.01,2013-01-21 10:33:00,
2013-01-21 03:34:00,32.7,4.7,30.43,WNW,294,9.0,9.0,30,0.00,,SKC,0.00,VWS V14.01,2013-01-21 10:34:00,
2013-01-21 03:35:00,32.7,4.7,30.43,WNW,284,13.0,16.0,30,0.00,,SKC,0.00,VWS V14.01,2013-01-21 10:35:00,
2013-01-21 03:36:00,32.7,4.7,30.43,WSW,257,18.0,21.0,30,0.00,,SKC,0.00,VWS V14.01,2013-01-21 10:36:00,
2013-01-21 03:37:00,32.8,4.8,30.43,WSW,240,21.0,21.0,30,0.00,,SKC,0.00,VWS V14.01,2013-01-21 10:37:00,
2013-01-21 03:38:00,32.8,4.8,30.43,West,271,6.0,22.0,30,0.00,,SKC,0.00,VWS V14.01,2013-01-21 10:38:00,
2013-01-21 03:39:00,32.8,4.8,30.43,West,259,18.0,18.0,30,0.00,,SKC,0.00,VWS V14.01,2013-01-21 10:39:00,
2013-01-21 03:40:00,32.8,4.8,30.43,WSW,242,14.0,21.0,30,0.00,,SKC,0.00,VWS V14.01,2013-01-21 10:40:00,
2013-01-21 03:41:00,32.8,4.8,30.42,North,360,9.0,14.0,30,0.00,,SKC,0.00,VWS V14.01,2013-01-21 10:41:00,
2013-01-21 03:42:00,32.9,4.9,30.43,WSW,257,13.0,17.0,30,0.00,,SKC,0.00,VWS V14.01,2013-01-21 10:42:00,
2013-01-21 03:43:00,32.9,4.9,30.43,West,276,12.0,14.0,30,0.00,,SKC,0.00,VWS V14.01,2013-01-21 10:43:00,
2013-01-21 03:44:00,33.0,5.0,30.43,WNW,296,5.0,12.0,30,0.00,,SKC,0.00,VWS V14.01,2013-01-21 10:44:00,
2013-01-21 03:45:00,33.0,5.0,30.43,WNW,294,6.0,12.0,30,0.00,,SKC,0.00,VWS V14.01,2013-01-21 10:45:00,
2013-01-21 03:46:00,33.0,5.0,30.43,WNW,292,9.0,13.0,30,0.00,,SKC,0.00,VWS V14.01,2013-01-21 10:46:00,
2013-01-21 03:47:00,33.0,5.0,30.43,West,265,7.0,12.0,30,0.00,,SKC,0.00,VWS V14.01,2013-01-21 10:47:00,
2013-01-21 03:48:00,33.0,5.0,30.43,North,360,6.0,10.0,30,0.00,,SKC,0.00,VWS V14.01,2013-01-21 10:48:00,
2013-01-21 03:49:00,33.0,5.0,30.43,WSW,252,5.0,13.0,30,0.00,,SKC,0.00,VWS V14.01,2013-01-21 10:49:00,
2013-01-21 03:50:00,32.9,4.9,30.43,North,360,7.0,7.0,30,0.00,,SKC,0.00,VWS V14.01,2013-01-21 10:50:00,
2013-01-21 03:51:00,32.9,4.9,30.43,West,280,10.0,13.0,30,0.00,,SKC,0.00,VWS V14.01,2013-01-21 10:51:00,
2013-01-21 03:52:00,32.9,4.9,30.43,West,263,11.0,19.0,30,0.00,,SKC,0.00,VWS V14.01,2013-01-21 10:52:00,
2013-01-21 03:53:00,33.0,5.0,30.43,North,360,13.0,15.0,30,0.00,,SKC,0.00,VWS V14.01,2013-01-21 10:53:00,
2013-01-21 03:54:00,33.0,5.0,30.42,WSW,253,14.0,22.0,30,0.00,,SKC,0.00,VWS V14.01,2013-01-21 10:54:00,
2013-01-21 03:55:00,33.0,5.0,30.42,North,360,19.0,19.0,30,0.00,,SKC,0.00,VWS V14.01,2013-01-21 10:55:00,
2013-01-21 03:56:00,33.0,5.0,30.42,West,275,16.0,20.0,30,0.00,,SKC,0.00,VWS V14.01,2013-01-21 10:56:00,
2013-01-21 03:57:00,33.0,5.0,30.43,West,263,15.0,16.0,30,0.00,,SKC,0.00,VWS V14.01,2013-01-21 10:57:00,
2013-01-21 03:58:00,33.0,5.0,30.42,WNW,301,3.0,15.0,30,0.00,,SKC,0.00,VWS V14.01,2013-01-21 10:58:00,
2013-01-21 03:59:00,33.0,5.0,30.42,WSW,240,12.0,18.0,30,0.00,,SKC,0.00,VWS V14.01,2013-01-21 10:59:00,
2013-01-21 04:00:00,32.9,4.9,30.42,WSW,240,13.0,15.0,30,0.00,,SKC,0.00,VWS V14.01,2013-01-21 11:00:00,
2013-01-21 04:01:00,33.0,5.0,30.42,WSW,254,19.0,19.0,30,0.00,,SKC,0.00,VWS V14.01,2013-01-21 11:01:00,
2013-01-21 04:02:00,33.1,5.1,30.42,WSW,258,10.0,20.0,30,0.00,,SKC,0.00,VWS V14.01,2013-01-21 11:02:00,
2013-01-21 04:03:00,33.2,5.1,30.43,North,360,18.0,18.0,30,0.00,,SKC,0.00,VWS V14.01,2013-01-21 11:03:00,
2013-01-21 04:04:00,33.3,5.2,30.42,WSW,247,25.0,25.0,30,0.00,,SKC,0.00,VWS V14.01,2013-01-21 11:04:00,
2013-01-21 04:05:00,33.4,4.6,30.42,North,360,13.0,25.0,29,0.00,,SKC,0.00,VWS V14.01,2013-01-21 11:05:00,
2013-01-21 04:06:00,33.6,4.8,30.43,WSW,256,16.0,22.0,29,0.00,,SKC,0.00,VWS V14.01,2013-01-21 11:06:00,
2013-01-21 04:07:00,33.7,4.8,30.42,WSW,249,17.0,23.0,29,0.00,,SKC,0.00,VWS V14.01,2013-01-21 11:07:00,
2013-01-21 04:08:00,33.7,4.8,30.43,WSW,251,11.0,17.0,29,0.00,,SKC,0.00,VWS V14.01,2013-01-21 11:08:00,
2013-01-21 04:09:00,33.7,4.8,30.43,North,360,16.0,22.0,29,0.00,,SKC,0.00,VWS V14.01,2013-01-21 11:09:00,
2013-01-21 04:10:00,33.8,4.9,30.43,North,360,16.0,21.0,29,0.00,,SKC,0.00,VWS V14.01,2013-01-21 11:10:00,
2013-01-21 04:11:00,33.8,4.9,30.42,West,271,26.0,26.0,29,0.00,,SKC,0.00,VWS V14.01,2013-01-21 11:11:00,
2013-01-21 04:12:00,33.8,4.9,30.43,West,263,21.0,27.0,29,0.00,,SKC,0.00,VWS V14.01,2013-01-21 11:12:00,
2013-01-21 04:13:00,33.8,4.2,30.42,WSW,243,16.0,26.0,28,0.00,,SKC,0.00,VWS V14.01,2013-01-21 11:13:00,
2013-01-21 04:14:00,33.9,4.2,30.42,West,277,17.0,21.0,28,0.00,,SKC,0.00,VWS V14.01,2013-01-21 11:14:00,
2013-01-21 04:15:00,33.8,4.2,30.43,WSW,255,16.0,18.0,28,0.00,,SKC,0.00,VWS V14.01,2013-01-21 11:15:00,
2013-01-21 04:16:00,33.8,4.2,30.43,North,360,20.0,21.0,28,0.00,,SKC,0.00,VWS V14.01,2013-01-21 11:16:00,
2013-01-21 04:17:00,33.8,4.2,30.43,North,360,20.0,21.0,28,0.00,,SKC,0.00,VWS V14.01,2013-01-21 11:17:00,
2013-01-21 04:18:00,33.9,4.2,30.42,WSW,241,19.0,24.0,28,0.00,,SKC,0.00,VWS V14.01,2013-01-21 11:18:00,
2013-01-21 04:19:00,33.9,4.2,30.42,SW,236,19.0,23.0,28,0.00,,SKC,0.00,VWS V14.01,2013-01-21 11:19:00,
2013-01-21 04:20:00,34.0,4.3,30.43,North,360,17.0,23.0,28,0.00,,SKC,0.00,VWS V14.01,2013-01-21 11:20:00,
2013-01-21 04:21:00,34.0,4.3,30.43,WSW,252,16.0,20.0,28,0.00,,SKC,0.00,VWS V14.01,2013-01-21 11:21:00,
2013-01-21 04:22:00,34.0,4.3,30.43,WSW,246,14.0,22.0,28,0.00,,SKC,0.00,VWS V14.01,2013-01-21 11:22:00,
2013-01-21 04:23:00,33.9,4.2,30.43,WSW,253,19.0,21.0,28,0.00,,SKC,0.00,VWS V14.01,2013-01-21 11:23:00,
2013-01-21 04:24:00,33.9,4.2,30.43,North,360,22.0,23.0,28,0.00,,SKC,0.00,VWS V14.01,2013-01-21 11:24:00,
2013-01-21 04:25:00,33.9,4.2,30.43,West,266,23.0,26.0,28,0.00,,SKC,0.00,VWS V14.01,2013-01-21 11:25:00,
2013-01-21 04:26:00,34.0,4.3,30.43,WSW,240,15.0,23.0,28,0.00,,SKC,0.00,VWS V14.01,2013-01-21 11:26:00,
2013-01-21 04:27:00,34.0,4.3,30.43,WSW,242,25.0,26.0,28,0.00,,SKC,0.00,VWS V14.01,2013-01-21 11:27:00,
2013-01-21 04:28:00,33.9,4.2,30.43,WSW,254,22.0,27.0,28,0.00,,SKC,0.00,VWS V14.01,2013-01-21 11:28:00,
2013-01-21 04:29:00,34.0,4.3,30.42,West,262,21.0,26.0,28,0.00,,SKC,0.00,VWS V14.01,2013-01-21 11:29:00,
2013-01-21 04:30:00,34.1,4.4,30.42,WSW,238,20.0,24.0,28,0.00,,SKC,0.00,VWS V14.01,2013-01-21 11:30:00,
2013-01-21 04:31:00,34.1,4.4,30.42,WSW,245,20.0,23.0,28,0.00,,SKC,0.00,VWS V14.01,2013-01-21 11:31:00,
2013-01-21 04:32:00,34.0,4.3,30.43,WSW,239,20.0,23.0,28,0.00,,SKC,0.00,VWS V14.01,2013-01-21 11:32:00,
2013-01-21 04:33:00,34.0,4.3,30.43,West,269,14.0,23.0,28,0.00,,SKC,0.00,VWS V14.01,2013-01-21 11:33:00,
2013-01-21 04:34:00,34.0,4.3,30.43,WSW,243,24.0,24.0,28,0.00,,SKC,0.00,VWS V14.01,2013-01-21 11:34:00,
2013-01-21 04:35:00,34.0,4.3,30.43,WSW,254,23.0,24.0,28,0.00,,SKC,0.00,VWS V14.01,2013-01-21 11:35:00,
2013-01-21 04:36:00,34.0,4.3,30.43,North,360,18.0,26.0,28,0.00,,SKC,0.00,VWS V14.01,2013-01-21 11:36:00,
2013-01-21 04:37:00,34.0,4.3,30.43,SW,220,17.0,27.0,28,0.00,,SKC,0.00,VWS V14.01,2013-01-21 11:37:00,
2013-01-21 04:38:00,34.0,4.3,30.43,WSW,246,15.0,24.0,28,0.00,,SKC,0.00,VWS V14.01,2013-01-21 11:38:00,
2013-01-21 04:39:00,34.0,4.3,30.43,West,261,23.0,25.0,28,0.00,,SKC,0.00,VWS V14.01,2013-01-21 11:39:00,
2013-01-21 04:40:00,34.0,4.3,30.42,West,264,22.0,27.0,28,0.00,,SKC,0.00,VWS V14.01,2013-01-21 11:40:00,
2013-01-21 04:41:00,34.0,4.3,30.42,West,265,18.0,26.0,28,0.00,,SKC,0.00,VWS V14.01,2013-01-21 11:41:00,
2013-01-21 04:42:00,34.0,4.3,30.43,North,360,18.0,21.0,28,0.00,,SKC,0.00,VWS V14.01,2013-01-21 11:42:00,
2013-01-21 04:43:00,34.0,4.3,30.43,North,360,19.0,19.0,28,0.00,,SKC,0.00,VWS V14.01,2013-01-21 11:43:00,
2013-01-21 04:44:00,34.0,4.3,30.43,WSW,244,12.0,26.0,28,0.00,,SKC,0.00,VWS V14.01,2013-01-21 11:44:00,
2013-01-21 04:45:00,34.0,4.3,30.43,West,275,12.0,13.0,28,0.00,,SKC,0.00,VWS V14.01,2013-01-21 11:45:00,
2013-01-21 04:46:00,33.9,4.2,30.43,West,275,16.0,16.0,28,0.00,,SKC,0.00,VWS V14.01,2013-01-21 11:46:00,
2013-01-21 04:47:00,33.9,4.2,30.43,WNW,289,11.0,16.0,28,0.00,,SKC,0.00,VWS V14.01,2013-01-21 11:47:00,
2013-01-21 04:48:00,33.8,4.2,30.43,WNW,297,7.0,12.0,28,0.00,,SKC,0.00,VWS V14.01,2013-01-21 11:48:00,
2013-01-21 04:49:00,33.8,4.2,30.43,SW,234,6.0,13.0,28,0.00,,SKC,0.00,VWS V14.01,2013-01-21 11:49:00,
2013-01-21 04:50:00,33.7,4.1,30.43,WSW,241,19.0,19.0,28,0.00,,SKC,0.00,VWS V14.01,2013-01-21 11:50:00,
2013-01-21 04:51:00,33.7,4.1,30.43,WSW,242,11.0,19.0,28,0.00,,SKC,0.00,VWS V14.01,2013-01-21 11:51:00,
2013-01-21 04:52:00,33.6,4.0,30.43,West,271,5.0,13.0,28,0.00,,SKC,0.00,VWS V14.01,2013-01-21 11:52:00,
2013-01-21 04:53:00,33.6,4.8,30.43,West,275,15.0,15.0,29,0.00,,SKC,0.00,VWS V14.01,2013-01-21 11:53:00,
2013-01-21 04:54:00,33.5,4.7,30.43,WSW,251,15.0,23.0,29,0.00,,SKC,0.00,VWS V14.01,2013-01-21 11:54:00,
2013-01-21 04:55:00,33.5,4.7,30.43,WSW,246,11.0,15.0,29,0.00,,SKC,0.00,VWS V14.01,2013-01-21 11:55:00,
2013-01-21 04:56:00,33.6,4.8,30.43,North,360,8.0,13.0,29,0.00,,SKC,0.00,VWS V14.01,2013-01-21 11:56:00,
2013-01-21 04:57:00,33.6,4.8,30.43,West,269,10.0,15.0,29,0.00,,SKC,0.00,VWS V14.01,2013-01-21 11:57:00,
2013-01-21 04:58:00,33.6,4.8,30.43,WSW,244,9.0,10.0,29,0.00,,SKC,0.00,VWS V14.01,2013-01-21 11:58:00,
2013-01-21 04:59:00,33.5,4.7,30.43,North,360,8.0,9.0,29,0.00,,SKC,0.00,VWS V14.01,2013-01-21 11:59:00,
2013-01-21 05:00:00,33.5,4.7,30.43,WNW,287,7.0,9.0,29,0.00,,SKC,0.00,VWS V14.01,2013-01-21 12:00:00,
2013-01-21 05:01:00,33.5,4.7,30.43,WNW,296,5.0,7.0,29,0.00,,SKC,0.00,VWS V14.01,2013-01-21 12:01:00,
2013-01-21 05:02:00,33.5,4.7,30.43,NW,304,6.0,10.0,29,0.00,,SKC,0.00,VWS V14.01,2013-01-21 12:02:00,
2013-01-21 05:03:00,33.4,4.6,30.43,North,360,7.0,8.0,29,0.00,,SKC,0.00,VWS V14.01,2013-01-21 12:03:00,
2013-01-21 05:04:00,33.4,4.6,30.43,WNW,298,3.0,7.0,29,0.00,,SKC,0.00,VWS V14.01,2013-01-21 12:04:00,
2013-01-21 05:05:00,33.3,4.5,30.43,WNW,294,2.0,4.0,29,0.00,,SKC,0.00,VWS V14.01,2013-01-21 12:05:00,
2013-01-21 05:06:00,33.3,4.5,30.43,WNW,286,6.0,8.0,29,0.00,,SKC,0.00,VWS V14.01,2013-01-21 12:06:00,
2013-01-21 05:07:00,33.2,4.4,30.43,West,261,14.0,14.0,29,0.00,,SKC,0.00,VWS V14.01,2013-01-21 12:07:00,
2013-01-21 05:08:00,33.2,4.4,30.44,West,267,11.0,14.0,29,0.00,,SKC,0.00,VWS V14.01,2013-01-21 12:08:00,
2013-01-21 05:09:00,33.1,5.1,30.43,North,360,15.0,17.0,30,0.00,,SKC,0.00,VWS V14.01,2013-01-21 12:09:00,
2013-01-21 05:10:00,33.2,5.1,30.43,WNW,294,13.0,17.0,30,0.00,,SKC,0.00,VWS V14.01,2013-01-21 12:10:00,
2013-01-21 05:11:00,33.2,5.1,30.43,WNW,282,4.0,15.0,30,0.00,,SKC,0.00,VWS V14.01,2013-01-21 12:11:00,
2013-01-21 05:12:00,33.3,4.5,30.43,WNW,286,5.0,11.0,29,0.00,,SKC,0.00,VWS V14.01,2013-01-21 12:12:00,
2013-01-21 05:13:00,33.3,4.5,30.43,West,267,5.0,12.0,29,0.00,,SKC,0.00,VWS V14.01,2013-01-21 12:13:00,
2013-01-21 05:14:00,33.3,4.5,30.43,WSW,257,11.0,20.0,29,0.00,,SKC,0.00,VWS V14.01,2013-01-21 12:14:00,
2013-01-21 05:15:00,33.4,4.6,30.43,West,267,10.0,14.0,29,0.00,,SKC,0.00,VWS V14.01,2013-01-21 12:15:00,
2013-01-21 05:16:00,33.4,4.6,30.44,WSW,249,20.0,28.0,29,0.00,,SKC,0.00,VWS V14.01,2013-01-21 12:16:00,
2013-01-21 05:17:00,33.5,4.7,30.43,WSW,254,22.0,23.0,29,0.00,,SKC,0.00,VWS V14.01,2013-01-21 12:17:00,
2013-01-21 05:18:00,33.7,4.8,30.43,WSW,246,13.0,22.0,29,0.00,,SKC,0.00,VWS V14.01,2013-01-21 12:18:00,
2013-01-21 05:19:00,33.8,4.9,30.43,West,261,19.0,19.0,29,0.00,,SKC,0.00,VWS V14.01,2013-01-21 12:19:00,
2013-01-21 05:20:00,33.8,4.9,30.43,West,261,16.0,19.0,29,0.00,,SKC,0.00,VWS V14.01,2013-01-21 12:20:00,
2013-01-21 05:21:00,33.9,5.0,30.43,WSW,255,24.0,27.0,29,0.00,,SKC,0.00,VWS V14.01,2013-01-21 12:21:00,
2013-01-21 05:22:00,33.9,5.0,30.43,SW,230,24.0,28.0,29,0.00,,SKC,0.00,VWS V14.01,2013-01-21 12:22:00,
2013-01-21 05:23:00,34.1,5.2,30.43,WSW,248,24.0,28.0,29,0.00,,SKC,0.00,VWS V14.01,2013-01-21 12:23:00,
2013-01-21 05:24:00,34.3,4.6,30.43,WSW,250,18.0,25.0,28,0.00,,SKC,0.00,VWS V14.01,2013-01-21 12:24:00,
2013-01-21 05:25:00,34.4,4.7,30.43,WSW,248,19.0,25.0,28,0.00,,SKC,0.00,VWS V14.01,2013-01-21 12:25:00,
2013-01-21 05:26:00,34.4,4.7,30.43,West,261,17.0,22.0,28,0.00,,SKC,0.00,VWS V14.01,2013-01-21 12:26:00,
2013-01-21 05:27:00,34.4,4.7,30.44,WSW,240,16.0,23.0,28,0.00,,SKC,0.00,VWS V14.01,2013-01-21 12:27:00,
2013-01-21 05:28:00,34.4,4.7,30.44,WSW,252,23.0,29.0,28,0.00,,SKC,0.00,VWS V14.01,2013-01-21 12:28:00,
2013-01-21 05:29:00,34.3,4.6,30.43,SW,225,27.0,35.0,28,0.00,,SKC,0.00,VWS V14.01,2013-01-21 12:29:00,
2013-01-21 05:30:00,34.3,4.6,30.43,SW,236,20.0,27.0,28,0.00,,SKC,0.00,VWS V14.01,2013-01-21 12:30:00,
2013-01-21 05:31:00,34.3,4.6,30.43,WSW,240,25.0,29.0,28,0.00,,SKC,0.00,VWS V14.01,2013-01-21 12:31:00,
2013-01-21 05:32:00,34.3,4.6,30.44,North,360,22.0,26.0,28,0.00,,SKC,0.00,VWS V14.01,2013-01-21 12:32:00,
2013-01-21 05:33:00,34.2,4.5,30.43,SW,228,24.0,27.0,28,0.00,,SKC,0.00,VWS V14.01,2013-01-21 12:33:00,
2013-01-21 05:34:00,34.1,4.4,30.43,North,360,19.0,26.0,28,0.00,,SKC,0.00,VWS V14.01,2013-01-21 12:34:00,
2013-01-21 05:35:00,34.1,4.4,30.43,SSW,193,24.0,24.0,28,0.00,,SKC,0.00,VWS V14.01,2013-01-21 12:35:00,
2013-01-21 05:36:00,33.9,4.2,30.43,North,360,17.0,24.0,28,0.00,,SKC,0.00,VWS V14.01,2013-01-21 12:36:00,
2013-01-21 05:37:00,33.8,4.2,30.44,WSW,258,15.0,28.0,28,0.00,,SKC,0.00,VWS V14.01,2013-01-21 12:37:00,
2013-01-21 05:38:00,33.8,4.2,30.43,WSW,250,18.0,20.0,28,0.00,,SKC,0.00,VWS V14.01,2013-01-21 12:38:00,
2013-01-21 05:39:00,33.7,4.1,30.44,North,360,15.0,20.0,28,0.00,,SKC,0.00,VWS V14.01,2013-01-21 12:39:00,
2013-01-21 05:40:00,33.6,4.0,30.44,North,360,15.0,19.0,28,0.00,,SKC,0.00,VWS V14.01,2013-01-21 12:40:00,
2013-01-21 05:41:00,33.5,3.9,30.44,North,360,13.0,19.0,28,0.00,,SKC,0.00,VWS V14.01,2013-01-21 12:41:00,
2013-01-21 05:42:00,33.5,3.9,30.44,WSW,244,14.0,17.0,28,0.00,,SKC,0.00,VWS V14.01,2013-01-21 12:42:00,
2013-01-21 05:43:00,33.4,3.8,30.44,North,360,17.0,19.0,28,0.00,,SKC,0.00,VWS V14.01,2013-01-21 12:43:00,
2013-01-21 05:44:00,33.3,3.7,30.44,North,360,21.0,27.0,28,0.00,,SKC,0.00,VWS V14.01,2013-01-21 12:44:00,
2013-01-21 05:45:00,33.3,3.7,30.44,WSW,249,25.0,36.0,28,0.00,,SKC,0.00,VWS V14.01,2013-01-21 12:45:00,
2013-01-21 05:46:00,33.4,3.8,30.44,West,261,14.0,25.0,28,0.00,,SKC,0.00,VWS V14.01,2013-01-21 12:46:00,
2013-01-21 05:47:00,33.4,3.8,30.44,SW,229,21.0,24.0,28,0.00,,SKC,0.00,VWS V14.01,2013-01-21 12:47:00,
2013-01-21 05:48:00,33.4,3.8,30.45,North,360,16.0,21.0,28,0.00,,SKC,0.00,VWS V14.01,2013-01-21 12:48:00,
2013-01-21 05:49:00,33.3,3.7,30.44,North,360,29.0,33.0,28,0.00,,SKC,0.00,VWS V14.01,2013-01-21 12:49:00,
2013-01-21 05:50:00,33.3,3.7,30.44,North,360,22.0,34.0,28,0.00,,SKC,0.00,VWS V14.01,2013-01-21 12:50:00,
2013-01-21 05:51:00,33.3,3.7,30.43,WSW,242,30.0,33.0,28,0.00,,SKC,0.00,VWS V14.01,2013-01-21 12:51:00,
2013-01-21 05:52:00,33.4,3.8,30.43,WSW,246,22.0,30.0,28,0.00,,SKC,0.00,VWS V14.01,2013-01-21 12:52:00,
2013-01-21 05:53:00,33.4,3.8,30.44,WSW,247,19.0,26.0,28,0.00,,SKC,0.00,VWS V14.01,2013-01-21 12:53:00,
2013-01-21 05:54:00,33.4,3.8,30.43,WNW,289,21.0,21.0,28,0.00,,SKC,0.00,VWS V14.01,2013-01-21 12:54:00,
2013-01-21 05:55:00,33.4,3.8,30.44,West,260,15.0,26.0,28,0.00,,SKC,0.00,VWS V14.01,2013-01-21 12:55:00,
2013-01-21 05:56:00,33.4,3.8,30.43,WSW,238,15.0,19.0,28,0.00,,SKC,0.00,VWS V14.01,2013-01-21 12:56:00,
2013-01-21 05:57:00,33.4,3.8,30.43,North,360,11.0,18.0,28,0.00,,SKC,0.00,VWS V14.01,2013-01-21 12:57:00,
2013-01-21 05:58:00,33.3,3.7,30.43,WSW,242,21.0,21.0,28,0.00,,SKC,0.00,VWS V14.01,2013-01-21 12:58:00,
2013-01-21 05:59:00,33.3,3.7,30.43,West,273,16.0,25.0,28,0.00,,SKC,0.00,VWS V14.01,2013-01-21 12:59:00,
2013-01-21 06:00:00,33.2,3.6,30.43,West,275,22.0,22.0,28,0.00,,SKC,0.00,VWS V14.01,2013-01-21 13:00:00,
2013-01-21 06:01:00,33.1,3.5,30.43,WSW,244,16.0,25.0,28,0.00,,SKC,0.00,VWS V14.01,2013-01-21 13:01:00,
2013-01-21 06:02:00,33.1,3.5,30.43,West,261,13.0,22.0,28,0.00,,SKC,0.00,VWS V14.01,2013-01-21 13:02:00,
2013-01-21 06:03:00,33.0,4.2,30.43,SW,214,24.0,25.0,29,0.00,,SKC,0.00,VWS V14.01,2013-01-21 13:03:00,
2013-01-21 06:04:00,33.1,4.3,30.43,North,360,15.0,30.0,29,0.00,,SKC,0.00,VWS V14.01,2013-01-21 13:04:00,
2013-01-21 06:05:00,33.2,4.4,30.43,WNW,284,18.0,22.0,29,0.00,,SKC,0.00,VWS V14.01,2013-01-21 13:05:00,
2013-01-21 06:06:00,33.2,4.4,30.43,SW,215,15.0,26.0,29,0.00,,SKC,0.00,VWS V14.01,2013-01-21 13:06:00,
2013-01-21 06:07:00,33.2,4.4,30.43,WSW,242,13.0,18.0,29,0.00,,SKC,0.00,VWS V14.01,2013-01-21 13:07:00,
2013-01-21 06:08:00,33.2,4.4,30.43,SW,221,16.0,20.0,29,0.00,,SKC,0.00,VWS V14.01,2013-01-21 13:08:00,
2013-01-21 06:09:00,33.3,4.5,30.43,WSW,240,10.0,17.0,29,0.00,,SKC,0.00,VWS V14.01,2013-01-21 13:09:00,
2013-01-21 06:10:00,33.3,4.5,30.44,West,266,9.0,11.0,29,0.00,,SKC,0.00,VWS V14.01,2013-01-21 13:10:00,
2013-01-21 06:11:00,33.2,4.4,30.44,SSW,207,10.0,11.0,29,0.00,,SKC,0.00,VWS V14.01,2013-01-21 13:11:00,
2013-01-21 06:12:00,33.2,4.4,30.43,North,360,7.0,10.0,29,0.00,,SKC,0.00,VWS V14.01,2013-01-21 13:12:00,
2013-01-21 06:13:00,33.2,4.4,30.43,WSW,252,6.0,9.0,29,0.00,,SKC,0.00,VWS V14.01,2013-01-21 13:13:00,
2013-01-21 06:14:00,33.1,4.3,30.44,West,265,9.0,16.0,29,0.00,,SKC,0.00,VWS V14.01,2013-01-21 13:14:00,
2013-01-21 06:15:00,33.1,4.3,30.44,West,271,11.0,12.0,29,0.00,,SKC,0.00,VWS V14.01,2013-01-21 13:15:00,
2013-01-21 06:16:00,33.1,4.3,30.43,WSW,241,14.0,19.0,29,0.00,,SKC,0.00,VWS V14.01,2013-01-21 13:16:00,
2013-01-21 06:17:00,33.1,4.3,30.44,WSW,254,10.0,14.0,29,0.00,,SKC,0.00,VWS V14.01,2013-01-21 13:17:00,
2013-01-21 06:18:00,33.1,4.3,30.43,West,261,7.0,11.0,29,0.00,,SKC,0.00,VWS V14.01,2013-01-21 13:18:00,
2013-01-21 06:19:00,33.0,4.2,30.44,West,272,10.0,10.0,29,0.00,,SKC,0.00,VWS V14.01,2013-01-21 13:19:00,
2013-01-21 06:20:00,32.9,4.1,30.44,West,272,9.0,15.0,29,0.00,,SKC,0.00,VWS V14.01,2013-01-21 13:20:00,
2013-01-21 06:21:00,32.9,4.1,30.44,WSW,252,15.0,20.0,29,0.00,,SKC,0.00,VWS V14.01,2013-01-21 13:21:00,
2013-01-21 06:22:00,32.8,4.1,30.44,WSW,257,12.0,17.0,29,0.00,,SKC,0.00,VWS V14.01,2013-01-21 13:22:00,
2013-01-21 06:23:00,32.8,4.1,30.44,WSW,249,10.0,12.0,29,0.00,,SKC,0.00,VWS V14.01,2013-01-21 13:23:00,
2013-01-21 06:24:00,32.8,4.1,30.44,WSW,237,16.0,16.0,29,0.00,,SKC,0.00,VWS V14.01,2013-01-21 13:24:00,
2013-01-21 06:25:00,32.7,4.0,30.44,West,260,20.0,24.0,29,0.00,,SKC,0.00,VWS V14.01,2013-01-21 13:25:00,
2013-01-21 06:26:00,32.7,4.0,30.44,WSW,252,21.0,22.0,29,0.00,,SKC,0.00,VWS V14.01,2013-01-21 13:26:00,
2013-01-21 06:27:00,32.7,4.7,30.43,WSW,242,22.0,22.0,30,0.00,,SKC,0.00,VWS V14.01,2013-01-21 13:27:00,
2013-01-21 06:28:00,32.7,4.7,30.43,North,360,13.0,23.0,30,0.00,,SKC,0.00,VWS V14.01,2013-01-21 13:28:00,
2013-01-21 06:29:00,32.8,4.8,30.43,WSW,254,16.0,22.0,30,0.00,,SKC,0.00,VWS V14.01,2013-01-21 13:29:00,
2013-01-21 06:30:00,32.8,4.1,30.43,SW,234,21.0,25.0,29,0.00,,SKC,0.00,VWS V14.01,2013-01-21 13:30:00,
2013-01-21 06:31:00,32.8,4.1,30.43,North,360,21.0,22.0,29,0.00,,SKC,0.00,VWS V14.01,2013-01-21 13:31:00,
2013-01-21 06:32:00,32.8,4.1,30.44,West,273,20.0,21.0,29,0.00,,SKC,0.00,VWS V14.01,2013-01-21 13:32:00,
2013-01-21 06:33:00,32.8,4.1,30.44,WSW,254,16.0,27.0,29,0.00,,SKC,0.00,VWS V14.01,2013-01-21 13:33:00,
2013-01-21 06:34:00,32.8,4.1,30.44,North,360,13.0,19.0,29,0.00,,SKC,0.00,VWS V14.01,2013-01-21 13:34:00,
2013-01-21 06:35:00,32.8,4.1,30.43,WSW,238,27.0,27.0,29,0.00,,SKC,0.00,VWS V14.01,2013-01-21 13:35:00,
2013-01-21 06:36:00,32.8,4.8,30.44,SW,219,27.0,28.0,30,0.00,,SKC,0.00,VWS V14.01,2013-01-21 13:36:00,
2013-01-21 06:37:00,32.8,4.8,30.44,SW,233,17.0,27.0,30,0.00,,SKC,0.00,VWS V14.01,2013-01-21 13:37:00,
2013-01-21 06:38:00,32.8,4.8,30.44,WNW,288,14.0,22.0,30,0.00,,SKC,0.00,VWS V14.01,2013-01-21 13:38:00,
2013-01-21 06:39:00,32.8,4.8,30.44,WSW,246,14.0,19.0,30,0.00,,SKC,0.00,VWS V14.01,2013-01-21 13:39:00,
2013-01-21 06:40:00,32.8,4.8,30.44,West,263,17.0,21.0,30,0.00,,SKC,0.00,VWS V14.01,2013-01-21 13:40:00,
2013-01-21 06:41:00,32.8,4.8,30.44,WSW,246,18.0,23.0,30,0.00,,SKC,0.00,VWS V14.01,2013-01-21 13:41:00,
2013-01-21 06:42:00,32.8,4.8,30.44,West,261,12.0,20.0,30,0.00,,SKC,0.00,VWS V14.01,2013-01-21 13:42:00,
2013-01-21 06:43:00,32.8,4.8,30.44,North,360,9.0,16.0,30,0.00,,SKC,0.00,VWS V14.01,2013-01-21 13:43:00,
2013-01-21 06:44:00,32.8,4.8,30.44,WNW,284,9.0,16.0,30,0.00,,SKC,0.00,VWS V14.01,2013-01-21 13:44:00,
2013-01-21 06:45:00,32.8,4.8,30.44,WSW,257,9.0,11.0,30,0.00,,SKC,0.00,VWS V14.01,2013-01-21 13:45:00,
2013-01-21 06:46:00,32.7,4.7,30.44,WSW,239,18.0,18.0,30,0.00,,SKC,0.00,VWS V14.01,2013-01-21 13:46:00,
2013-01-21 06:47:00,32.6,4.6,30.45,West,262,12.0,18.0,30,0.00,,SKC,0.00,VWS V14.01,2013-01-21 13:47:00,
2013-01-21 06:48:00,32.6,4.6,30.44,West,274,6.0,13.0,30,0.00,,SKC,0.00,VWS V14.01,2013-01-21 13:48:00,
2013-01-21 06:49:00,32.5,4.5,30.44,WNW,283,18.0,18.0,30,0.00,,SKC,0.00,VWS V14.01,2013-01-21 13:49:00,
2013-01-21 06:50:00,32.5,4.5,30.44,North,360,14.0,20.0,30,0.00,,SKC,0.00,VWS V14.01,2013-01-21 13:50:00,
2013-01-21 06:51:00,32.5,4.5,30.44,West,261,14.0,15.0,30,0.00,,SKC,0.00,VWS V14.01,2013-01-21 13:51:00,
2013-01-21 06:52:00,32.5,4.5,30.45,WSW,252,10.0,16.0,30,0.00,,SKC,0.00,VWS V14.01,2013-01-21 13:52:00,
2013-01-21 06:53:00,32.5,4.5,30.44,WSW,257,11.0,14.0,30,0.00,,SKC,0.00,VWS V14.01,2013-01-21 13:53:00,
2013-01-21 06:54:00,32.5,4.5,30.44,SW,236,16.0,16.0,30,0.00,,SKC,0.00,VWS V14.01,2013-01-21 13:54:00,
2013-01-21 06:55:00,32.5,4.5,30.44,SW,226,13.0,16.0,30,0.00,,SKC,0.00,VWS V14.01,2013-01-21 13:55:00,
2013-01-21 06:56:00,32.5,4.5,30.44,WSW,257,8.0,15.0,30,0.00,,SKC,0.00,VWS V14.01,2013-01-21 13:56:00,
2013-01-21 06:57:00,32.6,4.6,30.44,SW,236,4.0,11.0,30,0.00,,SKC,0.00,VWS V14.01,2013-01-21 13:57:00,
2013-01-21 06:58:00,32.6,4.6,30.44,WSW,240,6.0,7.0,30,0.00,,SKC,0.00,VWS V14.01,2013-01-21 13:58:00,
2013-01-21 06:59:00,32.6,4.6,30.44,WSW,243,5.0,6.0,30,0.00,,SKC,0.00,VWS V14.01,2013-01-21 13:59:00,
2013-01-21 07:00:00,32.5,4.5,30.44,West,263,6.0,11.0,30,0.00,,SKC,0.00,VWS V14.01,2013-01-21 14:00:00,
2013-01-21 07:01:00,32.5,4.5,30.44,North,360,0.0,6.0,30,0.00,,SKC,0.00,VWS V14.01,2013-01-21 14:01:00,
2013-01-21 07:02:00,32.5,4.5,30.44,WNW,284,13.0,13.0,30,0.00,,SKC,0.00,VWS V14.01,2013-01-21 14:02:00,
2013-01-21 07:03:00,32.5,4.5,30.44,North,360,11.0,13.0,30,0.00,,SKC,0.00,VWS V14.01,2013-01-21 14:03:00,
2013-01-21 07:04:00,32.5,5.2,30.44,West,277,6.0,11.0,31,0.00,,SKC,0.00,VWS V14.01,2013-01-21 14:04:00,
2013-01-21 07:05:00,32.5,5.2,30.44,SW,221,13.0,23.0,31,0.00,,SKC,0.00,VWS V14.01,2013-01-21 14:05:00,
2013-01-21 07:06:00,32.6,4.6,30.44,SW,221,7.0,13.0,30,0.00,,SKC,0.00,VWS V14.01,2013-01-21 14:06:00,
2013-01-21 07:07:00,32.7,4.7,30.44,West,261,14.0,14.0,30,0.00,,SKC,0.00,VWS V14.01,2013-01-21 14:07:00,
2013-01-21 07:08:00,32.7,4.7,30.44,West,265,15.0,16.0,30,0.00,,SKC,0.00,VWS V14.01,2013-01-21 14:08:00,
2013-01-21 07:09:00,32.7,4.7,30.44,North,360,18.0,19.0,30,0.00,,SKC,0.00,VWS V14.01,2013-01-21 14:09:00,
2013-01-21 07:10:00,32.7,4.7,30.44,North,360,13.0,21.0,30,0.00,,SKC,0.00,VWS V14.01,2013-01-21 14:10:00,
2013-01-21 07:11:00,32.7,4.7,30.44,West,266,15.0,17.0,30,0.00,,SKC,0.00,VWS V14.01,2013-01-21 14:11:00,
2013-01-21 07:12:00,32.7,4.7,30.44,North,360,10.0,21.0,30,0.00,,SKC,0.00,VWS V14.01,2013-01-21 14:12:00,
2013-01-21 07:13:00,32.7,4.7,30.44,West,264,13.0,25.0,30,0.00,,SKC,0.00,VWS V14.01,2013-01-21 14:13:00,
2013-01-21 07:14:00,32.8,4.8,30.44,West,266,10.0,16.0,30,0.00,,SKC,0.00,VWS V14.01,2013-01-21 14:14:00,
2013-01-21 07:15:00,32.8,4.8,30.44,North,360,17.0,19.0,30,0.00,,SKC,0.00,VWS V14.01,2013-01-21 14:15:00,
2013-01-21 07:16:00,32.8,4.8,30.44,North,360,16.0,20.0,30,0.00,,SKC,0.00,VWS V14.01,2013-01-21 14:16:00,
2013-01-21 07:17:00,32.8,4.8,30.44,North,360,23.0,23.0,30,0.00,,SKC,0.00,VWS V14.01,2013-01-21 14:17:00,
2013-01-21 07:18:00,32.8,4.8,30.44,WSW,245,16.0,23.0,30,0.00,,SKC,0.00,VWS V14.01,2013-01-21 14:18:00,
2013-01-21 07:19:00,32.7,4.7,30.44,West,276,10.0,17.0,30,0.00,,SKC,0.00,VWS V14.01,2013-01-21 14:19:00,
2013-01-21 07:20:00,32.7,4.7,30.44,North,360,12.0,20.0,30,0.00,,SKC,0.00,VWS V14.01,2013-01-21 14:20:00,
2013-01-21 07:21:00,32.7,4.7,30.44,WSW,249,11.0,12.0,30,0.00,,SKC,0.00,VWS V14.01,2013-01-21 14:21:00,
2013-01-21 07:22:00,32.8,4.8,30.44,North,360,11.0,16.0,30,0.00,,SKC,0.00,VWS V14.01,2013-01-21 14:22:00,
2013-01-21 07:23:00,32.7,4.7,30.44,North,360,16.0,17.0,30,0.00,,SKC,0.00,VWS V14.01,2013-01-21 14:23:00,
2013-01-21 07:24:00,32.7,4.7,30.44,North,360,16.0,23.0,30,0.00,,SKC,0.00,VWS V14.01,2013-01-21 14:24:00,
2013-01-21 07:25:00,32.7,5.4,30.44,WSW,257,18.0,27.0,31,0.00,,SKC,0.00,VWS V14.01,2013-01-21 14:25:00,
2013-01-21 07:26:00,32.8,4.8,30.44,WSW,252,21.0,21.0,30,0.00,,SKC,0.00,VWS V14.01,2013-01-21 14:26:00,
2013-01-21 07:27:00,32.8,4.8,30.44,West,272,13.0,21.0,30,0.00,,SKC,0.00,VWS V14.01,2013-01-21 14:27:00,
2013-01-21 07:28:00,32.8,4.8,30.44,North,360,19.0,22.0,30,0.00,,SKC,0.00,VWS V14.01,2013-01-21 14:28:00,
2013-01-21 07:29:00,32.8,4.8,30.44,North,360,14.0,23.0,30,0.00,,SKC,0.00,VWS V14.01,2013-01-21 14:29:00,
2013-01-21 07:30:00,32.8,4.8,30.44,WSW,248,18.0,19.0,30,0.00,,SKC,0.00,VWS V14.01,2013-01-21 14:30:00,
2013-01-21 07:31:00,32.8,4.8,30.44,WSW,246,32.0,32.0,30,0.00,,SKC,0.00,VWS V14.01,2013-01-21 14:31:00,
2013-01-21 07:32:00,32.9,5.6,30.44,West,261,17.0,32.0,31,0.00,,SKC,0.00,VWS V14.01,2013-01-21 14:32:00,
2013-01-21 07:33:00,33.0,5.0,30.44,West,265,22.0,23.0,30,0.00,,SKC,0.00,VWS V14.01,2013-01-21 14:33:00,
2013-01-21 07:34:00,33.1,5.1,30.43,West,277,18.0,22.0,30,0.00,,SKC,0.00,VWS V14.01,2013-01-21 14:34:00,
2013-01-21 07:35:00,33.2,5.1,30.44,West,281,23.0,31.0,30,0.00,,SKC,0.00,VWS V14.01,2013-01-21 14:35:00,
2013-01-21 07:36:00,33.3,5.2,30.43,WSW,248,22.0,31.0,30,0.00,,SKC,0.00,VWS V14.01,2013-01-21 14:36:00,
2013-01-21 07:37:00,33.4,5.3,30.43,WSW,238,23.0,27.0,30,0.00,,SKC,0.00,VWS V14.01,2013-01-21 14:37:00,
2013-01-21 07:38:00,33.5,5.4,30.43,SW,232,18.0,24.0,30,0.00,,SKC,0.00,VWS V14.01,2013-01-21 14:38:00,
2013-01-21 07:39:00,33.6,5.5,30.43,North,360,22.0,24.0,30,0.00,,SKC,0.00,VWS V14.01,2013-01-21 14:39:00,
2013-01-21 07:40:00,33.7,5.6,30.43,West,259,19.0,23.0,30,0.00,,SKC,0.00,VWS V14.01,2013-01-21 14:40:00,
2013-01-21 07:41:00,33.8,5.7,30.43,West,264,24.0,24.0,30,0.00,,SKC,0.00,VWS V14.01,2013-01-21 14:41:00,
2013-01-21 07:42:00,33.9,5.8,30.43,West,265,14.0,26.0,30,0.00,,SKC,0.00,VWS V14.01,2013-01-21 14:42:00,
2013-01-21 07:43:00,34.0,5.8,30.43,West,270,17.0,25.0,30,0.00,,SKC,0.00,VWS V14.01,2013-01-21 14:43:00,
2013-01-21 07:44:00,34.0,5.8,30.43,WSW,258,13.0,24.0,30,0.00,,SKC,0.00,VWS V14.01,2013-01-21 14:44:00,
2013-01-21 07:45:00,34.1,5.9,30.43,West,261,11.0,17.0,30,0.00,,SKC,0.00,VWS V14.01,2013-01-21 14:45:00,
2013-01-21 07:46:00,34.2,6.0,30.43,WSW,244,19.0,22.0,30,0.00,,SKC,0.00,VWS V14.01,2013-01-21 14:46:00,
2013-01-21 07:47:00,34.2,6.0,30.44,North,360,18.0,22.0,30,0.00,,SKC,0.00,VWS V14.01,2013-01-21 14:47:00,
2013-01-21 07:48:00,34.4,6.2,30.44,WNW,287,24.0,25.0,30,0.00,,SKC,0.00,VWS V14.01,2013-01-21 14:48:00,
2013-01-21 07:49:00,34.4,6.2,30.43,WSW,251,20.0,27.0,30,0.00,,SKC,0.00,VWS V14.01,2013-01-21 14:49:00,
2013-01-21 07:50:00,34.4,6.2,30.43,West,281,13.0,21.0,30,0.00,,SKC,0.00,VWS V14.01,2013-01-21 14:50:00,
2013-01-21 07:51:00,34.4,6.2,30.43,WSW,253,21.0,21.0,30,0.00,,SKC,0.00,VWS V14.01,2013-01-21 14:51:00,
2013-01-21 07:52:00,34.4,6.2,30.43,WSW,251,18.0,25.0,30,0.00,,SKC,0.00,VWS V14.01,2013-01-21 14:52:00,
2013-01-21 07:53:00,34.5,6.3,30.43,WNW,286,17.0,25.0,30,0.00,,SKC,0.00,VWS V14.01,2013-01-21 14:53:00,
2013-01-21 07:54:00,34.6,6.4,30.43,West,265,15.0,28.0,30,0.00,,SKC,0.00,VWS V14.01,2013-01-21 14:54:00,
2013-01-21 07:55:00,34.7,6.4,30.43,West,260,27.0,28.0,30,0.00,,SKC,0.00,VWS V14.01,2013-01-21 14:55:00,
2013-01-21 07:56:00,34.8,6.5,30.44,WNW,293,12.0,27.0,30,0.00,,SKC,0.00,VWS V14.01,2013-01-21 14:56:00,
2013-01-21 07:57:00,34.8,6.5,30.43,WSW,240,23.0,23.0,30,0.00,,SKC,0.00,VWS V14.01,2013-01-21 14:57:00,
2013-01-21 07:58:00,34.9,6.6,30.43,WNW,285,19.0,28.0,30,0.00,,SKC,0.00,VWS V14.01,2013-01-21 14:58:00,
2013-01-21 07:59:00,35.0,6.7,30.44,WSW,256,20.0,32.0,30,0.00,,SKC,0.00,VWS V14.01,2013-01-21 14:59:00,
2013-01-21 08:00:00,35.1,6.8,30.43,WSW,246,16.0,21.0,30,0.00,,SKC,0.00,VWS V14.01,2013-01-21 15:00:00,
2013-01-21 08:01:00,35.2,6.9,30.43,WSW,254,20.0,28.0,30,0.00,,SKC,0.00,VWS V14.01,2013-01-21 15:01:00,
2013-01-21 08:02:00,35.2,6.1,30.43,WSW,249,17.0,23.0,29,0.00,,SKC,0.00,VWS V14.01,2013-01-21 15:02:00,
2013-01-21 08:03:00,35.3,6.2,30.43,West,266,16.0,25.0,29,0.00,,SKC,0.00,VWS V14.01,2013-01-21 15:03:00,
2013-01-21 08:04:00,35.3,6.2,30.43,West,259,19.0,19.0,29,0.00,,SKC,0.00,VWS V14.01,2013-01-21 15:04:00,
2013-01-21 08:05:00,35.3,6.2,30.43,West,259,19.0,20.0,29,0.00,,SKC,0.00,VWS V14.01,2013-01-21 15:05:00,
2013-01-21 08:06:00,35.3,6.2,30.43,West,260,18.0,19.0,29,0.00,,SKC,0.00,VWS V14.01,2013-01-21 15:06:00,
2013-01-21 08:07:00,35.3,6.2,30.43,SW,217,13.0,22.0,29,0.00,,SKC,0.00,VWS V14.01,2013-01-21 15:07:00,
2013-01-21 08:08:00,35.3,6.2,30.43,North,360,15.0,24.0,29,0.00,,SKC,0.00,VWS V14.01,2013-01-21 15:08:00,
2013-01-21 08:09:00,35.3,6.2,30.43,WSW,257,15.0,23.0,29,0.00,,SKC,0.00,VWS V14.01,2013-01-21 15:09:00,
2013-01-21 08:10:00,35.3,6.2,30.43,West,271,15.0,29.0,29,0.00,,SKC,0.00,VWS V14.01,2013-01-21 15:10:00,
2013-01-21 08:11:00,35.3,6.2,30.43,WSW,257,23.0,28.0,29,0.00,,SKC,0.00,VWS V14.01,2013-01-21 15:11:00,
2013-01-21 08:12:00,35.3,6.2,30.43,WSW,246,20.0,26.0,29,0.00,,SKC,0.00,VWS V14.01,2013-01-21 15:12:00,
2013-01-21 08:13:00,35.3,6.2,30.42,WNW,282,18.0,22.0,29,0.00,,SKC,0.00,VWS V14.01,2013-01-21 15:13:00,
2013-01-21 08:14:00,35.4,6.3,30.43,WNW,284,24.0,29.0,29,0.00,,SKC,0.00,VWS V14.01,2013-01-21 15:14:00,
2013-01-21 08:15:00,35.5,6.4,30.43,West,275,13.0,25.0,29,0.00,,SKC,0.00,VWS V14.01,2013-01-21 15:15:00,
2013-01-21 08:16:00,35.5,6.4,30.43,WNW,301,18.0,20.0,29,0.00,,SKC,0.00,VWS V14.01,2013-01-21 15:16:00,
2013-01-21 08:17:00,35.6,6.5,30.43,WNW,284,18.0,18.0,29,0.00,,SKC,0.00,VWS V14.01,2013-01-21 15:17:00,
2013-01-21 08:18:00,35.7,6.6,30.43,WSW,254,20.0,20.0,29,0.00,,SKC,0.00,VWS V14.01,2013-01-21 15:18:00,
2013-01-21 08:19:00,35.7,6.6,30.42,West,277,15.0,20.0,29,0.00,,SKC,0.00,VWS V14.01,2013-01-21 15:19:00,
2013-01-21 08:20:00,35.8,6.7,30.43,WNW,289,15.0,20.0,29,0.00,,SKC,0.00,VWS V14.01,2013-01-21 15:20:00,
2013-01-21 08:21:00,35.9,6.8,30.42,North,360,23.0,28.0,29,0.00,,SKC,0.00,VWS V14.01,2013-01-21 15:21:00,
2013-01-21 08:22:00,35.9,6.8,30.42,WSW,253,18.0,23.0,29,0.00,,SKC,0.00,VWS V14.01,2013-01-21 15:22:00,
2013-01-21 08:23:00,35.9,6.8,30.41,WSW,258,26.0,26.0,29,0.00,,SKC,0.00,VWS V14.01,2013-01-21 15:23:00,
2013-01-21 08:24:00,35.8,6.7,30.41,West,278,22.0,26.0,29,0.00,,SKC,0.00,VWS V14.01,2013-01-21 15:24:00,
2013-01-21 08:25:00,35.9,6.8,30.41,West,265,31.0,31.0,29,0.00,,SKC,0.00,VWS V14.01,2013-01-21 15:25:00,
2013-01-21 08:26:00,35.9,6.0,30.41,WSW,242,21.0,31.0,28,0.00,,SKC,0.00,VWS V14.01,2013-01-21 15:26:00,
2013-01-21 08:27:00,35.9,6.0,30.41,West,277,24.0,28.0,28,0.00,,SKC,0.00,VWS V14.01,2013-01-21 15:27:00,
2013-01-21 08:28:00,36.0,6.1,30.42,West,261,25.0,27.0,28,0.00,,SKC,0.00,VWS V14.01,2013-01-21 15:28:00,
2013-01-21 08:29:00,36.1,6.2,30.42,WSW,252,18.0,36.0,28,0.00,,SKC,0.00,VWS V14.01,2013-01-21 15:29:00,
2013-01-21 08:30:00,36.1,6.2,30.41,WSW,250,20.0,40.0,28,0.00,,SKC,0.00,VWS V14.01,2013-01-21 15:30:00,
2013-01-21 08:31:00,36.0,6.1,30.41,SW,235,22.0,34.0,28,0.00,,SKC,0.00,VWS V14.01,2013-01-21 15:31:00,
2013-01-21 08:32:00,36.1,6.2,30.42,WSW,257,26.0,33.0,28,0.00,,SKC,0.00,VWS V14.01,2013-01-21 15:32:00,
2013-01-21 08:33:00,36.1,6.2,30.42,North,360,18.0,32.0,28,0.00,,SKC,0.00,VWS V14.01,2013-01-21 15:33:00,
2013-01-21 08:34:00,36.2,6.2,30.42,North,360,24.0,33.0,28,0.00,,SKC,0.00,VWS V14.01,2013-01-21 15:34:00,
2013-01-21 08:35:00,36.2,6.2,30.42,WSW,248,35.0,39.0,28,0.00,,SKC,0.00,VWS V14.01,2013-01-21 15:35:00,
2013-01-21 08:36:00,36.3,6.3,30.42,West,267,16.0,35.0,28,0.00,,SKC,0.00,VWS V14.01,2013-01-21 15:36:00,
2013-01-21 08:37:00,36.3,6.3,30.42,West,263,23.0,29.0,28,0.00,,SKC,0.00,VWS V14.01,2013-01-21 15:37:00,
2013-01-21 08:38:00,36.4,6.4,30.42,WNW,285,25.0,29.0,28,0.00,,SKC,0.00,VWS V14.01,2013-01-21 15:38:00,
2013-01-21 08:39:00,36.4,6.4,30.41,West,277,21.0,25.0,28,0.00,,SKC,0.00,VWS V14.01,2013-01-21 15:39:00,
2013-01-21 08:40:00,36.4,6.4,30.42,WSW,250,30.0,40.0,28,0.00,,SKC,0.00,VWS V14.01,2013-01-21 15:40:00,
2013-01-21 08:41:00,36.4,6.4,30.42,WSW,252,27.0,39.0,28,0.00,,SKC,0.00,VWS V14.01,2013-01-21 15:41:00,
2013-01-21 08:42:00,36.5,6.5,30.42,West,266,20.0,32.0,28,0.00,,SKC,0.00,VWS V14.01,2013-01-21 15:42:00,
2013-01-21 08:43:00,36.5,6.5,30.42,WSW,241,27.0,35.0,28,0.00,,SKC,0.00,VWS V14.01,2013-01-21 15:43:00,
2013-01-21 08:44:00,36.6,6.6,30.41,WSW,248,26.0,35.0,28,0.00,,SKC,0.00,VWS V14.01,2013-01-21 15:44:00,
2013-01-21 08:45:00,36.6,6.6,30.41,West,275,33.0,42.0,28,0.00,,SKC,0.00,VWS V14.01,2013-01-21 15:45:00,
2013-01-21 08:46:00,36.6,6.6,30.42,NW,306,33.0,44.0,28,0.00,,SKC,0.00,VWS V14.01,2013-01-21 15:46:00,
2013-01-21 08:47:00,36.6,6.6,30.42,West,263,38.0,42.0,28,0.00,,SKC,0.00,VWS V14.01,2013-01-21 15:47:00,
2013-01-21 08:48:00,36.6,6.6,30.41,West,275,26.0,38.0,28,0.00,,SKC,0.00,VWS V14.01,2013-01-21 15:48:00,
2013-01-21 08:49:00,36.7,6.7,30.42,West,266,35.0,40.0,28,0.00,,SKC,0.00,VWS V14.01,2013-01-21 15:49:00,
2013-01-21 08:50:00,36.7,6.7,30.42,WSW,258,25.0,39.0,28,0.00,,SKC,0.00,VWS V14.01,2013-01-21 15:50:00,
2013-01-21 08:51:00,36.7,6.7,30.42,WSW,238,23.0,38.0,28,0.00,,SKC,0.00,VWS V14.01,2013-01-21 15:51:00,
2013-01-21 08:52:00,36.7,6.7,30.42,North,360,38.0,40.0,28,0.00,,SKC,0.00,VWS V14.01,2013-01-21 15:52:00,
2013-01-21 08:53:00,36.7,6.7,30.41,West,270,31.0,39.0,28,0.00,,SKC,0.00,VWS V14.01,2013-01-21 15:53:00,
2013-01-21 08:54:00,36.7,6.7,30.41,West,267,42.0,42.0,28,0.00,,SKC,0.00,VWS V14.01,2013-01-21 15:54:00,
2013-01-21 08:55:00,36.8,6.8,30.43,West,279,25.0,42.0,28,0.00,,SKC,0.00,VWS V14.01,2013-01-21 15:55:00,
2013-01-21 08:56:00,36.9,6.8,30.42,WSW,257,21.0,34.0,28,0.00,,SKC,0.00,VWS V14.01,2013-01-21 15:56:00,
2013-01-21 08:57:00,36.9,6.8,30.42,West,261,18.0,34.0,28,0.00,,SKC,0.00,VWS V14.01,2013-01-21 15:57:00,
2013-01-21 08:58:00,37.0,6.1,30.43,West,275,34.0,40.0,27,0.00,,SKC,0.00,VWS V14.01,2013-01-21 15:58:00,
2013-01-21 08:59:00,37.0,6.1,30.42,WNW,284,31.0,37.0,27,0.00,,SKC,0.00,VWS V14.01,2013-01-21 15:59:00,
2013-01-21 09:00:00,37.0,6.1,30.43,WNW,290,20.0,31.0,27,0.00,,SKC,0.00,VWS V14.01,2013-01-21 16:00:00,
2013-01-21 09:01:00,37.0,6.1,30.42,WNW,293,19.0,28.0,27,0.00,,SKC,0.00,VWS V14.01,2013-01-21 16:01:00,
2013-01-21 09:02:00,37.0,6.1,30.42,WSW,251,24.0,30.0,27,0.00,,SKC,0.00,VWS V14.01,2013-01-21 16:02:00,
2013-01-21 09:03:00,37.1,7.0,30.42,WNW,287,43.0,43.0,28,0.00,,SKC,0.00,VWS V14.01,2013-01-21 16:03:00,
2013-01-21 09:04:00,37.2,6.3,30.42,WSW,257,33.0,43.0,27,0.00,,SKC,0.00,VWS V14.01,2013-01-21 16:04:00,
2013-01-21 09:05:00,37.2,6.3,30.42,West,267,19.0,35.0,27,0.00,,SKC,0.00,VWS V14.01,2013-01-21 16:05:00,
2013-01-21 09:06:00,37.3,6.4,30.42,WSW,254,33.0,35.0,27,0.00,,SKC,0.00,VWS V14.01,2013-01-21 16:06:00,
2013-01-21 09:07:00,37.4,6.5,30.43,NW,309,25.0,39.0,27,0.00,,SKC,0.00,VWS V14.01,2013-01-21 16:07:00,
2013-01-21 09:08:00,37.5,6.6,30.42,West,279,31.0,32.0,27,0.00,,SKC,0.00,VWS V14.01,2013-01-21 16:08:00,
2013-01-21 09:09:00,37.5,6.6,30.42,West,277,24.0,31.0,27,0.00,,SKC,0.00,VWS V14.01,2013-01-21 16:09:00,
2013-01-21 09:10:00,37.5,6.6,30.42,WSW,250,25.0,29.0,27,0.00,,SKC,0.00,VWS V14.01,2013-01-21 16:10:00,
2013-01-21 09:11:00,37.6,6.7,30.42,West,272,31.0,41.0,27,0.00,,SKC,0.00,VWS V14.01,2013-01-21 16:11:00,
2013-01-21 09:12:00,37.6,6.7,30.43,WNW,296,29.0,31.0,27,0.00,,SKC,0.00,VWS V14.01,2013-01-21 16:12:00,
2013-01-21 09:13:00,37.7,6.7,30.43,West,273,26.0,34.0,27,0.00,,SKC,0.00,VWS V14.01,2013-01-21 16:13:00,
2013-01-21 09:14:00,37.8,6.8,30.42,West,265,19.0,27.0,27,0.00,,SKC,0.00,VWS V14.01,2013-01-21 16:14:00,
2013-01-21 09:15:00,37.9,6.9,30.42,West,269,19.0,28.0,27,0.00,,SKC,0.00,VWS V14.01,2013-01-21 16:15:00,
2013-01-21 09:16:00,38.0,7.0,30.43,WSW,237,30.0,33.0,27,0.00,,SKC,0.00,VWS V14.01,2013-01-21 16:16:00,
2013-01-21 09:17:00,38.1,7.1,30.42,WSW,250,20.0,30.0,27,0.00,,SKC,0.00,VWS V14.01,2013-01-21 16:17:00,
2013-01-21 09:18:00,38.2,7.2,30.42,West,277,23.0,30.0,27,0.00,,SKC,0.00,VWS V14.01,2013-01-21 16:18:00,
2013-01-21 09:19:00,38.3,7.3,30.43,West,267,38.0,38.0,27,0.00,,SKC,0.00,VWS V14.01,2013-01-21 16:19:00,
2013-01-21 09:20:00,38.2,7.2,30.41,West,259,17.0,40.0,27,0.00,,SKC,0.00,VWS V14.01,2013-01-21 16:20:00,
2013-01-21 09:21:00,38.2,7.2,30.42,West,261,33.0,41.0,27,0.00,,SKC,0.00,VWS V14.01,2013-01-21 16:21:00,
2013-01-21 09:22:00,38.2,7.2,30.42,North,360,25.0,33.0,27,0.00,,SKC,0.00,VWS V14.01,2013-01-21 16:22:00,
2013-01-21 09:23:00,38.2,7.2,30.42,West,263,28.0,38.0,27,0.00,,SKC,0.00,VWS V14.01,2013-01-21 16:23:00,
2013-01-21 09:24:00,38.2,7.2,30.42,West,263,31.0,37.0,27,0.00,,SKC,0.00,VWS V14.01,2013-01-21 16:24:00,
2013-01-21 09:25:00,38.2,7.2,30.43,WSW,258,21.0,33.0,27,0.00,,SKC,0.00,VWS V14.01,2013-01-21 16:25:00,
2013-01-21 09:26:00,38.2,7.2,30.43,North,360,17.0,23.0,27,0.00,,SKC,0.00,VWS V14.01,2013-01-21 16:26:00,
2013-01-21 09:27:00,38.3,7.3,30.43,West,280,30.0,33.0,27,0.00,,SKC,0.00,VWS V14.01,2013-01-21 16:27:00,
2013-01-21 09:28:00,38.4,7.3,30.43,West,270,21.0,35.0,27,0.00,,SKC,0.00,VWS V14.01,2013-01-21 16:28:00,
2013-01-21 09:29:00,38.6,7.5,30.42,West,276,17.0,31.0,27,0.00,,SKC,0.00,VWS V14.01,2013-01-21 16:29:00,
2013-01-21 09:30:00,38.7,7.6,30.43,West,279,37.0,40.0,27,0.00,,SKC,0.00,VWS V14.01,2013-01-21 16:30:00,
2013-01-21 09:31:00,38.8,6.9,30.43,West,270,31.0,37.0,26,0.00,,SKC,0.00,VWS V14.01,2013-01-21 16:31:00,
2013-01-21 09:32:00,38.8,7.7,30.43,WNW,284,26.0,36.0,27,0.00,,SKC,0.00,VWS V14.01,2013-01-21 16:32:00,
2013-01-21 09:33:00,38.8,7.7,30.43,WNW,298,25.0,37.0,27,0.00,,SKC,0.00,VWS V14.01,2013-01-21 16:33:00,
2013-01-21 09:34:00,38.9,7.8,30.43,West,264,21.0,45.0,27,0.00,,SKC,0.00,VWS V14.01,2013-01-21 16:34:00,
2013-01-21 09:35:00,38.9,6.9,30.43,North,360,31.0,33.0,26,0.00,,SKC,0.00,VWS V14.01,2013-01-21 16:35:00,
2013-01-21 09:36:00,38.9,6.9,30.43,North,360,36.0,40.0,26,0.00,,SKC,0.00,VWS V14.01,2013-01-21 16:36:00,
2013-01-21 09:37:00,38.9,6.9,30.43,WSW,257,38.0,42.0,26,0.00,,SKC,0.00,VWS V14.01,2013-01-21 16:37:00,
2013-01-21 09:38:00,39.0,7.9,30.43,North,360,41.0,41.0,27,0.00,,SKC,0.00,VWS V14.01,2013-01-21 16:38:00,
2013-01-21 09:39:00,39.1,7.9,30.43,West,267,18.0,41.0,27,0.00,,SKC,0.00,VWS V14.01,2013-01-21 16:39:00,
2013-01-21 09:40:00,39.1,7.9,30.43,WNW,284,33.0,34.0,27,0.00,,SKC,0.00,VWS V14.01,2013-01-21 16:40:00,
2013-01-21 09:41:00,39.1,7.9,30.43,North,360,19.0,33.0,27,0.00,,SKC,0.00,VWS V14.01,2013-01-21 16:41:00,
2013-01-21 09:42:00,39.1,7.9,30.44,North,360,33.0,42.0,27,0.00,,SKC,0.00,VWS V14.01,2013-01-21 16:42:00,
2013-01-21 09:43:00,39.2,8.0,30.43,WNW,290,28.0,40.0,27,0.00,,SKC,0.00,VWS V14.01,2013-01-21 16:43:00,
2013-01-21 09:44:00,39.1,7.9,30.43,WNW,282,24.0,33.0,27,0.00,,SKC,0.00,VWS V14.01,2013-01-21 16:44:00,
2013-01-21 09:45:00,39.1,7.9,30.43,West,278,39.0,42.0,27,0.00,,SKC,0.00,VWS V14.01,2013-01-21 16:45:00,
2013-01-21 09:46:00,39.1,7.9,30.43,West,265,22.0,39.0,27,0.00,,SKC,0.00,VWS V14.01,2013-01-21 16:46:00,
2013-01-21 09:47:00,39.2,8.0,30.44,West,272,23.0,30.0,27,0.00,,SKC,0.00,VWS V14.01,2013-01-21 16:47:00,
2013-01-21 09:48:00,39.3,8.1,30.44,SW,214,23.0,38.0,27,0.00,,SKC,0.00,VWS V14.01,2013-01-21 16:48:00,
2013-01-21 09:49:00,39.3,8.1,30.44,North,360,23.0,29.0,27,0.00,,SKC,0.00,VWS V14.01,2013-01-21 16:49:00,
2013-01-21 09:50:00,39.3,8.1,30.44,West,263,26.0,41.0,27,0.00,,SKC,0.00,VWS V14.01,2013-01-21 16:50:00,
2013-01-21 09:51:00,39.3,8.1,30.44,SW,236,30.0,33.0,27,0.00,,SKC,0.00,VWS V14.01,2013-01-21 16:51:00,
2013-01-21 09:52:00,39.3,8.1,30.44,West,281,26.0,30.0,27,0.00,,SKC,0.00,VWS V14.01,2013-01-21 16:52:00,
2013-01-21 09:53:00,39.2,8.0,30.44,North,360,28.0,40.0,27,0.00,,SKC,0.00,VWS V14.01,2013-01-21 16:53:00,
2013-01-21 09:54:00,39.3,8.1,30.44,WNW,294,29.0,33.0,27,0.00,,SKC,0.00,VWS V14.01,2013-01-21 16:54:00,
2013-01-21 09:55:00,39.3,8.1,30.45,WNW,284,33.0,34.0,27,0.00,,SKC,0.00,VWS V14.01,2013-01-21 16:55:00,
2013-01-21 09:56:00,39.3,8.1,30.44,WSW,240,15.0,34.0,27,0.00,,SKC,0.00,VWS V14.01,2013-01-21 16:56:00,
2013-01-21 09:57:00,39.3,8.1,30.45,WSW,254,36.0,36.0,27,0.00,,SKC,0.00,VWS V14.01,2013-01-21 16:57:00,
2013-01-21 09:58:00,39.3,8.1,30.45,West,260,23.0,36.0,27,0.00,,SKC,0.00,VWS V14.01,2013-01-21 16:58:00,
2013-01-21 09:59:00,39.3,8.1,30.45,WSW,246,24.0,30.0,27,0.00,,SKC,0.00,VWS V14.01,2013-01-21 16:59:00,
2013-01-21 10:00:00,39.4,8.2,30.44,North,360,18.0,27.0,27,0.00,,SKC,0.00,VWS V14.01,2013-01-21 17:00:00,
2013-01-21 10:01:00,39.5,8.3,30.45,West,265,40.0,40.0,27,0.00,,SKC,0.00,VWS V14.01,2013-01-21 17:01:00,
2013-01-21 10:02:00,39.5,8.3,30.45,West,271,28.0,40.0,27,0.00,,SKC,0.00,VWS V14.01,2013-01-21 17:02:00,
2013-01-21 10:03:00,39.6,8.4,30.45,WSW,248,15.0,33.0,27,0.00,,SKC,0.00,VWS V14.01,2013-01-21 17:03:00,
2013-01-21 10:04:00,39.6,8.4,30.45,West,259,33.0,47.0,27,0.00,,SKC,0.00,VWS V14.01,2013-01-21 17:04:00,
2013-01-21 10:05:00,39.5,8.3,30.44,North,360,32.0,45.0,27,0.00,,SKC,0.00,VWS V14.01,2013-01-21 17:05:00,
2013-01-21 10:06:00,39.4,8.2,30.45,West,277,39.0,45.0,27,0.00,,SKC,0.00,VWS V14.01,2013-01-21 17:06:00,
2013-01-21 10:07:00,39.4,8.2,30.45,West,277,39.0,45.0,27,0.00,,SKC,0.00,VWS V14.01,2013-01-21 17:07:00,
2013-01-21 10:08:00,39.4,8.2,30.44,West,260,24.0,39.0,27,0.00,,SKC,0.00,VWS V14.01,2013-01-21 17:08:00,
2013-01-21 10:09:00,39.3,8.1,30.44,West,262,27.0,35.0,27,0.00,,SKC,0.00,VWS V14.01,2013-01-21 17:09:00,
2013-01-21 10:10:00,39.4,8.2,30.45,WSW,252,22.0,31.0,27,0.00,,SKC,0.00,VWS V14.01,2013-01-21 17:10:00,
2013-01-21 10:11:00,39.4,8.2,30.45,West,265,15.0,30.0,27,0.00,,SKC,0.00,VWS V14.01,2013-01-21 17:11:00,
2013-01-21 10:12:00,39.5,8.3,30.45,West,271,17.0,21.0,27,0.00,,SKC,0.00,VWS V14.01,2013-01-21 17:12:00,
2013-01-21 10:13:00,39.7,8.5,30.46,West,265,17.0,22.0,27,0.00,,SKC,0.00,VWS V14.01,2013-01-21 17:13:00,
2013-01-21 10:14:00,39.9,8.6,30.46,SW,230,12.0,17.0,27,0.00,,SKC,0.00,VWS V14.01,2013-01-21 17:14:00,
2013-01-21 10:15:00,40.2,8.9,30.47,SW,231,27.0,27.0,27,0.00,,SKC,0.00,VWS V14.01,2013-01-21 17:15:00,
2013-01-21 10:16:00,40.3,9.0,30.46,NW,323,15.0,29.0,27,0.00,,SKC,0.00,VWS V14.01,2013-01-21 17:16:00,
2013-01-21 10:17:00,40.6,9.2,30.47,SW,232,15.0,21.0,27,0.00,,SKC,0.00,VWS V14.01,2013-01-21 17:17:00,
2013-01-21 10:18:00,40.8,9.4,30.46,WSW,238,19.0,19.0,27,0.00,,SKC,0.00,VWS V14.01,2013-01-21 17:18:00,
2013-01-21 10:19:00,41.0,8.8,30.47,West,264,23.0,29.0,26,0.00,,SKC,0.00,VWS V14.01,2013-01-21 17:19:00,
2013-01-21 10:20:00,41.0,8.8,30.46,West,275,22.0,24.0,26,0.00,,SKC,0.00,VWS V14.01,2013-01-21 17:20:00,
2013-01-21 10:21:00,40.9,8.7,30.47,North,360,9.0,22.0,26,0.00,,SKC,0.00,VWS V14.01,2013-01-21 17:21:00,
2013-01-21 10:22:00,40.8,9.4,30.46,West,276,13.0,15.0,27,0.00,,SKC,0.00,VWS V14.01,2013-01-21 17:22:00,
2013-01-21 10:23:00,40.9,8.7,30.47,North,360,27.0,33.0,26,0.00,,SKC,0.00,VWS V14.01,2013-01-21 17:23:00,
2013-01-21 10:24:00,40.9,8.7,30.46,West,259,24.0,32.0,26,0.00,,SKC,0.00,VWS V14.01,2013-01-21 17:24:00,
2013-01-21 10:25:00,40.9,8.7,30.47,WSW,246,23.0,26.0,26,0.00,,SKC,0.00,VWS V14.01,2013-01-21 17:25:00,
2013-01-21 10:26:00,40.9,8.7,30.47,WNW,288,17.0,24.0,26,0.00,,SKC,0.00,VWS V14.01,2013-01-21 17:26:00,
2013-01-21 10:27:00,40.9,8.7,30.47,WSW,254,20.0,20.0,26,0.00,,SKC,0.00,VWS V14.01,2013-01-21 17:27:00,
2013-01-21 10:28:00,41.1,8.8,30.47,West,279,18.0,21.0,26,0.00,,SKC,0.00,VWS V14.01,2013-01-21 17:28:00,
2013-01-21 10:29:00,41.1,8.8,30.47,SW,225,21.0,27.0,26,0.00,,SKC,0.00,VWS V14.01,2013-01-21 17:29:00,
2013-01-21 10:30:00,41.2,8.9,30.46,West,275,23.0,28.0,26,0.00,,SKC,0.00,VWS V14.01,2013-01-21 17:30:00,
2013-01-21 10:31:00,41.1,8.8,30.47,West,263,24.0,24.0,26,0.00,,SKC,0.00,VWS V14.01,2013-01-21 17:31:00,
2013-01-21 10:32:00,41.1,8.8,30.47,WNW,286,24.0,29.0,26,0.00,,SKC,0.00,VWS V14.01,2013-01-21 17:32:00,
2013-01-21 10:33:00,41.0,8.8,30.46,WSW,258,29.0,35.0,26,0.00,,SKC,0.00,VWS V14.01,2013-01-21 17:33:00,
2013-01-21 10:34:00,40.7,8.5,30.46,West,279,24.0,36.0,26,0.00,,SKC,0.00,VWS V14.01,2013-01-21 17:34:00,
2013-01-21 10:35:00,40.6,8.4,30.46,North,360,29.0,32.0,26,0.00,,SKC,0.00,VWS V14.01,2013-01-21 17:35:00,
2013-01-21 10:36:00,40.5,8.3,30.46,WSW,258,23.0,29.0,26,0.00,,SKC,0.00,VWS V14.01,2013-01-21 17:36:00,
2013-01-21 10:37:00,40.4,8.2,30.46,WNW,285,13.0,23.0,26,0.00,,SKC,0.00,VWS V14.01,2013-01-21 17:37:00,
2013-01-21 10:38:00,40.3,8.1,30.46,North,360,22.0,35.0,26,0.00,,SKC,0.00,VWS V14.01,2013-01-21 17:38:00,
2013-01-21 10:39:00,40.3,9.0,30.46,WSW,248,21.0,27.0,27,0.00,,SKC,0.00,VWS V14.01,2013-01-21 17:39:00,
2013-01-21 10:40:00,40.2,8.1,30.46,WSW,246,18.0,26.0,26,0.00,,SKC,0.00,VWS V14.01,2013-01-21 17:40:00,
2013-01-21 10:41:00,40.2,8.9,30.46,West,270,26.0,26.0,27,0.00,,SKC,0.00,VWS V14.01,2013-01-21 17:41:00,
2013-01-21 10:42:00,40.1,8.0,30.46,WSW,245,26.0,35.0,26,0.00,,SKC,0.00,VWS V14.01,2013-01-21 17:42:00,
2013-01-21 10:43:00,40.0,8.7,30.45,NW,311,23.0,31.0,27,0.00,,SKC,0.00,VWS V14.01,2013-01-21 17:43:00,
2013-01-21 10:44:00,39.9,8.6,30.45,West,275,32.0,37.0,27,0.00,,SKC,0.00,VWS V14.01,2013-01-21 17:44:00,
2013-01-21 10:45:00,39.8,8.6,30.46,WNW,291,24.0,41.0,27,0.00,,SKC,0.00,VWS V14.01,2013-01-21 17:45:00,
2013-01-21 10:46:00,39.8,8.6,30.46,North,360,24.0,26.0,27,0.00,,SKC,0.00,VWS V14.01,2013-01-21 17:46:00,
2013-01-21 10:47:00,39.7,8.5,30.46,North,360,25.0,33.0,27,0.00,,SKC,0.00,VWS V14.01,2013-01-21 17:47:00,
2013-01-21 10:48:00,39.7,8.5,30.45,WNW,282,25.0,33.0,27,0.00,,SKC,0.00,VWS V14.01,2013-01-21 17:48:00,
2013-01-21 10:49:00,39.8,8.6,30.46,West,260,22.0,33.0,27,0.00,,SKC,0.00,VWS V14.01,2013-01-21 17:49:00,
2013-01-21 10:50:00,39.9,8.6,30.45,WSW,257,33.0,33.0,27,0.00,,SKC,0.00,VWS V14.01,2013-01-21 17:50:00,
2013-01-21 10:51:00,39.9,8.6,30.45,WSW,252,26.0,36.0,27,0.00,,SKC,0.00,VWS V14.01,2013-01-21 17:51:00,
2013-01-21 10:52:00,39.9,8.6,30.45,West,276,20.0,34.0,27,0.00,,SKC,0.00,VWS V14.01,2013-01-21 17:52:00,
2013-01-21 10:53:00,40.0,8.7,30.45,SW,232,30.0,31.0,27,0.00,,SKC,0.00,VWS V14.01,2013-01-21 17:53:00,
2013-01-21 10:54:00,40.0,8.7,30.44,WSW,251,18.0,30.0,27,0.00,,SKC,0.00,VWS V14.01,2013-01-21 17:54:00,
2013-01-21 10:55:00,40.1,8.8,30.45,West,259,18.0,30.0,27,0.00,,SKC,0.00,VWS V14.01,2013-01-21 17:55:00,
2013-01-21 10:56:00,40.2,8.9,30.44,WSW,254,32.0,32.0,27,0.00,,SKC,0.00,VWS V14.01,2013-01-21 17:56:00,
2013-01-21 10:57:00,40.3,9.0,30.44,WNW,282,24.0,32.0,27,0.00,,SKC,0.00,VWS V14.01,2013-01-21 17:57:00,
2013-01-21 10:58:00,40.5,9.2,30.45,WSW,257,34.0,34.0,27,0.00,,SKC,0.00,VWS V14.01,2013-01-21 17:58:00,
2013-01-21 10:59:00,40.7,9.3,30.44,West,263,36.0,39.0,27,0.00,,SKC,0.00,VWS V14.01,2013-01-21 17:59:00,
2013-01-21 11:00:00,40.9,9.5,30.44,West,265,32.0,40.0,27,0.00,,SKC,0.00,VWS V14.01,2013-01-21 18:00:00,
2013-01-21 11:01:00,41.0,8.8,30.43,WNW,288,30.0,34.0,26,0.00,,SKC,0.00,VWS V14.01,2013-01-21 18:01:00,
2013-01-21 11:02:00,41.1,9.7,30.43,North,360,35.0,38.0,27,0.00,,SKC,0.00,VWS V14.01,2013-01-21 18:02:00,
2013-01-21 11:03:00,41.1,8.8,30.43,WSW,251,32.0,41.0,26,0.00,,SKC,0.00,VWS V14.01,2013-01-21 18:03:00,
2013-01-21 11:04:00,41.2,8.9,30.44,West,280,21.0,33.0,26,0.00,,SKC,0.00,VWS V14.01,2013-01-21 18:04:00,
2013-01-21 11:05:00,41.3,9.0,30.44,WSW,257,33.0,33.0,26,0.00,,SKC,0.00,VWS V14.01,2013-01-21 18:05:00,
2013-01-21 11:06:00,41.5,9.2,30.44,West,262,28.0,42.0,26,0.00,,SKC,0.00,VWS V14.01,2013-01-21 18:06:00,
2013-01-21 11:07:00,41.4,9.1,30.43,North,360,22.0,33.0,26,0.00,,SKC,0.00,VWS V14.01,2013-01-21 18:07:00,
2013-01-21 11:08:00,41.4,9.1,30.43,West,261,34.0,34.0,26,0.00,,SKC,0.00,VWS V14.01,2013-01-21 18:08:00,
2013-01-21 11:09:00,41.4,9.1,30.43,WSW,255,26.0,34.0,26,0.00,,SKC,0.00,VWS V14.01,2013-01-21 18:09:00,
2013-01-21 11:10:00,41.5,9.2,30.43,WSW,255,22.0,37.0,26,0.00,,SKC,0.00,VWS V14.01,2013-01-21 18:10:00,
2013-01-21 11:11:00,41.5,9.2,30.42,West,269,31.0,43.0,26,0.00,,SKC,0.00,VWS V14.01,2013-01-21 18:11:00,
2013-01-21 11:12:00,41.5,9.2,30.42,WNW,284,22.0,35.0,26,0.00,,SKC,0.00,VWS V14.01,2013-01-21 18:12:00,
2013-01-21 11:13:00,41.5,9.2,30.42,WSW,256,25.0,39.0,26,0.00,,SKC,0.00,VWS V14.01,2013-01-21 18:13:00,
2013-01-21 11:14:00,41.5,9.2,30.42,WNW,286,28.0,41.0,26,0.00,,SKC,0.00,VWS V14.01,2013-01-21 18:14:00,
2013-01-21 11:15:00,41.5,9.2,30.42,West,272,30.0,35.0,26,0.00,,SKC,0.00,VWS V14.01,2013-01-21 18:15:00,
2013-01-21 11:16:00,41.6,9.3,30.42,WNW,284,21.0,30.0,26,0.00,,SKC,0.00,VWS V14.01,2013-01-21 18:16:00,
2013-01-21 11:17:00,41.6,9.3,30.43,WNW,287,24.0,36.0,26,0.00,,SKC,0.00,VWS V14.01,2013-01-21 18:17:00,
2013-01-21 11:18:00,41.6,9.3,30.43,WNW,287,24.0,36.0,26,0.00,,SKC,0.00,VWS V14.01,2013-01-21 18:18:00,
2013-01-21 11:19:00,41.9,9.5,30.42,WNW,292,37.0,40.0,26,0.00,,SKC,0.00,VWS V14.01,2013-01-21 18:19:00,
2013-01-21 11:20:00,42.0,9.6,30.43,WNW,292,27.0,37.0,26,0.00,,SKC,0.00,VWS V14.01,2013-01-21 18:20:00,
2013-01-21 11:21:00,41.9,9.5,30.42,West,279,38.0,40.0,26,0.00,,SKC,0.00,VWS V14.01,2013-01-21 18:21:00,
2013-01-21 11:22:00,42.0,9.6,30.42,WNW,284,29.0,39.0,26,0.00,,SKC,0.00,VWS V14.01,2013-01-21 18:22:00,
2013-01-21 11:23:00,42.1,9.7,30.43,WNW,294,29.0,36.0,26,0.00,,SKC,0.00,VWS V14.01,2013-01-21 18:23:00,
2013-01-21 11:24:00,42.2,9.8,30.43,WNW,300,29.0,31.0,26,0.00,,SKC,0.00,VWS V14.01,2013-01-21 18:24:00,
2013-01-21 11:25:00,42.3,9.9,30.43,WNW,285,27.0,49.0,26,0.00,,SKC,0.00,VWS V14.01,2013-01-21 18:25:00,
2013-01-21 11:26:00,42.4,10.0,30.43,WNW,292,32.0,40.0,26,0.00,,SKC,0.00,VWS V14.01,2013-01-21 18:26:00,
2013-01-21 11:27:00,42.6,10.1,30.43,West,276,33.0,37.0,26,0.00,,SKC,0.00,VWS V14.01,2013-01-21 18:27:00,
2013-01-21 11:28:00,42.7,10.2,30.44,WNW,300,30.0,39.0,26,0.00,,SKC,0.00,VWS V14.01,2013-01-21 18:28:00,
2013-01-21 11:29:00,42.7,9.3,30.43,West,281,29.0,37.0,25,0.00,,SKC,0.00,VWS V14.01,2013-01-21 18:29:00,
2013-01-21 11:30:00,42.7,9.3,30.43,West,275,35.0,39.0,25,0.00,,SKC,0.00,VWS V14.01,2013-01-21 18:30:00,
2013-01-21 11:31:00,42.5,9.2,30.43,WSW,257,19.0,35.0,25,0.00,,SKC,0.00,VWS V14.01,2013-01-21 18:31:00,
2013-01-21 11:32:00,42.5,10.1,30.42,WNW,300,23.0,33.0,26,0.00,,SKC,0.00,VWS V14.01,2013-01-21 18:32:00,
2013-01-21 11:33:00,42.6,10.1,30.43,West,278,36.0,38.0,26,0.00,,SKC,0.00,VWS V14.01,2013-01-21 18:33:00,
2013-01-21 11:34:00,42.7,10.2,30.43,West,269,29.0,36.0,26,0.00,,SKC,0.00,VWS V14.01,2013-01-21 18:34:00,
2013-01-21 11:35:00,42.9,10.4,30.42,North,360,30.0,33.0,26,0.00,,SKC,0.00,VWS V14.01,2013-01-21 18:35:00,
2013-01-21 11:36:00,42.9,10.4,30.42,WNW,294,32.0,39.0,26,0.00,,SKC,0.00,VWS V14.01,2013-01-21 18:36:00,
2013-01-21 11:37:00,43.1,10.6,30.42,WSW,255,39.0,40.0,26,0.00,,SKC,0.00,VWS V14.01,2013-01-21 18:37:00,
2013-01-21 11:38:00,43.1,10.6,30.42,WSW,257,30.0,40.0,26,0.00,,SKC,0.00,VWS V14.01,2013-01-21 18:38:00,
2013-01-21 11:39:00,43.1,9.7,30.42,West,275,36.0,36.0,25,0.00,,SKC,0.00,VWS V14.01,2013-01-21 18:39:00,
2013-01-21 11:40:00,43.2,9.8,30.42,West,259,31.0,36.0,25,0.00,,SKC,0.00,VWS V14.01,2013-01-21 18:40:00,
2013-01-21 11:41:00,43.1,9.7,30.42,West,276,33.0,33.0,25,0.00,,SKC,0.00,VWS V14.01,2013-01-21 18:41:00,
2013-01-21 11:42:00,43.2,9.8,30.43,West,269,27.0,34.0,25,0.00,,SKC,0.00,VWS V14.01,2013-01-21 18:42:00,
2013-01-21 11:43:00,43.3,9.9,30.42,WSW,242,31.0,34.0,25,0.00,,SKC,0.00,VWS V14.01,2013-01-21 18:43:00,
2013-01-21 11:44:00,43.3,9.9,30.42,WSW,244,24.0,32.0,25,0.00,,SKC,0.00,VWS V14.01,2013-01-21 18:44:00,
2013-01-21 11:45:00,43.4,9.9,30.43,West,266,25.0,29.0,25,0.00,,SKC,0.00,VWS V14.01,2013-01-21 18:45:00,
2013-01-21 11:46:00,43.5,10.0,30.42,WSW,254,30.0,30.0,25,0.00,,SKC,0.00,VWS V14.01,2013-01-21 18:46:00,
2013-01-21 11:47:00,43.5,10.0,30.42,WSW,252,19.0,36.0,25,0.00,,SKC,0.00,VWS V14.01,2013-01-21 18:47:00,
2013-01-21 11:48:00,43.5,10.0,30.42,North,360,18.0,19.0,25,0.00,,SKC,0.00,VWS V14.01,2013-01-21 18:48:00,
2013-01-21 11:49:00,43.6,10.1,30.43,North,360,26.0,28.0,25,0.00,,SKC,0.00,VWS V14.01,2013-01-21 18:49:00,
2013-01-21 11:50:00,43.7,10.2,30.43,NW,304,23.0,26.0,25,0.00,,SKC,0.00,VWS V14.01,2013-01-21 18:50:00,
2013-01-21 11:51:00,43.8,10.3,30.42,WNW,286,31.0,35.0,25,0.00,,SKC,0.00,VWS V14.01,2013-01-21 18:51:00,
2013-01-21 11:52:00,43.8,10.3,30.42,West,281,22.0,39.0,25,0.00,,SKC,0.00,VWS V14.01,2013-01-21 18:52:00,
2013-01-21 11:53:00,43.7,10.2,30.42,WNW,282,34.0,34.0,25,0.00,,SKC,0.00,VWS V14.01,2013-01-21 18:53:00,
2013-01-21 11:54:00,43.7,10.2,30.42,West,277,29.0,34.0,25,0.00,,SKC,0.00,VWS V14.01,2013-01-21 18:54:00,
2013-01-21 11:55:00,43.6,10.1,30.42,West,268,22.0,32.0,25,0.00,,SKC,0.00,VWS V14.01,2013-01-21 18:55:00,
2013-01-21 11:56:00,43.4,9.9,30.42,WNW,290,19.0,28.0,25,0.00,,SKC,0.00,VWS V14.01,2013-01-21 18:56:00,
2013-01-21 11:57:00,43.4,9.9,30.43,WNW,288,40.0,40.0,25,0.00,,SKC,0.00,VWS V14.01,2013-01-21 18:57:00,
2013-01-21 11:58:00,43.3,9.9,30.42,West,269,39.0,40.0,25,0.00,,SKC,0.00,VWS V14.01,2013-01-21 18:58:00,
2013-01-21 11:59:00,43.1,9.7,30.41,North,360,41.0,41.0,25,0.00,,SKC,0.00,VWS V14.01,2013-01-21 18:59:00,
2013-01-21 12:00:00,42.8,9.4,30.41,West,271,27.0,42.0,25,0.00,,SKC,0.00,VWS V14.01,2013-01-21 19:00:00,
2013-01-21 12:01:00,42.6,9.3,30.42,West,276,23.0,33.0,25,0.00,,SKC,0.00,VWS V14.01,2013-01-21 19:01:00,
2013-01-21 12:02:00,42.6,9.3,30.42,WNW,293,29.0,32.0,25,0.00,,SKC,0.00,VWS V14.01,2013-01-21 19:02:00,
2013-01-21 12:03:00,42.7,10.2,30.42,West,279,43.0,44.0,26,0.00,,SKC,0.00,VWS V14.01,2013-01-21 19:03:00,
2013-01-21 12:04:00,42.6,9.3,30.42,West,278,38.0,47.0,25,0.00,,SKC,0.00,VWS V14.01,2013-01-21 19:04:00,
2013-01-21 12:05:00,42.6,9.3,30.42,West,275,40.0,41.0,25,0.00,,SKC,0.00,VWS V14.01,2013-01-21 19:05:00,
2013-01-21 12:06:00,42.5,9.2,30.41,WNW,287,26.0,40.0,25,0.00,,SKC,0.00,VWS V14.01,2013-01-21 19:06:00,
2013-01-21 12:07:00,42.5,9.2,30.41,WNW,297,40.0,40.0,25,0.00,,SKC,0.00,VWS V14.01,2013-01-21 19:07:00,
2013-01-21 12:08:00,42.4,9.1,30.41,West,259,24.0,40.0,25,0.00,,SKC,0.00,VWS V14.01,2013-01-21 19:08:00,
2013-01-21 12:09:00,42.3,9.9,30.41,West,265,27.0,32.0,26,0.00,,SKC,0.00,VWS V14.01,2013-01-21 19:09:00,
2013-01-21 12:10:00,42.1,9.7,30.41,WSW,255,27.0,29.0,26,0.00,,SKC,0.00,VWS V14.01,2013-01-21 19:10:00,
2013-01-21 12:11:00,42.0,9.6,30.41,WNW,282,28.0,28.0,26,0.00,,SKC,0.00,VWS V14.01,2013-01-21 19:11:00,
2013-01-21 12:12:00,42.0,9.6,30.42,West,279,24.0,31.0,26,0.00,,SKC,0.00,VWS V14.01,2013-01-21 19:12:00,
2013-01-21 12:13:00,42.0,9.6,30.41,West,261,29.0,33.0,26,0.00,,SKC,0.00,VWS V14.01,2013-01-21 19:13:00,
2013-01-21 12:14:00,42.0,9.6,30.40,WSW,253,23.0,40.0,26,0.00,,SKC,0.00,VWS V14.01,2013-01-21 19:14:00,
2013-01-21 12:15:00,42.1,9.7,30.41,West,274,26.0,32.0,26,0.00,,SKC,0.00,VWS V14.01,2013-01-21 19:15:00,
2013-01-21 12:16:00,42.2,9.8,30.42,West,263,33.0,33.0,26,0.00,,SKC,0.00,VWS V14.01,2013-01-21 19:16:00,
2013-01-21 12:17:00,42.3,9.9,30.41,WNW,298,30.0,34.0,26,0.00,,SKC,0.00,VWS V14.01,2013-01-21 19:17:00,
2013-01-21 12:18:00,42.5,10.1,30.41,West,267,19.0,33.0,26,0.00,,SKC,0.00,VWS V14.01,2013-01-21 19:18:00,
2013-01-21 12:19:00,42.7,10.2,30.41,West,279,28.0,33.0,26,0.00,,SKC,0.00,VWS V14.01,2013-01-21 19:19:00,
2013-01-21 12:20:00,43.0,9.6,30.42,WNW,302,33.0,40.0,25,0.00,,SKC,0.00,VWS V14.01,2013-01-21 19:20:00,
2013-01-21 12:21:00,43.2,9.8,30.41,West,273,27.0,35.0,25,0.00,,SKC,0.00,VWS V14.01,2013-01-21 19:21:00,
2013-01-21 12:22:00,43.4,9.9,30.41,WSW,246,31.0,31.0,25,0.00,,SKC,0.00,VWS V14.01,2013-01-21 19:22:00,
2013-01-21 12:23:00,43.7,10.2,30.41,WNW,287,25.0,33.0,25,0.00,,SKC,0.00,VWS V14.01,2013-01-21 19:23:00,
2013-01-21 12:24:00,43.9,10.4,30.41,WSW,256,22.0,30.0,25,0.00,,SKC,0.00,VWS V14.01,2013-01-21 19:24:00,
2013-01-21 12:25:00,44.1,10.5,30.40,West,263,26.0,29.0,25,0.00,,SKC,0.00,VWS V14.01,2013-01-21 19:25:00,
2013-01-21 12:26:00,44.4,9.9,30.41,North,360,32.0,36.0,24,0.00,,SKC,0.00,VWS V14.01,2013-01-21 19:26:00,
2013-01-21 12:27:00,44.6,10.1,30.40,WNW,298,28.0,33.0,24,0.00,,SKC,0.00,VWS V14.01,2013-01-21 19:27:00,
2013-01-21 12:28:00,44.7,10.1,30.41,WNW,284,27.0,32.0,24,0.00,,SKC,0.00,VWS V14.01,2013-01-21 19:28:00,
2013-01-21 12:29:00,44.9,10.3,30.41,West,267,21.0,35.0,24,0.00,,SKC,0.00,VWS V14.01,2013-01-21 19:29:00,
2013-01-21 12:30:00,45.0,10.4,30.41,WNW,295,25.0,34.0,24,0.00,,SKC,0.00,VWS V14.01,2013-01-21 19:30:00,
2013-01-21 12:31:00,45.0,10.4,30.41,West,275,33.0,38.0,24,0.00,,SKC,0.00,VWS V14.01,2013-01-21 19:31:00,
2013-01-21 12:32:00,45.0,10.4,30.41,West,266,18.0,33.0,24,0.00,,SKC,0.00,VWS V14.01,2013-01-21 19:32:00,
2013-01-21 12:33:00,45.1,10.5,30.41,West,265,17.0,33.0,24,0.00,,SKC,0.00,VWS V14.01,2013-01-21 19:33:00,
2013-01-21 12:34:00,45.1,10.5,30.41,WNW,294,20.0,26.0,24,0.00,,SKC,0.00,VWS V14.01,2013-01-21 19:34:00,
2013-01-21 12:35:00,45.3,10.6,30.41,WNW,289,17.0,28.0,24,0.00,,SKC,0.00,VWS V14.01,2013-01-21 19:35:00,
2013-01-21 12:36:00,45.3,10.6,30.41,West,268,29.0,36.0,24,0.00,,SKC,0.00,VWS V14.01,2013-01-21 19:36:00,
2013-01-21 12:37:00,45.3,10.6,30.41,WNW,298,29.0,29.0,24,0.00,,SKC,0.00,VWS V14.01,2013-01-21 19:37:00,
2013-01-21 12:38:00,45.2,10.6,30.41,WNW,284,28.0,29.0,24,0.00,,SKC,0.00,VWS V14.01,2013-01-21 19:38:00,
2013-01-21 12:39:00,45.2,10.6,30.42,North,360,12.0,33.0,24,0.00,,SKC,0.00,VWS V14.01,2013-01-21 19:39:00,
2013-01-21 12:40:00,45.2,10.6,30.41,North,360,24.0,30.0,24,0.00,,SKC,0.00,VWS V14.01,2013-01-21 19:40:00,
2013-01-21 12:41:00,45.4,10.7,30.42,West,259,19.0,30.0,24,0.00,,SKC,0.00,VWS V14.01,2013-01-21 19:41:00,
2013-01-21 12:42:00,45.5,10.8,30.41,West,261,20.0,32.0,24,0.00,,SKC,0.00,VWS V14.01,2013-01-21 19:42:00,
2013-01-21 12:43:00,45.5,10.8,30.41,WNW,288,21.0,30.0,24,0.00,,SKC,0.00,VWS V14.01,2013-01-21 19:43:00,
2013-01-21 12:44:00,45.5,10.8,30.41,West,267,37.0,37.0,24,0.00,,SKC,0.00,VWS V14.01,2013-01-21 19:44:00,
2013-01-21 12:45:00,45.4,10.7,30.41,WNW,290,35.0,40.0,24,0.00,,SKC,0.00,VWS V14.01,2013-01-21 19:45:00,
2013-01-21 12:46:00,45.3,10.6,30.41,West,279,26.0,35.0,24,0.00,,SKC,0.00,VWS V14.01,2013-01-21 19:46:00,
2013-01-21 12:47:00,45.4,10.7,30.41,SW,234,21.0,26.0,24,0.00,,SKC,0.00,VWS V14.01,2013-01-21 19:47:00,
2013-01-21 12:48:00,45.4,10.7,30.41,West,261,19.0,29.0,24,0.00,,SKC,0.00,VWS V14.01,2013-01-21 19:48:00,
2013-01-21 12:49:00,45.5,10.8,30.41,WSW,258,17.0,24.0,24,0.00,,SKC,0.00,VWS V14.01,2013-01-21 19:49:00,
2013-01-21 12:50:00,45.6,10.9,30.41,West,259,21.0,25.0,24,0.00,,SKC,0.00,VWS V14.01,2013-01-21 19:50:00,
2013-01-21 12:51:00,45.7,10.0,30.41,West,266,20.0,33.0,23,0.00,,SKC,0.00,VWS V14.01,2013-01-21 19:51:00,
2013-01-21 12:52:00,45.8,11.1,30.41,WSW,239,19.0,28.0,24,0.00,,SKC,0.00,VWS V14.01,2013-01-21 19:52:00,
2013-01-21 12:53:00,45.9,10.2,30.41,North,360,26.0,31.0,23,0.00,,SKC,0.00,VWS V14.01,2013-01-21 19:53:00,
2013-01-21 12:54:00,45.9,10.2,30.40,WSW,256,30.0,39.0,23,0.00,,SKC,0.00,VWS V14.01,2013-01-21 19:54:00,
2013-01-21 12:55:00,45.7,10.0,30.40,West,270,31.0,36.0,23,0.00,,SKC,0.00,VWS V14.01,2013-01-21 19:55:00,
2013-01-21 12:56:00,45.6,9.9,30.40,WSW,254,27.0,31.0,23,0.00,,SKC,0.00,VWS V14.01,2013-01-21 19:56:00,
2013-01-21 12:57:00,45.4,9.8,30.40,West,259,33.0,39.0,23,0.00,,SKC,0.00,VWS V14.01,2013-01-21 19:57:00,
2013-01-21 12:58:00,45.2,9.6,30.40,WSW,247,23.0,39.0,23,0.00,,SKC,0.00,VWS V14.01,2013-01-21 19:58:00,
2013-01-21 12:59:00,45.1,10.5,30.41,WSW,247,30.0,30.0,24,0.00,,SKC,0.00,VWS V14.01,2013-01-21 19:59:00,
2013-01-21 13:00:00,45.1,10.5,30.40,WNW,290,26.0,33.0,24,0.00,,SKC,0.00,VWS V14.01,2013-01-21 20:00:00,
2013-01-21 13:01:00,45.3,10.6,30.40,SW,235,16.0,29.0,24,0.00,,SKC,0.00,VWS V14.01,2013-01-21 20:01:00,
2013-01-21 13:02:00,45.4,10.7,30.40,West,268,16.0,22.0,24,0.00,,SKC,0.00,VWS V14.01,2013-01-21 20:02:00,
2013-01-21 13:03:00,45.6,10.9,30.41,WNW,285,23.0,23.0,24,0.00,,SKC,0.00,VWS V14.01,2013-01-21 20:03:00,
2013-01-21 13:04:00,45.7,10.0,30.40,WSW,245,24.0,33.0,23,0.00,,SKC,0.00,VWS V14.01,2013-01-21 20:04:00,
2013-01-21 13:05:00,45.7,10.0,30.40,WSW,254,31.0,33.0,23,0.00,,SKC,0.00,VWS V14.01,2013-01-21 20:05:00,
2013-01-21 13:06:00,45.6,9.9,30.40,WSW,241,31.0,36.0,23,0.00,,SKC,0.00,VWS V14.01,2013-01-21 20:06:00,
2013-01-21 13:07:00,45.6,9.9,30.40,West,263,22.0,31.0,23,0.00,,SKC,0.00,VWS V14.01,2013-01-21 20:07:00,
2013-01-21 13:08:00,45.5,9.9,30.40,West,265,25.0,33.0,23,0.00,,SKC,0.00,VWS V14.01,2013-01-21 20:08:00,
2013-01-21 13:09:00,45.5,9.9,30.40,WSW,242,21.0,33.0,23,0.00,,SKC,0.00,VWS V14.01,2013-01-21 20:09:00,
2013-01-21 13:10:00,45.5,9.9,30.40,West,265,20.0,29.0,23,0.00,,SKC,0.00,VWS V14.01,2013-01-21 20:10:00,
2013-01-21 13:11:00,45.5,9.9,30.40,SW,227,24.0,32.0,23,0.00,,SKC,0.00,VWS V14.01,2013-01-21 20:11:00,
2013-01-21 13:12:00,45.5,9.9,30.40,West,273,19.0,28.0,23,0.00,,SKC,0.00,VWS V14.01,2013-01-21 20:12:00,
2013-01-21 13:13:00,45.4,9.8,30.40,West,262,31.0,33.0,23,0.00,,SKC,0.00,VWS V14.01,2013-01-21 20:13:00,
2013-01-21 13:14:00,45.4,9.8,30.40,WSW,248,18.0,33.0,23,0.00,,SKC,0.00,VWS V14.01,2013-01-21 20:14:00,
2013-01-21 13:15:00,45.3,9.7,30.40,West,268,22.0,23.0,23,0.00,,SKC,0.00,VWS V14.01,2013-01-21 20:15:00,
2013-01-21 13:16:00,45.4,9.8,30.41,WSW,252,20.0,24.0,23,0.00,,SKC,0.00,VWS V14.01,2013-01-21 20:16:00,
2013-01-21 13:17:00,45.4,9.8,30.41,North,360,20.0,24.0,23,0.00,,SKC,0.00,VWS V14.01,2013-01-21 20:17:00,
2013-01-21 13:18:00,45.5,9.9,30.40,WSW,256,33.0,33.0,23,0.00,,SKC,0.00,VWS V14.01,2013-01-21 20:18:00,
2013-01-21 13:19:00,45.5,9.9,30.41,WSW,258,23.0,33.0,23,0.00,,SKC,0.00,VWS V14.01,2013-01-21 20:19:00,
2013-01-21 13:20:00,45.5,9.9,30.41,West,262,22.0,30.0,23,0.00,,SKC,0.00,VWS V14.01,2013-01-21 20:20:00,
2013-01-21 13:21:00,45.3,9.7,30.40,WSW,238,14.0,26.0,23,0.00,,SKC,0.00,VWS V14.01,2013-01-21 20:21:00,
2013-01-21 13:22:00,45.4,9.8,30.41,WSW,255,34.0,34.0,23,0.00,,SKC,0.00,VWS V14.01,2013-01-21 20:22:00,
2013-01-21 13:23:00,45.4,9.8,30.40,WNW,284,19.0,35.0,23,0.00,,SKC,0.00,VWS V14.01,2013-01-21 20:23:00,
2013-01-21 13:24:00,45.4,9.8,30.40,WNW,289,29.0,38.0,23,0.00,,SKC,0.00,VWS V14.01,2013-01-21 20:24:00,
2013-01-21 13:25:00,45.3,9.7,30.40,West,269,17.0,29.0,23,0.00,,SKC,0.00,VWS V14.01,2013-01-21 20:25:00,
2013-01-21 13:26:00,45.2,9.6,30.40,WSW,250,24.0,33.0,23,0.00,,SKC,0.00,VWS V14.01,2013-01-21 20:26:00,
2013-01-21 13:27:00,45.2,9.6,30.40,West,259,33.0,33.0,23,0.00,,SKC,0.00,VWS V14.01,2013-01-21 20:27:00,
2013-01-21 13:28:00,45.0,9.4,30.39,West,259,33.0,39.0,23,0.00,,SKC,0.00,VWS V14.01,2013-01-21 20:28:00,
2013-01-21 13:29:00,44.8,9.3,30.39,North,360,35.0,40.0,23,0.00,,SKC,0.00,VWS V14.01,2013-01-21 20:29:00,
2013-01-21 13:30:00,44.6,10.1,30.39,SW,228,33.0,36.0,24,0.00,,SKC,0.00,VWS V14.01,2013-01-21 20:30:00,
2013-01-21 13:31:00,44.6,10.1,30.39,North,360,24.0,40.0,24,0.00,,SKC,0.00,VWS V14.01,2013-01-21 20:31:00,
2013-01-21 13:32:00,44.6,10.1,30.40,WSW,246,31.0,38.0,24,0.00,,SKC,0.00,VWS V14.01,2013-01-21 20:32:00,
2013-01-21 13:33:00,44.6,10.1,30.40,WSW,252,29.0,35.0,24,0.00,,SKC,0.00,VWS V14.01,2013-01-21 20:33:00,
2013-01-21 13:34:00,44.6,10.1,30.40,West,262,18.0,30.0,24,0.00,,SKC,0.00,VWS V14.01,2013-01-21 20:34:00,
2013-01-21 13:35:00,44.7,10.1,30.40,North,360,22.0,23.0,24,0.00,,SKC,0.00,VWS V14.01,2013-01-21 20:35:00,
2013-01-21 13:36:00,44.9,10.3,30.40,North,360,23.0,29.0,24,0.00,,SKC,0.00,VWS V14.01,2013-01-21 20:36:00,
2013-01-21 13:37:00,45.0,9.4,30.40,North,360,30.0,35.0,23,0.00,,SKC,0.00,VWS V14.01,2013-01-21 20:37:00,
2013-01-21 13:38:00,44.9,9.4,30.40,SW,228,29.0,30.0,23,0.00,,SKC,0.00,VWS V14.01,2013-01-21 20:38:00,
2013-01-21 13:39:00,44.9,10.3,30.40,North,360,34.0,34.0,24,0.00,,SKC,0.00,VWS V14.01,2013-01-21 20:39:00,
2013-01-21 13:40:00,44.9,10.3,30.40,WSW,251,35.0,35.0,24,0.00,,SKC,0.00,VWS V14.01,2013-01-21 20:40:00,
2013-01-21 13:41:00,45.0,9.4,30.39,West,273,25.0,38.0,23,0.00,,SKC,0.00,VWS V14.01,2013-01-21 20:41:00,
2013-01-21 13:42:00,44.8,10.2,30.40,West,263,31.0,33.0,24,0.00,,SKC,0.00,VWS V14.01,2013-01-21 20:42:00,
2013-01-21 13:43:00,44.7,10.1,30.40,West,276,25.0,33.0,24,0.00,,SKC,0.00,VWS V14.01,2013-01-21 20:43:00,
2013-01-21 13:44:00,44.6,10.1,30.39,WNW,284,30.0,33.0,24,0.00,,SKC,0.00,VWS V14.01,2013-01-21 20:44:00,
2013-01-21 13:45:00,44.6,10.1,30.40,WSW,254,13.0,32.0,24,0.00,,SKC,0.00,VWS V14.01,2013-01-21 20:45:00,
2013-01-21 13:46:00,44.7,10.1,30.40,West,271,16.0,33.0,24,0.00,,SKC,0.00,VWS V14.01,2013-01-21 20:46:00,
2013-01-21 13:47:00,44.8,10.2,30.40,WSW,251,22.0,28.0,24,0.00,,SKC,0.00,VWS V14.01,2013-01-21 20:47:00,
2013-01-21 13:48:00,45.0,9.4,30.40,WSW,258,26.0,43.0,23,0.00,,SKC,0.00,VWS V14.01,2013-01-21 20:48:00,
2013-01-21 13:49:00,44.9,9.4,30.39,WSW,256,21.0,33.0,23,0.00,,SKC,0.00,VWS V14.01,2013-01-21 20:49:00,
2013-01-21 13:50:00,44.8,10.2,30.39,WNW,290,24.0,30.0,24,0.00,,SKC,0.00,VWS V14.01,2013-01-21 20:50:00,
2013-01-21 13:51:00,44.7,10.1,30.39,WNW,300,26.0,29.0,24,0.00,,SKC,0.00,VWS V14.01,2013-01-21 20:51:00,
2013-01-21 13:52:00,44.8,10.2,30.40,West,276,25.0,32.0,24,0.00,,SKC,0.00,VWS V14.01,2013-01-21 20:52:00,
2013-01-21 13:53:00,44.9,9.4,30.40,West,269,26.0,34.0,23,0.00,,SKC,0.00,VWS V14.01,2013-01-21 20:53:00,
2013-01-21 13:54:00,44.9,9.4,30.40,West,271,17.0,29.0,23,0.00,,SKC,0.00,VWS V14.01,2013-01-21 20:54:00,
2013-01-21 13:55:00,45.0,9.4,30.40,WNW,285,33.0,33.0,23,0.00,,SKC,0.00,VWS V14.01,2013-01-21 20:55:00,
2013-01-21 13:56:00,45.0,9.4,30.39,West,275,32.0,33.0,23,0.00,,SKC,0.00,VWS V14.01,2013-01-21 20:56:00,
2013-01-21 13:57:00,45.0,9.4,30.40,West,277,23.0,40.0,23,0.00,,SKC,0.00,VWS V14.01,2013-01-21 20:57:00,
2013-01-21 13:58:00,45.0,9.4,30.40,West,277,23.0,40.0,23,0.00,,SKC,0.00,VWS V14.01,2013-01-21 20:58:00,
2013-01-21 13:59:00,45.2,9.6,30.40,WSW,251,28.0,38.0,23,0.00,,SKC,0.00,VWS V14.01,2013-01-21 20:59:00,
2013-01-21 14:00:00,45.2,9.6,30.39,WNW,292,33.0,33.0,23,0.00,,SKC,0.00,VWS V14.01,2013-01-21 21:00:00,
2013-01-21 14:01:00,45.2,9.6,30.39,WSW,251,15.0,33.0,23,0.00,,SKC,0.00,VWS V14.01,2013-01-21 21:01:00,
2013-01-21 14:02:00,45.3,9.7,30.40,West,278,29.0,32.0,23,0.00,,SKC,0.00,VWS V14.01,2013-01-21 21:02:00,
2013-01-21 14:03:00,45.4,9.8,30.39,WSW,244,23.0,29.0,23,0.00,,SKC,0.00,VWS V14.01,2013-01-21 21:03:00,
2013-01-21 14:04:00,45.3,9.7,30.39,West,274,25.0,33.0,23,0.00,,SKC,0.00,VWS V14.01,2013-01-21 21:04:00,
2013-01-21 14:05:00,45.3,9.7,30.39,SW,232,25.0,25.0,23,0.00,,SKC,0.00,VWS V14.01,2013-01-21 21:05:00,
2013-01-21 14:06:00,45.4,9.8,30.39,West,275,16.0,25.0,23,0.00,,SKC,0.00,VWS V14.01,2013-01-21 21:06:00,
2013-01-21 14:07:00,45.6,9.9,30.39,WNW,283,29.0,29.0,23,0.00,,SKC,0.00,VWS V14.01,2013-01-21 21:07:00,
2013-01-21 14:08:00,45.8,10.1,30.39,North,360,28.0,29.0,23,0.00,,SKC,0.00,VWS V14.01,2013-01-21 21:08:00,
2013-01-21 14:09:00,45.9,9.2,30.39,WNW,292,20.0,28.0,22,0.00,,SKC,0.00,VWS V14.01,2013-01-21 21:09:00,
2013-01-21 14:10:00,46.0,9.3,30.39,WSW,250,25.0,33.0,22,0.00,,SKC,0.00,VWS V14.01,2013-01-21 21:10:00,
2013-01-21 14:11:00,46.0,9.3,30.39,North,360,19.0,30.0,22,0.00,,SKC,0.00,VWS V14.01,2013-01-21 21:11:00,
2013-01-21 14:12:00,46.1,9.4,30.39,WSW,248,21.0,35.0,22,0.00,,SKC,0.00,VWS V14.01,2013-01-21 21:12:00,
2013-01-21 14:13:00,46.1,9.4,30.39,WSW,251,20.0,29.0,22,0.00,,SKC,0.00,VWS V14.01,2013-01-21 21:13:00,
2013-01-21 14:14:00,46.1,9.4,30.39,North,360,29.0,29.0,22,0.00,,SKC,0.00,VWS V14.01,2013-01-21 21:14:00,
2013-01-21 14:15:00,46.1,9.4,30.39,WSW,241,19.0,33.0,22,0.00,,SKC,0.00,VWS V14.01,2013-01-21 21:15:00,
2013-01-21 14:16:00,46.2,9.5,30.39,WSW,254,19.0,28.0,22,0.00,,SKC,0.00,VWS V14.01,2013-01-21 21:16:00,
2013-01-21 14:17:00,46.2,9.5,30.39,West,270,23.0,28.0,22,0.00,,SKC,0.00,VWS V14.01,2013-01-21 21:17:00,
2013-01-21 14:18:00,46.2,9.5,30.39,West,265,30.0,32.0,22,0.00,,SKC,0.00,VWS V14.01,2013-01-21 21:18:00,
2013-01-21 14:19:00,46.1,9.4,30.39,WSW,251,20.0,31.0,22,0.00,,SKC,0.00,VWS V14.01,2013-01-21 21:19:00,
2013-01-21 14:20:00,46.1,9.4,30.38,West,259,14.0,24.0,22,0.00,,SKC,0.00,VWS V14.01,2013-01-21 21:20:00,
2013-01-21 14:21:00,46.2,9.5,30.39,WSW,250,24.0,39.0,22,0.00,,SKC,0.00,VWS V14.01,2013-01-21 21:21:00,
2013-01-21 14:22:00,46.2,8.4,30.39,West,273,26.0,28.0,21,0.00,,SKC,0.00,VWS V14.01,2013-01-21 21:22:00,
2013-01-21 14:23:00,46.2,8.4,30.38,SW,223,17.0,33.0,21,0.00,,SKC,0.00,VWS V14.01,2013-01-21 21:23:00,
2013-01-21 14:24:00,46.2,8.4,30.39,West,281,24.0,33.0,21,0.00,,SKC,0.00,VWS V14.01,2013-01-21 21:24:00,
2013-01-21 14:25:00,46.1,8.4,30.39,North,360,21.0,31.0,21,0.00,,SKC,0.00,VWS V14.01,2013-01-21 21:25:00,
2013-01-21 14:26:00,46.1,8.4,30.38,North,360,25.0,31.0,21,0.00,,SKC,0.00,VWS V14.01,2013-01-21 21:26:00,
2013-01-21 14:27:00,46.2,8.4,30.39,WSW,240,24.0,27.0,21,0.00,,SKC,0.00,VWS V14.01,2013-01-21 21:27:00,
2013-01-21 14:28:00,46.1,8.4,30.39,West,277,24.0,26.0,21,0.00,,SKC,0.00,VWS V14.01,2013-01-21 21:28:00,
2013-01-21 14:29:00,46.1,8.4,30.39,West,279,24.0,38.0,21,0.00,,SKC,0.00,VWS V14.01,2013-01-21 21:29:00,
2013-01-21 14:30:00,46.1,8.4,30.39,WSW,257,35.0,35.0,21,0.00,,SKC,0.00,VWS V14.01,2013-01-21 21:30:00,
2013-01-21 14:31:00,46.1,8.4,30.39,West,263,28.0,35.0,21,0.00,,SKC,0.00,VWS V14.01,2013-01-21 21:31:00,
2013-01-21 14:32:00,46.0,8.3,30.39,West,263,22.0,36.0,21,0.00,,SKC,0.00,VWS V14.01,2013-01-21 21:32:00,
2013-01-21 14:33:00,45.9,8.2,30.39,West,269,22.0,29.0,21,0.00,,SKC,0.00,VWS V14.01,2013-01-21 21:33:00,
2013-01-21 14:34:00,45.8,9.1,30.39,North,360,27.0,32.0,22,0.00,,SKC,0.00,VWS V14.01,2013-01-21 21:34:00,
2013-01-21 14:35:00,45.8,9.1,30.39,WSW,245,20.0,28.0,22,0.00,,SKC,0.00,VWS V14.01,2013-01-21 21:35:00,
2013-01-21 14:36:00,45.8,9.1,30.39,WSW,257,19.0,28.0,22,0.00,,SKC,0.00,VWS V14.01,2013-01-21 21:36:00,
2013-01-21 14:37:00,45.7,9.1,30.39,WNW,289,27.0,31.0,22,0.00,,SKC,0.00,VWS V14.01,2013-01-21 21:37:00,
2013-01-21 14:38:00,45.8,9.1,30.39,North,360,21.0,30.0,22,0.00,,SKC,0.00,VWS V14.01,2013-01-21 21:38:00,
2013-01-21 14:39:00,46.0,9.3,30.39,SW,232,23.0,29.0,22,0.00,,SKC,0.00,VWS V14.01,2013-01-21 21:39:00,
2013-01-21 14:40:00,46.0,8.3,30.38,West,268,18.0,32.0,21,0.00,,SKC,0.00,VWS V14.01,2013-01-21 21:40:00,
2013-01-21 14:41:00,45.9,8.2,30.39,West,263,24.0,33.0,21,0.00,,SKC,0.00,VWS V14.01,2013-01-21 21:41:00,
2013-01-21 14:42:00,45.9,8.2,30.39,North,360,21.0,29.0,21,0.00,,SKC,0.00,VWS V14.01,2013-01-21 21:42:00,
2013-01-21 14:43:00,45.9,9.2,30.39,West,261,25.0,25.0,22,0.00,,SKC,0.00,VWS V14.01,2013-01-21 21:43:00,
2013-01-21 14:44:00,45.9,8.2,30.39,WSW,257,21.0,30.0,21,0.00,,SKC,0.00,VWS V14.01,2013-01-21 21:44:00,
2013-01-21 14:45:00,45.9,8.2,30.38,West,274,26.0,36.0,21,0.00,,SKC,0.00,VWS V14.01,2013-01-21 21:45:00,
2013-01-21 14:46:00,45.9,8.2,30.38,North,360,14.0,26.0,21,0.00,,SKC,0.00,VWS V14.01,2013-01-21 21:46:00,
2013-01-21 14:47:00,45.9,8.2,30.38,North,360,21.0,27.0,21,0.00,,SKC,0.00,VWS V14.01,2013-01-21 21:47:00,
2013-01-21 14:48:00,46.0,8.3,30.38,WSW,243,23.0,23.0,21,0.00,,SKC,0.00,VWS V14.01,2013-01-21 21:48:00,
2013-01-21 14:49:00,46.0,8.3,30.37,West,280,21.0,26.0,21,0.00,,SKC,0.00,VWS V14.01,2013-01-21 21:49:00,
2013-01-21 14:50:00,46.1,8.4,30.37,WSW,238,25.0,32.0,21,0.00,,SKC,0.00,VWS V14.01,2013-01-21 21:50:00,
2013-01-21 14:51:00,46.1,8.4,30.38,WSW,252,23.0,25.0,21,0.00,,SKC,0.00,VWS V14.01,2013-01-21 21:51:00,
2013-01-21 14:52:00,46.1,8.4,30.38,West,273,32.0,32.0,21,0.00,,SKC,0.00,VWS V14.01,2013-01-21 21:52:00,
2013-01-21 14:53:00,46.2,8.4,30.38,WNW,282,22.0,32.0,21,0.00,,SKC,0.00,VWS V14.01,2013-01-21 21:53:00,
2013-01-21 14:54:00,46.2,8.4,30.37,West,262,27.0,30.0,21,0.00,,SKC,0.00,VWS V14.01,2013-01-21 21:54:00,
2013-01-21 14:55:00,46.1,8.4,30.38,WSW,258,25.0,29.0,21,0.00,,SKC,0.00,VWS V14.01,2013-01-21 21:55:00,
2013-01-21 14:56:00,46.0,8.3,30.37,West,272,34.0,34.0,21,0.00,,SKC,0.00,VWS V14.01,2013-01-21 21:56:00,
2013-01-21 14:57:00,45.9,8.2,30.37,North,360,21.0,34.0,21,0.00,,SKC,0.00,VWS V14.01,2013-01-21 21:57:00,
2013-01-21 14:58:00,45.8,8.1,30.37,WSW,256,23.0,32.0,21,0.00,,SKC,0.00,VWS V14.01,2013-01-21 21:58:00,
2013-01-21 14:59:00,45.7,8.0,30.37,WSW,256,28.0,34.0,21,0.00,,SKC,0.00,VWS V14.01,2013-01-21 21:59:00,
2013-01-21 15:00:00,45.6,7.9,30.37,North,360,19.0,32.0,21,0.00,,SKC,0.00,VWS V14.01,2013-01-21 22:00:00,
2013-01-21 15:01:00,45.5,7.8,30.37,WSW,254,31.0,31.0,21,0.00,,SKC,0.00,VWS V14.01,2013-01-21 22:01:00,
2013-01-21 15:02:00,45.5,7.8,30.37,WSW,257,33.0,33.0,21,0.00,,SKC,0.00,VWS V14.01,2013-01-21 22:02:00,
2013-01-21 15:03:00,45.4,7.8,30.37,West,262,31.0,39.0,21,0.00,,SKC,0.00,VWS V14.01,2013-01-21 22:03:00,
2013-01-21 15:04:00,45.3,7.7,30.37,WSW,248,32.0,35.0,21,0.00,,SKC,0.00,VWS V14.01,2013-01-21 22:04:00,
2013-01-21 15:05:00,45.2,7.6,30.37,WSW,248,21.0,39.0,21,0.00,,SKC,0.00,VWS V14.01,2013-01-21 22:05:00,
2013-01-21 15:06:00,45.0,7.4,30.37,WSW,243,28.0,33.0,21,0.00,,SKC,0.00,VWS V14.01,2013-01-21 22:06:00,
2013-01-21 15:07:00,45.0,7.4,30.37,WSW,247,29.0,34.0,21,0.00,,SKC,0.00,VWS V14.01,2013-01-21 22:07:00,
2013-01-21 15:08:00,44.9,8.4,30.37,WSW,246,28.0,31.0,22,0.00,,SKC,0.00,VWS V14.01,2013-01-21 22:08:00,
2013-01-21 15:09:00,44.8,8.3,30.37,North,360,30.0,36.0,22,0.00,,SKC,0.00,VWS V14.01,2013-01-21 22:09:00,
2013-01-21 15:10:00,44.6,8.1,30.37,WSW,251,23.0,32.0,22,0.00,,SKC,0.00,VWS V14.01,2013-01-21 22:10:00,
2013-01-21 15:11:00,44.4,7.9,30.37,West,264,22.0,33.0,22,0.00,,SKC,0.00,VWS V14.01,2013-01-21 22:11:00,
2013-01-21 15:12:00,44.3,7.9,30.37,West,259,35.0,41.0,22,0.00,,SKC,0.00,VWS V14.01,2013-01-21 22:12:00,
2013-01-21 15:13:00,44.2,7.8,30.38,West,270,18.0,35.0,22,0.00,,SKC,0.00,VWS V14.01,2013-01-21 22:13:00,
2013-01-21 15:14:00,44.1,7.7,30.37,West,260,20.0,39.0,22,0.00,,SKC,0.00,VWS V14.01,2013-01-21 22:14:00,
2013-01-21 15:15:00,44.1,7.7,30.37,WSW,239,31.0,33.0,22,0.00,,SKC,0.00,VWS V14.01,2013-01-21 22:15:00,
2013-01-21 15:16:00,44.1,7.7,30.37,WSW,238,30.0,31.0,22,0.00,,SKC,0.00,VWS V14.01,2013-01-21 22:16:00,
2013-01-21 15:17:00,44.2,7.8,30.38,West,271,23.0,30.0,22,0.00,,SKC,0.00,VWS V14.01,2013-01-21 22:17:00,
2013-01-21 15:18:00,44.2,7.8,30.38,WNW,285,34.0,34.0,22,0.00,,SKC,0.00,VWS V14.01,2013-01-21 22:18:00,
2013-01-21 15:19:00,44.3,7.9,30.38,West,265,33.0,34.0,22,0.00,,SKC,0.00,VWS V14.01,2013-01-21 22:19:00,
2013-01-21 15:20:00,44.4,7.9,30.38,West,279,30.0,33.0,22,0.00,,SKC,0.00,VWS V14.01,2013-01-21 22:20:00,
2013-01-21 15:21:00,44.4,6.9,30.38,West,269,31.0,31.0,21,0.00,,SKC,0.00,VWS V14.01,2013-01-21 22:21:00,
2013-01-21 15:22:00,44.4,6.9,30.38,WSW,254,29.0,32.0,21,0.00,,SKC,0.00,VWS V14.01,2013-01-21 22:22:00,
2013-01-21 15:23:00,44.3,6.8,30.38,WSW,253,36.0,36.0,21,0.00,,SKC,0.00,VWS V14.01,2013-01-21 22:23:00,
2013-01-21 15:24:00,44.3,6.8,30.38,WSW,252,31.0,37.0,21,0.00,,SKC,0.00,VWS V14.01,2013-01-21 22:24:00,
2013-01-21 15:25:00,44.1,6.7,30.37,WSW,248,34.0,35.0,21,0.00,,SKC,0.00,VWS V14.01,2013-01-21 22:25:00,
2013-01-21 15:26:00,44.1,6.7,30.37,WSW,248,37.0,37.0,21,0.00,,SKC,0.00,VWS V14.01,2013-01-21 22:26:00,
2013-01-21 15:27:00,44.0,6.6,30.37,WNW,295,31.0,37.0,21,0.00,,SKC,0.00,VWS V14.01,2013-01-21 22:27:00,
2013-01-21 15:28:00,44.0,6.6,30.38,West,271,29.0,32.0,21,0.00,,SKC,0.00,VWS V14.01,2013-01-21 22:28:00,
2013-01-21 15:29:00,44.0,6.6,30.38,West,269,24.0,33.0,21,0.00,,SKC,0.00,VWS V14.01,2013-01-21 22:29:00,
2013-01-21 15:30:00,43.9,6.5,30.38,WSW,255,20.0,27.0,21,0.00,,SKC,0.00,VWS V14.01,2013-01-21 22:30:00,
2013-01-21 15:31:00,43.9,6.5,30.37,West,260,28.0,30.0,21,0.00,,SKC,0.00,VWS V14.01,2013-01-21 22:31:00,
2013-01-21 15:32:00,43.9,6.5,30.38,West,269,46.0,46.0,21,0.00,,SKC,0.00,VWS V14.01,2013-01-21 22:32:00,
2013-01-21 15:33:00,43.9,6.5,30.37,West,271,26.0,46.0,21,0.00,,SKC,0.00,VWS V14.01,2013-01-21 22:33:00,
2013-01-21 15:34:00,43.8,6.4,30.38,West,266,23.0,26.0,21,0.00,,SKC,0.00,VWS V14.01,2013-01-21 22:34:00,
2013-01-21 15:35:00,43.8,6.4,30.38,North,360,30.0,30.0,21,0.00,,SKC,0.00,VWS V14.01,2013-01-21 22:35:00,
2013-01-21 15:36:00,43.8,6.4,30.38,West,278,24.0,46.0,21,0.00,,SKC,0.00,VWS V14.01,2013-01-21 22:36:00,
2013-01-21 15:37:00,43.7,6.3,30.38,West,271,23.0,34.0,21,0.00,,SKC,0.00,VWS V14.01,2013-01-21 22:37:00,
2013-01-21 15:38:00,43.7,6.3,30.38,North,360,21.0,36.0,21,0.00,,SKC,0.00,VWS V14.01,2013-01-21 22:38:00,
2013-01-21 15:39:00,43.8,6.4,30.38,WNW,292,29.0,33.0,21,0.00,,SKC,0.00,VWS V14.01,2013-01-21 22:39:00,
2013-01-21 15:40:00,43.8,6.4,30.38,North,360,33.0,33.0,21,0.00,,SKC,0.00,VWS V14.01,2013-01-21 22:40:00,
2013-01-21 15:41:00,43.8,5.3,30.37,West,275,25.0,33.0,20,0.00,,SKC,0.00,VWS V14.01,2013-01-21 22:41:00,
2013-01-21 15:42:00,43.8,5.3,30.38,West,260,28.0,28.0,20,0.00,,SKC,0.00,VWS V14.01,2013-01-21 22:42:00,
2013-01-21 15:43:00,43.8,5.3,30.38,WSW,243,26.0,40.0,20,0.00,,SKC,0.00,VWS V14.01,2013-01-21 22:43:00,
2013-01-21 15:44:00,43.8,5.3,30.38,West,261,22.0,27.0,20,0.00,,SKC,0.00,VWS V14.01,2013-01-21 22:44:00,
2013-01-21 15:45:00,43.8,5.3,30.38,WSW,249,27.0,30.0,20,0.00,,SKC,0.00,VWS V14.01,2013-01-21 22:45:00,
2013-01-21 15:46:00,43.8,5.3,30.38,West,260,32.0,36.0,20,0.00,,SKC,0.00,VWS V14.01,2013-01-21 22:46:00,
2013-01-21 15:47:00,43.8,5.3,30.38,WSW,251,24.0,38.0,20,0.00,,SKC,0.00,VWS V14.01,2013-01-21 22:47:00,
2013-01-21 15:48:00,43.8,5.3,30.38,North,360,13.0,24.0,20,0.00,,SKC,0.00,VWS V14.01,2013-01-21 22:48:00,
2013-01-21 15:49:00,43.9,5.4,30.38,North,360,17.0,24.0,20,0.00,,SKC,0.00,VWS V14.01,2013-01-21 22:49:00,
2013-01-21 15:50:00,44.0,4.4,30.37,North,360,22.0,33.0,19,0.00,,SKC,0.00,VWS V14.01,2013-01-21 22:50:00,
2013-01-21 15:51:00,44.0,5.5,30.38,WSW,250,25.0,34.0,20,0.00,,SKC,0.00,VWS V14.01,2013-01-21 22:51:00,
2013-01-21 15:52:00,43.9,5.4,30.38,WNW,282,21.0,29.0,20,0.00,,SKC,0.00,VWS V14.01,2013-01-21 22:52:00,
2013-01-21 15:53:00,43.9,5.4,30.38,West,267,17.0,25.0,20,0.00,,SKC,0.00,VWS V14.01,2013-01-21 22:53:00,
2013-01-21 15:54:00,43.9,5.4,30.38,WSW,258,23.0,33.0,20,0.00,,SKC,0.00,VWS V14.01,2013-01-21 22:54:00,
2013-01-21 15:55:00,43.8,5.3,30.38,West,270,25.0,33.0,20,0.00,,SKC,0.00,VWS V14.01,2013-01-21 22:55:00,
2013-01-21 15:56:00,43.8,5.3,30.39,WSW,250,23.0,26.0,20,0.00,,SKC,0.00,VWS V14.01,2013-01-21 22:56:00,
2013-01-21 15:57:00,43.8,5.3,30.38,WSW,256,28.0,29.0,20,0.00,,SKC,0.00,VWS V14.01,2013-01-21 22:57:00,
2013-01-21 15:58:00,43.7,5.3,30.38,North,360,28.0,31.0,20,0.00,,SKC,0.00,VWS V14.01,2013-01-21 22:58:00,
2013-01-21 15:59:00,43.7,4.2,30.38,West,260,26.0,35.0,19,0.00,,SKC,0.00,VWS V14.01,2013-01-21 22:59:00,
2013-01-21 16:00:00,43.6,4.1,30.39,WSW,252,23.0,36.0,19,0.00,,SKC,0.00,VWS V14.01,2013-01-21 23:00:00,
2013-01-21 16:01:00,43.5,5.1,30.38,WSW,252,28.0,33.0,20,0.00,,SKC,0.00,VWS V14.01,2013-01-21 23:01:00,
2013-01-21 16:02:00,43.4,5.0,30.38,North,360,33.0,33.0,20,0.00,,SKC,0.00,VWS V14.01,2013-01-21 23:02:00,
2013-01-21 16:03:00,43.3,4.9,30.37,West,265,22.0,37.0,20,0.00,,SKC,0.00,VWS V14.01,2013-01-21 23:03:00,
2013-01-21 16:04:00,43.2,4.8,30.38,West,261,25.0,36.0,20,0.00,,SKC,0.00,VWS V14.01,2013-01-21 23:04:00,
2013-01-21 16:05:00,43.2,4.8,30.38,West,274,15.0,29.0,20,0.00,,SKC,0.00,VWS V14.01,2013-01-21 23:05:00,
2013-01-21 16:06:00,43.2,4.8,30.38,West,263,22.0,44.0,20,0.00,,SKC,0.00,VWS V14.01,2013-01-21 23:06:00,
2013-01-21 16:07:00,43.1,4.8,30.39,WSW,253,23.0,30.0,20,0.00,,SKC,0.00,VWS V14.01,2013-01-21 23:07:00,
2013-01-21 16:08:00,43.1,4.8,30.39,West,275,23.0,28.0,20,0.00,,SKC,0.00,VWS V14.01,2013-01-21 23:08:00,
2013-01-21 16:09:00,43.0,4.7,30.38,WNW,286,20.0,31.0,20,0.00,,SKC,0.00,VWS V14.01,2013-01-21 23:09:00,
2013-01-21 16:10:00,42.9,4.6,30.39,West,276,23.0,27.0,20,0.00,,SKC,0.00,VWS V14.01,2013-01-21 23:10:00,
2013-01-21 16:11:00,42.9,4.6,30.39,West,262,21.0,42.0,20,0.00,,SKC,0.00,VWS V14.01,2013-01-21 23:11:00,
2013-01-21 16:12:00,42.8,4.5,30.38,West,267,26.0,27.0,20,0.00,,SKC,0.00,VWS V14.01,2013-01-21 23:12:00,
2013-01-21 16:13:00,42.7,4.4,30.38,WSW,242,28.0,33.0,20,0.00,,SKC,0.00,VWS V14.01,2013-01-21 23:13:00,
2013-01-21 16:14:00,42.7,4.4,30.38,West,275,27.0,37.0,20,0.00,,SKC,0.00,VWS V14.01,2013-01-21 23:14:00,
2013-01-21 16:15:00,42.5,4.3,30.38,North,360,40.0,40.0,20,0.00,,SKC,0.00,VWS V14.01,2013-01-21 23:15:00,
2013-01-21 16:16:00,42.3,4.1,30.39,North,360,27.0,40.0,20,0.00,,SKC,0.00,VWS V14.01,2013-01-21 23:16:00,
2013-01-21 16:17:00,42.1,3.9,30.38,North,360,25.0,33.0,20,0.00,,SKC,0.00,VWS V14.01,2013-01-21 23:17:00,
2013-01-21 16:18:00,41.9,4.8,30.37,West,273,16.0,31.0,21,0.00,,SKC,0.00,VWS V14.01,2013-01-21 23:18:00,
2013-01-21 16:19:00,41.7,4.7,30.38,West,273,25.0,31.0,21,0.00,,SKC,0.00,VWS V14.01,2013-01-21 23:19:00,
2013-01-21 16:20:00,41.6,4.6,30.38,West,260,27.0,28.0,21,0.00,,SKC,0.00,VWS V14.01,2013-01-21 23:20:00,
2013-01-21 16:21:00,41.4,4.4,30.38,West,273,31.0,34.0,21,0.00,,SKC,0.00,VWS V14.01,2013-01-21 23:21:00,
2013-01-21 16:22:00,41.2,4.2,30.37,WSW,247,26.0,35.0,21,0.00,,SKC,0.00,VWS V14.01,2013-01-21 23:22:00,
2013-01-21 16:23:00,41.1,4.2,30.39,WSW,246,14.0,26.0,21,0.00,,SKC,0.00,VWS V14.01,2013-01-21 23:23:00,
2013-01-21 16:24:00,41.0,4.1,30.37,West,270,26.0,31.0,21,0.00,,SKC,0.00,VWS V14.01,2013-01-21 23:24:00,
2013-01-21 16:25:00,40.9,4.0,30.38,West,259,12.0,36.0,21,0.00,,SKC,0.00,VWS V14.01,2013-01-21 23:25:00,
2013-01-21 16:26:00,40.8,3.9,30.38,WSW,254,24.0,27.0,21,0.00,,SKC,0.00,VWS V14.01,2013-01-21 23:26:00,
2013-01-21 16:27:00,40.6,3.7,30.39,WNW,288,33.0,33.0,21,0.00,,SKC,0.00,VWS V14.01,2013-01-21 23:27:00,
2013-01-21 16:28:00,40.6,3.7,30.39,West,271,22.0,33.0,21,0.00,,SKC,0.00,VWS V14.01,2013-01-21 23:28:00,
2013-01-21 16:29:00,40.5,3.7,30.38,WSW,256,22.0,31.0,21,0.00,,SKC,0.00,VWS V14.01,2013-01-21 23:29:00,
2013-01-21 16:30:00,40.4,3.6,30.38,WNW,286,22.0,33.0,21,0.00,,SKC,0.00,VWS V14.01,2013-01-21 23:30:00,
2013-01-21 16:31:00,40.4,4.6,30.39,WNW,286,33.0,33.0,22,0.00,,SKC,0.00,VWS V14.01,2013-01-21 23:31:00,
2013-01-21 16:32:00,40.3,4.5,30.39,WSW,254,23.0,33.0,22,0.00,,SKC,0.00,VWS V14.01,2013-01-21 23:32:00,
2013-01-21 16:33:00,40.2,4.4,30.39,WSW,243,21.0,33.0,22,0.00,,SKC,0.00,VWS V14.01,2013-01-21 23:33:00,
2013-01-21 16:34:00,40.2,4.4,30.39,North,360,31.0,31.0,22,0.00,,SKC,0.00,VWS V14.01,2013-01-21 23:34:00,
2013-01-21 16:35:00,40.1,4.3,30.39,WSW,253,26.0,41.0,22,0.00,,SKC,0.00,VWS V14.01,2013-01-21 23:35:00,
2013-01-21 16:36:00,40.1,4.3,30.38,West,275,21.0,36.0,22,0.00,,SKC,0.00,VWS V14.01,2013-01-21 23:36:00,
2013-01-21 16:37:00,40.1,4.3,30.38,West,272,24.0,32.0,22,0.00,,SKC,0.00,VWS V14.01,2013-01-21 23:37:00,
2013-01-21 16:38:00,40.0,4.2,30.39,WSW,240,19.0,24.0,22,0.00,,SKC,0.00,VWS V14.01,2013-01-21 23:38:00,
2013-01-21 16:39:00,40.0,4.2,30.39,WSW,252,22.0,30.0,22,0.00,,SKC,0.00,VWS V14.01,2013-01-21 23:39:00,
2013-01-21 16:40:00,39.9,4.2,30.39,WSW,246,20.0,27.0,22,0.00,,SKC,0.00,VWS V14.01,2013-01-21 23:40:00,
2013-01-21 16:41:00,39.8,4.1,30.39,West,267,23.0,30.0,22,0.00,,SKC,0.00,VWS V14.01,2013-01-21 23:41:00,
2013-01-21 16:42:00,39.8,4.1,30.39,SW,230,29.0,33.0,22,0.00,,SKC,0.00,VWS V14.01,2013-01-21 23:42:00,
2013-01-21 16:43:00,39.7,4.0,30.38,WNW,296,31.0,38.0,22,0.00,,SKC,0.00,VWS V14.01,2013-01-21 23:43:00,
2013-01-21 16:44:00,39.8,4.1,30.39,North,360,23.0,35.0,22,0.00,,SKC,0.00,VWS V14.01,2013-01-21 23:44:00,
2013-01-21 16:45:00,39.7,4.0,30.39,West,259,21.0,26.0,22,0.00,,SKC,0.00,VWS V14.01,2013-01-21 23:45:00,
2013-01-21 16:46:00,39.7,4.0,30.39,West,266,25.0,29.0,22,0.00,,SKC,0.00,VWS V14.01,2013-01-21 23:46:00,
2013-01-21 16:47:00,39.6,3.9,30.39,WNW,286,19.0,25.0,22,0.00,,SKC,0.00,VWS V14.01,2013-01-21 23:47:00,
2013-01-21 16:48:00,39.6,3.9,30.39,West,267,17.0,27.0,22,0.00,,SKC,0.00,VWS V14.01,2013-01-21 23:48:00,
2013-01-21 16:49:00,39.5,3.8,30.39,WNW,287,18.0,32.0,22,0.00,,SKC,0.00,VWS V14.01,2013-01-21 23:49:00,
2013-01-21 16:50:00,39.4,3.7,30.39,WNW,293,17.0,27.0,22,0.00,,SKC,0.00,VWS V14.01,2013-01-21 23:50:00,
2013-01-21 16:51:00,39.4,3.7,30.39,North,360,21.0,24.0,22,0.00,,SKC,0.00,VWS V14.01,2013-01-21 23:51:00,
2013-01-21 16:52:00,39.4,3.7,30.39,North,360,13.0,26.0,22,0.00,,SKC,0.00,VWS V14.01,2013-01-21 23:52:00,
2013-01-21 16:53:00,39.4,3.7,30.39,WNW,289,16.0,21.0,22,0.00,,SKC,0.00,VWS V14.01,2013-01-21 23:53:00,
2013-01-21 16:54:00,39.3,4.6,30.39,WNW,288,21.0,26.0,23,0.00,,SKC,0.00,VWS V14.01,2013-01-21 23:54:00,
2013-01-21 16:55:00,39.3,4.6,30.39,West,281,21.0,37.0,23,0.00,,SKC,0.00,VWS V14.01,2013-01-21 23:55:00,
2013-01-21 16:56:00,39.2,4.5,30.39,WNW,290,23.0,24.0,23,0.00,,SKC,0.00,VWS V14.01,2013-01-21 23:56:00,
2013-01-21 16:57:00,39.2,4.5,30.39,North,360,26.0,28.0,23,0.00,,SKC,0.00,VWS V14.01,2013-01-21 23:57:00,
2013-01-21 16:58:00,39.2,4.5,30.39,WNW,288,18.0,30.0,23,0.00,,SKC,0.00,VWS V14.01,2013-01-21 23:58:00,
2013-01-21 16:59:00,39.1,4.4,30.39,North,360,19.0,20.0,23,0.00,,SKC,0.00,VWS V14.01,2013-01-21 23:59:00,
2013-01-21 17:00:00,39.1,4.4,30.39,North,360,30.0,30.0,23,0.00,,SKC,0.00,VWS V14.01,2013-01-22 00:00:00,
2013-01-21 17:01:00,39.1,4.4,30.39,North,360,30.0,30.0,23,0.00,,SKC,0.00,VWS V14.01,2013-01-22 00:01:00,
2013-01-21 17:02:00,39.0,4.4,30.38,West,272,34.0,34.0,23,0.00,,SKC,0.00,VWS V14.01,2013-01-22 00:02:00,
2013-01-21 17:03:00,39.0,4.4,30.39,West,267,21.0,37.0,23,0.00,,SKC,0.00,VWS V14.01,2013-01-22 00:03:00,
2013-01-21 17:04:00,39.0,4.4,30.39,West,277,23.0,34.0,23,0.00,,SKC,0.00,VWS V14.01,2013-01-22 00:04:00,
2013-01-21 17:05:00,39.0,4.4,30.39,North,360,17.0,23.0,23,0.00,,SKC,0.00,VWS V14.01,2013-01-22 00:05:00,
2013-01-21 17:06:00,39.0,4.4,30.39,West,261,27.0,28.0,23,0.00,,SKC,0.00,VWS V14.01,2013-01-22 00:06:00,
2013-01-21 17:07:00,39.0,4.4,30.38,North,360,26.0,28.0,23,0.00,,SKC,0.00,VWS V14.01,2013-01-22 00:07:00,
2013-01-21 17:08:00,38.9,4.3,30.38,West,259,18.0,26.0,23,0.00,,SKC,0.00,VWS V14.01,2013-01-22 00:08:00,
2013-01-21 17:09:00,38.9,4.3,30.39,WSW,257,16.0,21.0,23,0.00,,SKC,0.00,VWS V14.01,2013-01-22 00:09:00,
2013-01-21 17:10:00,38.8,4.2,30.39,North,360,24.0,24.0,23,0.00,,SKC,0.00,VWS V14.01,2013-01-22 00:10:00,
2013-01-21 17:11:00,38.8,4.2,30.38,North,360,32.0,33.0,23,0.00,,SKC,0.00,VWS V14.01,2013-01-22 00:11:00,
2013-01-21 17:12:00,38.8,4.2,30.38,West,276,18.0,32.0,23,0.00,,SKC,0.00,VWS V14.01,2013-01-22 00:12:00,
2013-01-21 17:13:00,38.7,4.1,30.38,West,268,33.0,33.0,23,0.00,,SKC,0.00,VWS V14.01,2013-01-22 00:13:00,
2013-01-21 17:14:00,38.7,4.1,30.38,WNW,302,23.0,33.0,23,0.00,,SKC,0.00,VWS V14.01,2013-01-22 00:14:00,
2013-01-21 17:15:00,38.7,4.1,30.38,WNW,284,31.0,31.0,23,0.00,,SKC,0.00,VWS V14.01,2013-01-22 00:15:00,
2013-01-21 17:16:00,38.7,4.1,30.38,West,278,23.0,31.0,23,0.00,,SKC,0.00,VWS V14.01,2013-01-22 00:16:00,
2013-01-21 17:17:00,38.7,4.1,30.39,West,277,30.0,43.0,23,0.00,,SKC,0.00,VWS V14.01,2013-01-22 00:17:00,
2013-01-21 17:18:00,38.7,4.1,30.38,North,360,21.0,30.0,23,0.00,,SKC,0.00,VWS V14.01,2013-01-22 00:18:00,
2013-01-21 17:19:00,38.7,4.1,30.38,North,360,18.0,31.0,23,0.00,,SKC,0.00,VWS V14.01,2013-01-22 00:19:00,
2013-01-21 17:20:00,38.7,4.1,30.38,WSW,245,30.0,30.0,23,0.00,,SKC,0.00,VWS V14.01,2013-01-22 00:20:00,
2013-01-21 17:21:00,38.7,4.1,30.38,West,274,23.0,32.0,23,0.00,,SKC,0.00,VWS V14.01,2013-01-22 00:21:00,
2013-01-21 17:22:00,38.7,4.1,30.38,WNW,289,22.0,24.0,23,0.00,,SKC,0.00,VWS V14.01,2013-01-22 00:22:00,
2013-01-21 17:23:00,38.7,4.1,30.38,West,265,18.0,26.0,23,0.00,,SKC,0.00,VWS V14.01,2013-01-22 00:23:00,
2013-01-21 17:24:00,38.6,4.0,30.39,WSW,248,23.0,28.0,23,0.00,,SKC,0.00,VWS V14.01,2013-01-22 00:24:00,
2013-01-21 17:25:00,38.6,4.0,30.39,West,275,27.0,33.0,23,0.00,,SKC,0.00,VWS V14.01,2013-01-22 00:25:00,
2013-01-21 17:26:00,38.6,4.0,30.39,WNW,284,20.0,32.0,23,0.00,,SKC,0.00,VWS V14.01,2013-01-22 00:26:00,
2013-01-21 17:27:00,38.6,4.0,30.39,North,360,40.0,40.0,23,0.00,,SKC,0.00,VWS V14.01,2013-01-22 00:27:00,
2013-01-21 17:28:00,38.5,3.9,30.39,WSW,257,18.0,40.0,23,0.00,,SKC,0.00,VWS V14.01,2013-01-22 00:28:00,
2013-01-21 17:29:00,38.5,3.9,30.39,WNW,286,36.0,36.0,23,0.00,,SKC,0.00,VWS V14.01,2013-01-22 00:29:00,
2013-01-21 17:30:00,38.5,3.9,30.39,West,265,33.0,39.0,23,0.00,,SKC,0.00,VWS V14.01,2013-01-22 00:30:00,
2013-01-21 17:31:00,38.5,3.9,30.38,NW,304,18.0,33.0,23,0.00,,SKC,0.00,VWS V14.01,2013-01-22 00:31:00,
2013-01-21 17:32:00,38.6,4.0,30.38,North,360,22.0,33.0,23,0.00,,SKC,0.00,VWS V14.01,2013-01-22 00:32:00,
2013-01-21 17:33:00,38.6,4.0,30.39,West,279,14.0,33.0,23,0.00,,SKC,0.00,VWS V14.01,2013-01-22 00:33:00,
2013-01-21 17:34:00,38.5,3.9,30.39,North,360,30.0,33.0,23,0.00,,SKC,0.00,VWS V14.01,2013-01-22 00:34:00,
2013-01-21 17:35:00,38.5,3.9,30.39,WNW,296,22.0,37.0,23,0.00,,SKC,0.00,VWS V14.01,2013-01-22 00:35:00,
2013-01-21 17:36:00,38.5,3.9,30.39,West,263,22.0,25.0,23,0.00,,SKC,0.00,VWS V14.01,2013-01-22 00:36:00,
2013-01-21 17:37:00,38.4,3.8,30.39,West,265,21.0,30.0,23,0.00,,SKC,0.00,VWS V14.01,2013-01-22 00:37:00,
2013-01-21 17:38:00,38.4,3.8,30.39,WNW,296,10.0,27.0,23,0.00,,SKC,0.00,VWS V14.01,2013-01-22 00:38:00,
2013-01-21 17:39:00,38.3,3.8,30.39,West,281,16.0,21.0,23,0.00,,SKC,0.00,VWS V14.01,2013-01-22 00:39:00,
2013-01-21 17:40:00,38.3,3.8,30.39,WSW,248,14.0,37.0,23,0.00,,SKC,0.00,VWS V14.01,2013-01-22 00:40:00,
2013-01-21 17:41:00,38.3,2.8,30.38,WNW,290,21.0,33.0,22,0.00,,SKC,0.00,VWS V14.01,2013-01-22 00:41:00,
2013-01-21 17:42:00,38.3,3.8,30.38,North,360,32.0,32.0,23,0.00,,SKC,0.00,VWS V14.01,2013-01-22 00:42:00,
2013-01-21 17:43:00,38.3,3.8,30.39,West,280,31.0,36.0,23,0.00,,SKC,0.00,VWS V14.01,2013-01-22 00:43:00,
2013-01-21 17:44:00,38.3,3.8,30.39,WNW,298,25.0,34.0,23,0.00,,SKC,0.00,VWS V14.01,2013-01-22 00:44:00,
2013-01-21 17:45:00,38.3,2.8,30.38,West,277,18.0,35.0,22,0.00,,SKC,0.00,VWS V14.01,2013-01-22 00:45:00,
2013-01-21 17:46:00,38.3,2.8,30.38,SW,229,21.0,30.0,22,0.00,,SKC,0.00,VWS V14.01,2013-01-22 00:46:00,
2013-01-21 17:47:00,38.3,2.8,30.38,WNW,284,23.0,32.0,22,0.00,,SKC,0.00,VWS V14.01,2013-01-22 00:47:00,
2013-01-21 17:48:00,38.3,2.8,30.38,WNW,292,24.0,29.0,22,0.00,,SKC,0.00,VWS V14.01,2013-01-22 00:48:00,
2013-01-21 17:49:00,38.3,2.8,30.40,North,360,22.0,36.0,22,0.00,,SKC,0.00,VWS V14.01,2013-01-22 00:49:00,
2013-01-21 17:50:00,38.4,2.9,30.39,NW,306,33.0,35.0,22,0.00,,SKC,0.00,VWS V14.01,2013-01-22 00:50:00,
2013-01-21 17:51:00,38.3,2.8,30.38,WNW,291,18.0,33.0,22,0.00,,SKC,0.00,VWS V14.01,2013-01-22 00:51:00,
2013-01-21 17:52:00,38.3,2.8,30.38,WNW,294,28.0,30.0,22,0.00,,SKC,0.00,VWS V14.01,2013-01-22 00:52:00,
2013-01-21 17:53:00,38.3,3.8,30.39,WNW,300,26.0,31.0,23,0.00,,SKC,0.00,VWS V14.01,2013-01-22 00:53:00,
2013-01-21 17:54:00,38.2,2.7,30.40,West,269,25.0,32.0,22,0.00,,SKC,0.00,VWS V14.01,2013-01-22 00:54:00,
2013-01-21 17:55:00,38.2,2.7,30.39,NW,304,28.0,30.0,22,0.00,,SKC,0.00,VWS V14.01,2013-01-22 00:55:00,
2013-01-21 17:56:00,38.3,2.8,30.38,WNW,297,28.0,28.0,22,0.00,,SKC,0.00,VWS V14.01,2013-01-22 00:56:00,
2013-01-21 17:57:00,38.2,2.7,30.39,NW,309,23.0,30.0,22,0.00,,SKC,0.00,VWS V14.01,2013-01-22 00:57:00,
2013-01-21 17:58:00,38.3,2.8,30.39,WSW,253,33.0,37.0,22,0.00,,SKC,0.00,VWS V14.01,2013-01-22 00:58:00,
2013-01-21 17:59:00,38.3,2.8,30.38,WSW,251,18.0,33.0,22,0.00,,SKC,0.00,VWS V14.01,2013-01-22 00:59:00,
2013-01-21 18:00:00,38.3,2.8,30.39,WNW,288,15.0,22.0,22,0.00,,SKC,0.00,VWS V14.01,2013-01-22 01:00:00,
2013-01-21 18:01:00,38.2,2.7,30.39,North,360,30.0,31.0,22,0.00,,SKC,0.00,VWS V14.01,2013-01-22 01:01:00,
2013-01-21 18:02:00,38.2,2.7,30.38,North,360,19.0,30.0,22,0.00,,SKC,0.00,VWS V14.01,2013-01-22 01:02:00,
2013-01-21 18:03:00,38.2,2.7,30.39,North,360,17.0,28.0,22,0.00,,SKC,0.00,VWS V14.01,2013-01-22 01:03:00,
2013-01-21 18:04:00,38.2,2.7,30.40,WNW,293,17.0,17.0,22,0.00,,SKC,0.00,VWS V14.01,2013-01-22 01:04:00,
2013-01-21 18:05:00,38.2,2.7,30.39,WNW,298,16.0,26.0,22,0.00,,SKC,0.00,VWS V14.01,2013-01-22 01:05:00,
2013-01-21 18:06:00,38.2,2.7,30.39,West,278,27.0,29.0,22,0.00,,SKC,0.00,VWS V14.01,2013-01-22 01:06:00,
2013-01-21 18:07:00,38.2,2.7,30.39,WNW,294,15.0,27.0,22,0.00,,SKC,0.00,VWS V14.01,2013-01-22 01:07:00,
2013-01-21 18:08:00,38.2,2.7,30.40,North,360,23.0,27.0,22,0.00,,SKC,0.00,VWS V14.01,2013-01-22 01:08:00,
2013-01-21 18:09:00,38.2,2.7,30.39,West,279,25.0,38.0,22,0.00,,SKC,0.00,VWS V14.01,2013-01-22 01:09:00,
2013-01-21 18:10:00,38.2,2.7,30.39,WNW,284,14.0,28.0,22,0.00,,SKC,0.00,VWS V14.01,2013-01-22 01:10:00,
2013-01-21 18:11:00,38.2,2.7,30.39,North,360,36.0,36.0,22,0.00,,SKC,0.00,VWS V14.01,2013-01-22 01:11:00,
2013-01-21 18:12:00,38.2,1.7,30.40,WNW,288,30.0,41.0,21,0.00,,SKC,0.00,VWS V14.01,2013-01-22 01:12:00,
2013-01-21 18:13:00,38.3,2.8,30.39,NW,325,13.0,30.0,22,0.00,,SKC,0.00,VWS V14.01,2013-01-22 01:13:00,
2013-01-21 18:14:00,38.3,2.8,30.40,WNW,295,18.0,26.0,22,0.00,,SKC,0.00,VWS V14.01,2013-01-22 01:14:00,
2013-01-21 18:15:00,38.3,2.8,30.40,WNW,290,21.0,23.0,22,0.00,,SKC,0.00,VWS V14.01,2013-01-22 01:15:00,
2013-01-21 18:16:00,38.3,2.8,30.40,WNW,289,20.0,26.0,22,0.00,,SKC,0.00,VWS V14.01,2013-01-22 01:16:00,
2013-01-21 18:17:00,38.3,1.8,30.40,WNW,300,27.0,28.0,21,0.00,,SKC,0.00,VWS V14.01,2013-01-22 01:17:00,
2013-01-21 18:18:00,38.4,1.9,30.39,WNW,285,16.0,32.0,21,0.00,,SKC,0.00,VWS V14.01,2013-01-22 01:18:00,
2013-01-21 18:19:00,38.4,1.9,30.39,West,262,23.0,28.0,21,0.00,,SKC,0.00,VWS V14.01,2013-01-22 01:19:00,
2013-01-21 18:20:00,38.4,1.9,30.39,WSW,257,26.0,32.0,21,0.00,,SKC,0.00,VWS V14.01,2013-01-22 01:20:00,
2013-01-21 18:21:00,38.4,1.9,30.39,NW,310,34.0,34.0,21,0.00,,SKC,0.00,VWS V14.01,2013-01-22 01:21:00,
2013-01-21 18:22:00,38.4,1.9,30.41,WNW,302,22.0,39.0,21,0.00,,SKC,0.00,VWS V14.01,2013-01-22 01:22:00,
2013-01-21 18:23:00,38.4,1.9,30.40,WNW,298,30.0,32.0,21,0.00,,SKC,0.00,VWS V14.01,2013-01-22 01:23:00,
2013-01-21 18:24:00,38.4,1.9,30.40,WNW,284,22.0,33.0,21,0.00,,SKC,0.00,VWS V14.01,2013-01-22 01:24:00,
2013-01-21 18:25:00,38.4,1.9,30.41,WNW,288,30.0,33.0,21,0.00,,SKC,0.00,VWS V14.01,2013-01-22 01:25:00,
2013-01-21 18:26:00,38.4,1.9,30.40,West,273,31.0,31.0,21,0.00,,SKC,0.00,VWS V14.01,2013-01-22 01:26:00,
2013-01-21 18:27:00,38.4,1.9,30.40,WNW,294,15.0,31.0,21,0.00,,SKC,0.00,VWS V14.01,2013-01-22 01:27:00,
2013-01-21 18:28:00,38.6,1.0,30.40,WNW,292,29.0,35.0,20,0.00,,SKC,0.00,VWS V14.01,2013-01-22 01:28:00,
2013-01-21 18:29:00,38.7,1.1,30.41,North,360,26.0,29.0,20,0.00,,SKC,0.00,VWS V14.01,2013-01-22 01:29:00,
2013-01-21 18:30:00,38.7,1.1,30.40,WNW,293,27.0,28.0,20,0.00,,SKC,0.00,VWS V14.01,2013-01-22 01:30:00,
2013-01-21 18:31:00,38.8,1.2,30.40,West,277,21.0,31.0,20,0.00,,SKC,0.00,VWS V14.01,2013-01-22 01:31:00,
2013-01-21 18:32:00,38.8,2.2,30.39,North,360,19.0,29.0,21,0.00,,SKC,0.00,VWS V14.01,2013-01-22 01:32:00,
2013-01-21 18:33:00,38.8,1.2,30.39,WNW,287,15.0,20.0,20,0.00,,SKC,0.00,VWS V14.01,2013-01-22 01:33:00,
2013-01-21 18:34:00,38.7,1.1,30.39,West,276,18.0,27.0,20,0.00,,SKC,0.00,VWS V14.01,2013-01-22 01:34:00,
2013-01-21 18:35:00,38.7,1.1,30.40,West,272,27.0,27.0,20,0.00,,SKC,0.00,VWS V14.01,2013-01-22 01:35:00,
2013-01-21 18:36:00,38.7,1.1,30.40,West,277,21.0,27.0,20,0.00,,SKC,0.00,VWS V14.01,2013-01-22 01:36:00,
2013-01-21 18:37:00,38.7,1.1,30.39,West,259,28.0,28.0,20,0.00,,SKC,0.00,VWS V14.01,2013-01-22 01:37:00,
2013-01-21 18:38:00,38.7,1.1,30.40,West,277,18.0,28.0,20,0.00,,SKC,0.00,VWS V14.01,2013-01-22 01:38:00,
2013-01-21 18:39:00,38.7,1.1,30.40,WNW,300,14.0,21.0,20,0.00,,SKC,0.00,VWS V14.01,2013-01-22 01:39:00,
2013-01-21 18:40:00,38.7,1.1,30.40,WNW,286,21.0,23.0,20,0.00,,SKC,0.00,VWS V14.01,2013-01-22 01:40:00,
2013-01-21 18:41:00,38.7,1.1,30.40,NW,309,26.0,26.0,20,0.00,,SKC,0.00,VWS V14.01,2013-01-22 01:41:00,
2013-01-21 18:42:00,38.7,1.1,30.40,West,272,26.0,36.0,20,0.00,,SKC,0.00,VWS V14.01,2013-01-22 01:42:00,
2013-01-21 18:43:00,38.7,1.1,30.39,WNW,298,16.0,28.0,20,0.00,,SKC,0.00,VWS V14.01,2013-01-22 01:43:00,
2013-01-21 18:44:00,38.7,1.1,30.39,WNW,290,26.0,28.0,20,0.00,,SKC,0.00,VWS V14.01,2013-01-22 01:44:00,
2013-01-21 18:45:00,38.7,1.1,30.40,North,360,16.0,29.0,20,0.00,,SKC,0.00,VWS V14.01,2013-01-22 01:45:00,
2013-01-21 18:46:00,38.6,1.0,30.39,WNW,300,23.0,25.0,20,0.00,,SKC,0.00,VWS V14.01,2013-01-22 01:46:00,
2013-01-21 18:47:00,38.6,1.0,30.39,WNW,296,26.0,32.0,20,0.00,,SKC,0.00,VWS V14.01,2013-01-22 01:47:00,
2013-01-21 18:48:00,38.6,1.0,30.39,WNW,297,24.0,27.0,20,0.00,,SKC,0.00,VWS V14.01,2013-01-22 01:48:00,
2013-01-21 18:49:00,38.6,1.0,30.39,WNW,296,15.0,29.0,20,0.00,,SKC,0.00,VWS V14.01,2013-01-22 01:49:00,
2013-01-21 18:50:00,38.7,1.1,30.40,WNW,284,27.0,27.0,20,0.00,,SKC,0.00,VWS V14.01,2013-01-22 01:50:00,
2013-01-21 18:51:00,38.7,1.1,30.40,North,360,19.0,27.0,20,0.00,,SKC,0.00,VWS V14.01,2013-01-22 01:51:00,
2013-01-21 18:52:00,38.6,2.0,30.40,West,280,21.0,22.0,21,0.00,,SKC,0.00,VWS V14.01,2013-01-22 01:52:00,
2013-01-21 18:53:00,38.6,2.0,30.40,WNW,290,14.0,29.0,21,0.00,,SKC,0.00,VWS V14.01,2013-01-22 01:53:00,
2013-01-21 18:54:00,38.4,1.9,30.40,WNW,294,18.0,26.0,21,0.00,,SKC,0.00,VWS V14.01,2013-01-22 01:54:00,
2013-01-21 18:55:00,38.4,1.9,30.40,North,360,19.0,30.0,21,0.00,,SKC,0.00,VWS V14.01,2013-01-22 01:55:00,
2013-01-21 18:56:00,38.4,1.9,30.40,WSW,255,25.0,33.0,21,0.00,,SKC,0.00,VWS V14.01,2013-01-22 01:56:00,
2013-01-21 18:57:00,38.3,1.8,30.39,WSW,242,22.0,28.0,21,0.00,,SKC,0.00,VWS V14.01,2013-01-22 01:57:00,
2013-01-21 18:58:00,38.3,1.8,30.40,WSW,247,17.0,22.0,21,0.00,,SKC,0.00,VWS V14.01,2013-01-22 01:58:00,
2013-01-21 18:59:00,38.2,1.7,30.39,North,360,22.0,27.0,21,0.00,,SKC,0.00,VWS V14.01,2013-01-22 01:59:00,
2013-01-21 19:00:00,38.2,1.7,30.39,North,360,22.0,30.0,21,0.00,,SKC,0.00,VWS V14.01,2013-01-22 02:00:00,
2013-01-21 19:01:00,38.2,1.7,30.39,West,260,27.0,36.0,21,0.00,,SKC,0.00,VWS V14.01,2013-01-22 02:01:00,
2013-01-21 19:02:00,38.2,1.7,30.38,North,360,18.0,34.0,21,0.00,,SKC,0.00,VWS V14.01,2013-01-22 02:02:00,
2013-01-21 19:03:00,38.3,1.8,30.39,WNW,288,25.0,28.0,21,0.00,,SKC,0.00,VWS V14.01,2013-01-22 02:03:00,
2013-01-21 19:04:00,38.3,1.8,30.39,WNW,288,25.0,28.0,21,0.00,,SKC,0.00,VWS V14.01,2013-01-22 02:04:00,
2013-01-21 19:05:00,38.2,1.7,30.40,WNW,287,18.0,23.0,21,0.00,,SKC,0.00,VWS V14.01,2013-01-22 02:05:00,
2013-01-21 19:06:00,38.2,1.7,30.39,WSW,256,27.0,31.0,21,0.00,,SKC,0.00,VWS V14.01,2013-01-22 02:06:00,
2013-01-21 19:07:00,38.2,1.7,30.39,WNW,302,33.0,33.0,21,0.00,,SKC,0.00,VWS V14.01,2013-01-22 02:07:00,
2013-01-21 19:08:00,38.2,1.7,30.40,North,360,27.0,36.0,21,0.00,,SKC,0.00,VWS V14.01,2013-01-22 02:08:00,
2013-01-21 19:09:00,38.2,1.7,30.39,West,266,30.0,35.0,21,0.00,,SKC,0.00,VWS V14.01,2013-01-22 02:09:00,
2013-01-21 19:10:00,38.2,1.7,30.39,West,281,24.0,30.0,21,0.00,,SKC,0.00,VWS V14.01,2013-01-22 02:10:00,
2013-01-21 19:11:00,38.2,1.7,30.40,North,360,24.0,38.0,21,0.00,,SKC,0.00,VWS V14.01,2013-01-22 02:11:00,
2013-01-21 19:12:00,38.2,1.7,30.39,West,274,27.0,34.0,21,0.00,,SKC,0.00,VWS V14.01,2013-01-22 02:12:00,
2013-01-21 19:13:00,38.2,1.7,30.39,NW,312,27.0,33.0,21,0.00,,SKC,0.00,VWS V14.01,2013-01-22 02:13:00,
2013-01-21 19:14:00,38.3,1.8,30.39,West,276,14.0,27.0,21,0.00,,SKC,0.00,VWS V14.01,2013-01-22 02:14:00,
2013-01-21 19:15:00,38.2,1.7,30.39,North,360,42.0,42.0,21,0.00,,SKC,0.00,VWS V14.01,2013-01-22 02:15:00,
2013-01-21 19:16:00,38.2,1.7,30.39,West,259,21.0,42.0,21,0.00,,SKC,0.00,VWS V14.01,2013-01-22 02:16:00,
2013-01-21 19:17:00,38.3,1.8,30.39,WNW,287,22.0,33.0,21,0.00,,SKC,0.00,VWS V14.01,2013-01-22 02:17:00,
2013-01-21 19:18:00,38.2,1.7,30.39,West,261,24.0,30.0,21,0.00,,SKC,0.00,VWS V14.01,2013-01-22 02:18:00,
2013-01-21 19:19:00,38.2,1.7,30.39,West,279,33.0,34.0,21,0.00,,SKC,0.00,VWS V14.01,2013-01-22 02:19:00,
2013-01-21 19:20:00,38.2,1.7,30.39,West,263,29.0,45.0,21,0.00,,SKC,0.00,VWS V14.01,2013-01-22 02:20:00,
2013-01-21 19:21:00,38.3,1.8,30.39,West,262,31.0,37.0,21,0.00,,SKC,0.00,VWS V14.01,2013-01-22 02:21:00,
2013-01-21 19:22:00,38.3,1.8,30.39,WSW,254,20.0,35.0,21,0.00,,SKC,0.00,VWS V14.01,2013-01-22 02:22:00,
2013-01-21 19:23:00,38.4,1.9,30.38,WSW,255,21.0,30.0,21,0.00,,SKC,0.00,VWS V14.01,2013-01-22 02:23:00,
2013-01-21 19:24:00,38.4,1.9,30.39,North,360,27.0,30.0,21,0.00,,SKC,0.00,VWS V14.01,2013-01-22 02:24:00,
2013-01-21 19:25:00,38.4,1.9,30.39,West,281,17.0,34.0,21,0.00,,SKC,0.00,VWS V14.01,2013-01-22 02:25:00,
2013-01-21 19:26:00,38.3,1.8,30.39,West,275,18.0,26.0,21,0.00,,SKC,0.00,VWS V14.01,2013-01-22 02:26:00,
2013-01-21 19:27:00,38.2,1.7,30.39,WNW,290,16.0,28.0,21,0.00,,SKC,0.00,VWS V14.01,2013-01-22 02:27:00,
2013-01-21 19:28:00,38.2,1.7,30.39,SW,236,26.0,26.0,21,0.00,,SKC,0.00,VWS V14.01,2013-01-22 02:28:00,
2013-01-21 19:29:00,38.1,1.6,30.40,SW,235,24.0,29.0,21,0.00,,SKC,0.00,VWS V14.01,2013-01-22 02:29:00,
2013-01-21 19:30:00,38.0,1.5,30.39,WNW,286,33.0,41.0,21,0.00,,SKC,0.00,VWS V14.01,2013-01-22 02:30:00,
2013-01-21 19:31:00,38.0,1.5,30.39,WSW,253,23.0,39.0,21,0.00,,SKC,0.00,VWS V14.01,2013-01-22 02:31:00,
2013-01-21 19:32:00,38.0,1.5,30.38,West,269,20.0,25.0,21,0.00,,SKC,0.00,VWS V14.01,2013-01-22 02:32:00,
2013-01-21 19:33:00,38.0,1.5,30.39,North,360,21.0,25.0,21,0.00,,SKC,0.00,VWS V14.01,2013-01-22 02:33:00,
2013-01-21 19:34:00,38.0,1.5,30.39,West,261,19.0,23.0,21,0.00,,SKC,0.00,VWS V14.01,2013-01-22 02:34:00,
2013-01-21 19:35:00,37.9,1.5,30.39,West,267,22.0,27.0,21,0.00,,SKC,0.00,VWS V14.01,2013-01-22 02:35:00,
2013-01-21 19:36:00,37.9,1.5,30.38,WSW,250,26.0,29.0,21,0.00,,SKC,0.00,VWS V14.01,2013-01-22 02:36:00,
2013-01-21 19:37:00,37.9,1.5,30.39,West,269,19.0,26.0,21,0.00,,SKC,0.00,VWS V14.01,2013-01-22 02:37:00,
2013-01-21 19:38:00,37.9,1.5,30.39,West,259,22.0,38.0,21,0.00,,SKC,0.00,VWS V14.01,2013-01-22 02:38:00,
2013-01-21 19:39:00,37.9,1.5,30.39,West,269,22.0,24.0,21,0.00,,SKC,0.00,VWS V14.01,2013-01-22 02:39:00,
2013-01-21 19:40:00,37.9,1.5,30.39,West,263,12.0,32.0,21,0.00,,SKC,0.00,VWS V14.01,2013-01-22 02:40:00,
2013-01-21 19:41:00,37.9,1.5,30.39,SW,234,21.0,33.0,21,0.00,,SKC,0.00,VWS V14.01,2013-01-22 02:41:00,
2013-01-21 19:42:00,37.9,1.5,30.39,West,279,20.0,28.0,21,0.00,,SKC,0.00,VWS V14.01,2013-01-22 02:42:00,
2013-01-21 19:43:00,37.9,1.5,30.39,WNW,298,17.0,33.0,21,0.00,,SKC,0.00,VWS V14.01,2013-01-22 02:43:00,
2013-01-21 19:44:00,37.9,1.5,30.39,West,276,31.0,31.0,21,0.00,,SKC,0.00,VWS V14.01,2013-01-22 02:44:00,
2013-01-21 19:45:00,37.9,1.5,30.39,WNW,288,19.0,33.0,21,0.00,,SKC,0.00,VWS V14.01,2013-01-22 02:45:00,
2013-01-21 19:46:00,37.9,1.5,30.39,West,281,28.0,31.0,21,0.00,,SKC,0.00,VWS V14.01,2013-01-22 02:46:00,
2013-01-21 19:47:00,37.9,1.5,30.39,WSW,247,21.0,28.0,21,0.00,,SKC,0.00,VWS V14.01,2013-01-22 02:47:00,
2013-01-21 19:48:00,37.9,1.5,30.40,West,272,15.0,21.0,21,0.00,,SKC,0.00,VWS V14.01,2013-01-22 02:48:00,
2013-01-21 19:49:00,37.9,1.5,30.39,WNW,284,30.0,38.0,21,0.00,,SKC,0.00,VWS V14.01,2013-01-22 02:49:00,
2013-01-21 19:50:00,37.9,1.5,30.39,WSW,257,18.0,30.0,21,0.00,,SKC,0.00,VWS V14.01,2013-01-22 02:50:00,
2013-01-21 19:51:00,37.9,1.5,30.40,North,360,20.0,33.0,21,0.00,,SKC,0.00,VWS V14.01,2013-01-22 02:51:00,
2013-01-21 19:52:00,37.9,2.5,30.40,West,279,24.0,30.0,22,0.00,,SKC,0.00,VWS V14.01,2013-01-22 02:52:00,
2013-01-21 19:53:00,38.0,2.5,30.40,WNW,288,31.0,31.0,22,0.00,,SKC,0.00,VWS V14.01,2013-01-22 02:53:00,
2013-01-21 19:54:00,37.9,2.5,30.40,WSW,250,33.0,41.0,22,0.00,,SKC,0.00,VWS V14.01,2013-01-22 02:54:00,
2013-01-21 19:55:00,38.0,2.5,30.39,WSW,247,18.0,33.0,22,0.00,,SKC,0.00,VWS V14.01,2013-01-22 02:55:00,
2013-01-21 19:56:00,37.9,2.5,30.40,West,271,25.0,33.0,22,0.00,,SKC,0.00,VWS V14.01,2013-01-22 02:56:00,
2013-01-21 19:59:00,37.9,2.5,30.40,WNW,302,15.0,25.0,22,0.00,,SKC,0.00,VWS V14.01,2013-01-22 02:59:00,
2013-01-21 20:05:00,37.9,2.5,30.40,West,270,24.0,33.0,22,0.00,,SKC,0.00,VWS V14.01,2013-01-22 03:05:00,
2013-01-21 20:06:00,37.9,2.5,30.40,WSW,240,33.0,33.0,22,0.00,,SKC,0.00,VWS V14.01,2013-01-22 03:06:00,
2013-01-21 20:07:00,37.9,2.5,30.40,WSW,251,16.0,33.0,22,0.00,,SKC,0.00,VWS V14.01,2013-01-22 03:07:00,
2013-01-21 20:08:00,37.9,2.5,30.40,WNW,287,29.0,29.0,22,0.00,,SKC,0.00,VWS V14.01,2013-01-22 03:08:00,
2013-01-21 20:09:00,37.9,2.5,30.40,West,270,31.0,44.0,22,0.00,,SKC,0.00,VWS V14.01,2013-01-22 03:09:00,
2013-01-21 20:10:00,37.9,2.5,30.41,North,360,25.0,31.0,22,0.00,,SKC,0.00,VWS V14.01,2013-01-22 03:10:00,
2013-01-21 20:11:00,37.9,2.5,30.40,WSW,258,19.0,30.0,22,0.00,,SKC,0.00,VWS V14.01,2013-01-22 03:11:00,
2013-01-21 20:12:00,37.9,2.5,30.40,West,268,21.0,25.0,22,0.00,,SKC,0.00,VWS V14.01,2013-01-22 03:12:00,
2013-01-21 20:13:00,37.8,2.4,30.40,North,360,17.0,21.0,22,0.00,,SKC,0.00,VWS V14.01,2013-01-22 03:13:00,
2013-01-21 20:14:00,37.8,2.4,30.40,West,281,25.0,27.0,22,0.00,,SKC,0.00,VWS V14.01,2013-01-22 03:14:00,
2013-01-21 20:15:00,37.7,2.3,30.40,West,263,22.0,33.0,22,0.00,,SKC,0.00,VWS V14.01,2013-01-22 03:15:00,
2013-01-21 20:16:00,37.7,2.3,30.40,West,277,26.0,35.0,22,0.00,,SKC,0.00,VWS V14.01,2013-01-22 03:16:00,
2013-01-21 20:17:00,37.7,2.3,30.40,North,360,21.0,30.0,22,0.00,,SKC,0.00,VWS V14.01,2013-01-22 03:17:00,
2013-01-21 20:18:00,37.7,2.3,30.40,West,272,26.0,26.0,22,0.00,,SKC,0.00,VWS V14.01,2013-01-22 03:18:00,
2013-01-21 20:19:00,37.7,2.3,30.40,West,275,22.0,26.0,22,0.00,,SKC,0.00,VWS V14.01,2013-01-22 03:19:00,
2013-01-21 20:20:00,37.6,3.2,30.40,WSW,257,22.0,25.0,23,0.00,,SKC,0.00,VWS V14.01,2013-01-22 03:20:00,
2013-01-21 20:21:00,37.6,3.2,30.41,WSW,252,24.0,29.0,23,0.00,,SKC,0.00,VWS V14.01,2013-01-22 03:21:00,
2013-01-21 20:22:00,37.5,2.1,30.40,West,273,29.0,31.0,22,0.00,,SKC,0.00,VWS V14.01,2013-01-22 03:22:00,
2013-01-21 20:23:00,37.5,3.1,30.40,North,360,26.0,33.0,23,0.00,,SKC,0.00,VWS V14.01,2013-01-22 03:23:00,
2013-01-21 20:24:00,37.5,2.1,30.40,WSW,242,31.0,40.0,22,0.00,,SKC,0.00,VWS V14.01,2013-01-22 03:24:00,
2013-01-21 20:25:00,37.6,2.2,30.39,WSW,257,17.0,32.0,22,0.00,,SKC,0.00,VWS V14.01,2013-01-22 03:25:00,
2013-01-21 20:26:00,37.7,2.3,30.40,WNW,284,28.0,31.0,22,0.00,,SKC,0.00,VWS V14.01,2013-01-22 03:26:00,
2013-01-21 20:27:00,37.7,2.3,30.39,North,360,28.0,33.0,22,0.00,,SKC,0.00,VWS V14.01,2013-01-22 03:27:00,
2013-01-21 20:28:00,37.7,2.3,30.39,WNW,285,22.0,32.0,22,0.00,,SKC,0.00,VWS V14.01,2013-01-22 03:28:00,
2013-01-21 20:29:00,37.8,2.4,30.39,West,273,24.0,41.0,22,0.00,,SKC,0.00,VWS V14.01,2013-01-22 03:29:00,
2013-01-21 20:38:00,37.6,2.2,30.39,WSW,240,16.0,27.0,22,0.00,,SKC,0.00,VWS V14.01,2013-01-22 03:38:00,
2013-01-21 20:43:00,37.7,2.3,30.39,WSW,245,38.0,44.0,22,0.00,,SKC,0.00,VWS V14.01,2013-01-22 03:43:00,
2013-01-21 20:48:00,37.8,2.4,30.39,West,281,27.0,29.0,22,0.00,,SKC,0.00,VWS V14.01,2013-01-22 03:48:00,
2013-01-21 20:54:00,37.7,2.3,30.39,WNW,296,30.0,32.0,22,0.00,,SKC,0.00,VWS V14.01,2013-01-22 03:54:00,
2013-01-21 20:59:00,37.6,2.2,30.40,SW,232,26.0,34.0,22,0.00,,SKC,0.00,VWS V14.01,2013-01-22 03:59:00,
2013-01-21 21:04:00,37.5,3.1,30.40,WSW,240,31.0,43.0,23,0.00,,SKC,0.00,VWS V14.01,2013-01-22 04:04:00,
2013-01-21 21:10:00,37.6,2.2,30.40,North,360,24.0,34.0,22,0.00,,SKC,0.00,VWS V14.01,2013-01-22 04:10:00,
2013-01-21 21:15:00,37.5,3.1,30.40,North,360,25.0,28.0,23,0.00,,SKC,0.00,VWS V14.01,2013-01-22 04:15:00,
2013-01-21 21:20:00,37.5,3.1,30.40,WSW,237,27.0,33.0,23,0.00,,SKC,0.00,VWS V14.01,2013-01-22 04:20:00,
2013-01-21 21:25:00,37.5,2.1,30.41,North,360,27.0,37.0,22,0.00,,SKC,0.00,VWS V14.01,2013-01-22 04:25:00,
2013-01-21 21:31:00,37.5,2.1,30.41,North,360,22.0,27.0,22,0.00,,SKC,0.00,VWS V14.01,2013-01-22 04:31:00,
2013-01-21 21:36:00,37.5,2.1,30.40,WNW,290,14.0,29.0,22,0.00,,SKC,0.00,VWS V14.01,2013-01-22 04:36:00,
2013-01-21 21:41:00,37.6,2.2,30.40,West,259,35.0,36.0,22,0.00,,SKC,0.00,VWS V14.01,2013-01-22 04:41:00,
2013-01-21 21:47:00,37.6,2.2,30.40,WNW,283,18.0,20.0,22,0.00,,SKC,0.00,VWS V14.01,2013-01-22 04:47:00,
2013-01-21 21:52:00,37.5,2.1,30.40,North,360,28.0,33.0,22,0.00,,SKC,0.00,VWS V14.01,2013-01-22 04:52:00,
2013-01-21 21:57:00,37.7,2.3,30.40,West,272,25.0,25.0,22,0.00,,SKC,0.00,VWS V14.01,2013-01-22 04:57:00,
2013-01-21 22:01:00,37.8,1.4,30.40,SW,227,21.0,33.0,21,0.00,,SKC,0.00,VWS V14.01,2013-01-22 05:01:00,
2013-01-21 22:02:00,37.9,1.5,30.39,WSW,240,27.0,33.0,21,0.00,,SKC,0.00,VWS V14.01,2013-01-22 05:02:00,
2013-01-21 22:06:00,38.1,1.6,30.39,North,360,31.0,33.0,21,0.00,,SKC,0.00,VWS V14.01,2013-01-22 05:06:00,
2013-01-21 22:09:00,38.1,1.6,30.39,SW,230,34.0,35.0,21,0.00,,SKC,0.00,VWS V14.01,2013-01-22 05:09:00,
2013-01-21 22:15:00,38.4,1.9,30.38,WSW,251,23.0,29.0,21,0.00,,SKC,0.00,VWS V14.01,2013-01-22 05:15:00,
2013-01-21 22:20:00,38.3,1.8,30.38,West,259,26.0,39.0,21,0.00,,SKC,0.00,VWS V14.01,2013-01-22 05:20:00,
2013-01-21 22:25:00,38.4,1.9,30.38,West,261,28.0,43.0,21,0.00,,SKC,0.00,VWS V14.01,2013-01-22 05:25:00,
2013-01-21 22:31:00,38.6,1.0,30.38,North,360,30.0,42.0,20,0.00,,SKC,0.00,VWS V14.01,2013-01-22 05:31:00,
2013-01-21 22:36:00,38.6,1.0,30.38,West,263,26.0,32.0,20,0.00,,SKC,0.00,VWS V14.01,2013-01-22 05:36:00,
2013-01-21 22:41:00,38.7,1.1,30.38,North,360,31.0,35.0,20,0.00,,SKC,0.00,VWS V14.01,2013-01-22 05:41:00,
2013-01-21 22:46:00,38.8,1.2,30.38,WSW,243,26.0,30.0,20,0.00,,SKC,0.00,VWS V14.01,2013-01-22 05:46:00,
2013-01-21 22:52:00,39.1,0.3,30.38,WSW,248,19.0,28.0,19,0.00,,SKC,0.00,VWS V14.01,2013-01-22 05:52:00,
2013-01-21 22:57:00,39.3,-0.6,30.38,WSW,253,32.0,33.0,18,0.00,,SKC,0.00,VWS V14.01,2013-01-22 05:57:00,
2013-01-21 23:03:00,39.6,-0.4,30.37,WSW,247,23.0,28.0,18,0.00,,SKC,0.00,VWS V14.01,2013-01-22 06:03:00,
2013-01-21 23:08:00,39.6,-0.4,30.37,North,360,22.0,25.0,18,0.00,,SKC,0.00,VWS V14.01,2013-01-22 06:08:00,
2013-01-21 23:13:00,39.5,-0.5,30.38,North,360,10.0,22.0,18,0.00,,SKC,0.00,VWS V14.01,2013-01-22 06:13:00,
2013-01-21 23:18:00,39.6,-0.4,30.37,North,360,32.0,37.0,18,0.00,,SKC,0.00,VWS V14.01,2013-01-22 06:18:00,
2013-01-21 23:23:00,39.7,-0.3,30.36,West,270,29.0,43.0,18,0.00,,SKC,0.00,VWS V14.01,2013-01-22 06:23:00,
2013-01-21 23:29:00,39.5,-0.5,30.34,West,265,29.0,35.0,18,0.00,,SKC,0.00,VWS V14.01,2013-01-22 06:29:00,
2013-01-21 23:35:00,39.4,-0.6,30.33,WNW,287,39.0,39.0,18,0.00,,SKC,0.00,VWS V14.01,2013-01-22 06:35:00,
2013-01-21 23:40:00,39.4,-0.6,30.32,West,272,32.0,42.0,18,0.00,,SKC,0.00,VWS V14.01,2013-01-22 06:40:00,
2013-01-21 23:45:00,39.6,-0.4,30.33,WNW,300,28.0,33.0,18,0.00,,SKC,0.00,VWS V14.01,2013-01-22 06:45:00,
2013-01-21 23:50:00,39.7,-0.3,30.33,North,360,20.0,22.0,18,0.00,,SKC,0.00,VWS V14.01,2013-01-22 06:50:00,
2013-01-21 23:55:00,39.6,-0.4,30.32,West,280,19.0,22.0,18,0.00,,SKC,0.00,VWS V14.01,2013-01-22 06:55:00,